[[{"header":{"parameterUnit":"m.s-1","parameterCategory":1,"la1":30.6,"la2":29.2853,"lo1":-89.7004,"lo2":-87.6739,"dy":0.0162,"dx":0.0183,"nx":112,"ny":82,"refTime":"2023-10-05T12:00:00:Z","depth":0,"parameterNumber":2,"parameterNumberName":"U-component_of_WINDS"},"data":[0.0,0.0,0.0,0.0,0.0,0.0,0.0,0.0,0.0,0.0,0.0,0.0,0.0,0.0,0.0,0.0,0.0,0.0,0.0,0.0,0.0,0.0,0.0,0.0,0.0,0.0,0.0,0.0,0.0,0.0,0.0,0.0,0.0,0.0,0.0,0.0,0.0,0.0,0.0,0.0,0.0,0.0,0.0,0.0,0.0,0.0,0.0,0.0,0.0,0.0,0.0,0.0,0.0,0.0,0.0,0.0,0.0,0.0,0.0,0.0,0.0,0.0,0.0,0.0,0.0,0.0,0.0,0.0,0.0,0.0,0.0,0.0,0.0,0.0,0.0,0.0,0.0,0.0,0.0,0.0,0.0,0.0,0.0,0.0,0.0,0.0,0.0,0.0,0.0,0.0,-2.007,-2.0811,-2.2722,-2.3231,-2.1474,-2.0095,-1.8619,-1.6961,0.0,0.0,0.0,0.0,0.0,0.0,0.0,0.0,0.0,0.0,0.0,0.0,0.0,0.0,0.0,0.0,0.0,0.0,0.0,0.0,0.0,0.0,0.0,0.0,0.0,0.0,0.0,0.0,0.0,0.0,0.0,0.0,0.0,0.0,0.0,0.0,0.0,0.0,0.0,0.0,0.0,0.0,0.0,0.0,0.0,0.0,0.0,0.0,0.0,0.0,0.0,0.0,0.0,0.0,0.0,0.0,0.0,0.0,0.0,0.0,0.0,0.0,0.0,0.0,0.0,0.0,0.0,0.0,0.0,0.0,0.0,0.0,0.0,0.0,0.0,0.0,0.0,0.0,0.0,0.0,0.0,0.0,0.0,0.0,0.0,0.0,0.0,0.0,0.0,0.0,0.0,0.0,0.0,0.0,0.0,0.0,0.0,0.0,0.0,0.0,0.0,0.0,0.0,0.0,-2.1127,-2.2482,-2.2755,-2.2359,-2.1164,-1.8373,-1.6428,-1.5863,0.0,0.0,0.0,0.0,0.0,0.0,0.0,0.0,0.0,0.0,0.0,0.0,0.0,0.0,0.0,0.0,0.0,0.0,0.0,0.0,0.0,0.0,0.0,0.0,0.0,0.0,0.0,0.0,0.0,0.0,0.0,0.0,0.0,0.0,0.0,0.0,0.0,0.0,0.0,0.0,0.0,0.0,0.0,0.0,0.0,0.0,0.0,0.0,0.0,0.0,0.0,0.0,0.0,0.0,0.0,0.0,0.0,0.0,0.0,0.0,0.0,0.0,0.0,0.0,0.0,0.0,0.0,0.0,0.0,0.0,0.0,0.0,0.0,0.0,0.0,0.0,0.0,0.0,0.0,0.0,0.0,0.0,0.0,0.0,0.0,0.0,0.0,0.0,0.0,0.0,0.0,0.0,0.0,0.0,0.0,0.0,0.0,0.0,0.0,0.0,0.0,0.0,0.0,-2.0699,-2.1408,-2.3419,-2.3027,-2.2012,-2.0517,-1.74,-1.5297,-1.4816,-1.3446,0.0,0.0,0.0,0.0,0.0,0.0,0.0,0.0,0.0,0.0,0.0,0.0,0.0,0.0,0.0,0.0,0.0,0.0,0.0,0.0,0.0,0.0,0.0,0.0,0.0,0.0,0.0,0.0,0.0,0.0,0.0,0.0,0.0,0.0,0.0,0.0,0.0,0.0,0.0,0.0,0.0,0.0,0.0,0.0,0.0,0.0,0.0,0.0,0.0,0.0,0.0,0.0,0.0,0.0,0.0,0.0,0.0,0.0,0.0,0.0,0.0,0.0,0.0,0.0,0.0,0.0,0.0,0.0,0.0,0.0,0.0,0.0,0.0,0.0,0.0,0.0,0.0,0.0,0.0,0.0,0.0,0.0,0.0,0.0,0.0,0.0,0.0,0.0,0.0,0.0,0.0,0.0,0.0,0.0,0.0,0.0,0.0,0.0,0.0,0.0,0.0,0.0,-2.1113,-2.1461,-2.3504,-2.2738,-2.1402,-1.9672,-1.6729,-1.4727,-1.4145,-1.2257,0.0,0.0,0.0,0.0,0.0,0.0,0.0,0.0,0.0,0.0,0.0,0.0,0.0,0.0,0.0,0.0,0.0,0.0,0.0,0.0,0.0,0.0,0.0,0.0,0.0,0.0,0.0,0.0,0.0,0.0,0.0,0.0,0.0,0.0,0.0,0.0,0.0,0.0,0.0,0.0,0.0,0.0,0.0,0.0,0.0,0.0,0.0,0.0,0.0,0.0,0.0,0.0,0.0,0.0,0.0,0.0,0.0,0.0,0.0,0.0,0.0,0.0,0.0,0.0,0.0,0.0,0.0,0.0,0.0,0.0,0.0,0.0,0.0,0.0,0.0,0.0,0.0,0.0,0.0,0.0,0.0,0.0,0.0,0.0,0.0,0.0,0.0,0.0,0.0,0.0,0.0,0.0,0.0,0.0,0.0,0.0,0.0,0.0,0.0,0.0,0.0,0.0,-2.1274,-2.1502,-2.2189,-2.1299,-2.0052,-1.854,-1.6274,-1.4693,-1.4142,-1.2383,0.0,0.0,0.0,0.0,0.0,0.0,0.0,0.0,0.0,0.0,0.0,0.0,0.0,0.0,0.0,0.0,0.0,0.0,0.0,0.0,0.0,0.0,0.0,0.0,0.0,0.0,0.0,0.0,0.0,0.0,0.0,0.0,0.0,0.0,0.0,0.0,0.0,0.0,0.0,0.0,0.0,0.0,0.0,0.0,0.0,0.0,0.0,0.0,0.0,0.0,0.0,0.0,0.0,0.0,0.0,0.0,0.0,0.0,0.0,0.0,0.0,0.0,0.0,0.0,0.0,0.0,0.0,0.0,0.0,0.0,0.0,0.0,0.0,0.0,0.0,0.0,0.0,0.0,0.0,0.0,0.0,0.0,0.0,0.0,0.0,0.0,0.0,0.0,0.0,0.0,0.0,0.0,0.0,0.0,0.0,0.0,0.0,0.0,0.0,0.0,0.0,0.0,-1.9969,-2.0109,0.0,-2.0047,-1.8725,-1.7703,-1.495,-1.3242,-1.317,0.0,0.0,0.0,0.0,0.0,0.0,0.0,0.0,0.0,0.0,0.0,0.0,0.0,0.0,0.0,0.0,0.0,0.0,0.0,0.0,0.0,0.0,0.0,0.0,0.0,0.0,0.0,0.0,0.0,0.0,0.0,0.0,0.0,0.0,0.0,0.0,0.0,0.0,0.0,0.0,0.0,0.0,0.0,0.0,0.0,0.0,0.0,0.0,0.0,0.0,0.0,0.0,0.0,0.0,0.0,0.0,0.0,0.0,0.0,0.0,0.0,0.0,0.0,0.0,0.0,0.0,0.0,0.0,0.0,0.0,0.0,0.0,0.0,0.0,0.0,0.0,0.0,0.0,0.0,0.0,0.0,0.0,0.0,0.0,0.0,0.0,0.0,0.0,0.0,0.0,0.0,0.0,0.0,0.0,0.0,0.0,0.0,0.0,0.0,0.0,0.0,0.0,-1.9442,-1.9004,-1.9001,0.0,-1.9017,-1.7645,-1.6439,-1.399,-1.2555,-1.2575,0.0,0.0,0.0,0.0,0.0,0.0,0.0,0.0,0.0,0.0,0.0,0.0,0.0,0.0,0.0,0.0,0.0,0.0,0.0,0.0,0.0,0.0,0.0,0.0,0.0,0.0,0.0,0.0,0.0,0.0,0.0,0.0,0.0,0.0,0.0,0.0,0.0,0.0,0.0,0.0,0.0,0.0,0.0,0.0,0.0,0.0,0.0,0.0,0.0,0.0,0.0,0.0,0.0,0.0,0.0,0.0,0.0,0.0,0.0,0.0,0.0,0.0,0.0,0.0,0.0,0.0,0.0,0.0,0.0,0.0,0.0,0.0,0.0,0.0,0.0,0.0,0.0,0.0,0.0,0.0,0.0,0.0,0.0,0.0,0.0,0.0,0.0,0.0,0.0,0.0,0.0,0.0,0.0,0.0,0.0,0.0,0.0,0.0,0.0,0.0,0.0,0.0,-1.9087,-1.862,-1.834,-1.8816,-1.8217,-1.6876,-1.468,-1.3557,-1.2838,0.0,0.0,0.0,0.0,0.0,0.0,0.0,0.0,0.0,0.0,0.0,0.0,0.0,0.0,0.0,0.0,0.0,0.0,0.0,0.0,0.0,0.0,0.0,0.0,0.0,0.0,0.0,0.0,0.0,0.0,0.0,0.0,0.0,0.0,0.0,0.0,0.0,0.0,0.0,0.0,0.0,0.0,0.0,0.0,0.0,0.0,0.0,0.0,0.0,0.0,0.0,0.0,0.0,0.0,0.0,0.0,0.0,0.0,0.0,0.0,0.0,0.0,0.0,0.0,0.0,0.0,0.0,0.0,0.0,0.0,0.0,0.0,0.0,0.0,0.0,0.0,0.0,0.0,0.0,0.0,0.0,0.0,0.0,0.0,0.0,0.0,0.0,0.0,0.0,0.0,0.0,0.0,0.0,0.0,0.0,0.0,0.0,0.0,0.0,0.0,0.0,0.0,0.0,-1.8063,-1.7143,-1.6629,-1.7274,-1.6678,-1.5561,-1.387,-1.2469,-1.1991,-1.2804,0.0,0.0,0.0,0.0,0.0,0.0,0.0,0.0,0.0,0.0,0.0,0.0,0.0,0.0,0.0,0.0,0.0,0.0,0.0,0.0,0.0,0.0,0.0,0.0,0.0,0.0,0.0,0.0,0.0,0.0,0.0,0.0,0.0,0.0,0.0,0.0,0.0,0.0,0.0,0.0,0.0,0.0,0.0,0.0,0.0,0.0,0.0,0.0,0.0,0.0,0.0,0.0,0.0,0.0,0.0,0.0,0.0,0.0,0.0,0.0,0.0,0.0,0.0,0.0,0.0,0.0,0.0,0.0,0.0,0.0,0.0,0.0,0.0,0.0,0.0,0.0,0.0,0.0,0.0,0.0,0.0,0.0,0.0,0.0,0.0,0.0,0.0,0.0,0.0,0.0,0.0,0.0,0.0,0.0,0.0,0.0,0.0,0.0,0.0,0.0,0.0,0.0,-1.7586,-1.6272,-1.5561,-1.6597,-1.5781,-1.4682,-1.3498,-1.22,-1.1756,-1.245,0.0,0.0,0.0,0.0,0.0,0.0,0.0,0.0,0.0,0.0,0.0,0.0,0.0,0.0,0.0,0.0,0.0,0.0,0.0,0.0,0.0,0.0,0.0,0.0,0.0,0.0,0.0,0.0,0.0,0.0,0.0,0.0,0.0,0.0,0.0,0.0,0.0,0.0,0.0,0.0,0.0,0.0,0.0,0.0,0.0,0.0,0.0,0.0,0.0,0.0,0.0,0.0,0.0,0.0,0.0,0.0,0.0,0.0,0.0,0.0,0.0,0.0,0.0,0.0,0.0,0.0,0.0,0.0,0.0,0.0,0.0,0.0,0.0,0.0,0.0,0.0,0.0,0.0,0.0,0.0,0.0,0.0,0.0,0.0,0.0,0.0,0.0,0.0,0.0,0.0,0.0,0.0,0.0,0.0,0.0,0.0,0.0,0.0,0.0,0.0,0.0,0.0,-1.7519,-1.5863,-1.5018,-1.6362,-1.5322,-1.4156,-1.3329,-1.2489,-1.1959,-1.1777,0.0,0.0,0.0,0.0,0.0,0.0,0.0,0.0,0.0,0.0,0.0,0.0,0.0,0.0,0.0,0.0,0.0,0.0,0.0,0.0,0.0,0.0,0.0,0.0,0.0,0.0,0.0,0.0,0.0,0.0,0.0,0.0,0.0,0.0,0.0,0.0,0.0,0.0,0.0,0.0,0.0,0.0,0.0,0.0,0.0,0.0,0.0,0.0,0.0,0.0,0.0,0.0,0.0,0.0,0.0,0.0,0.0,0.0,0.0,0.0,-1.5665,-1.4695,0.0,0.0,0.0,0.0,0.0,0.0,0.0,0.0,0.0,0.0,0.0,0.0,0.0,0.0,0.0,0.0,0.0,0.0,0.0,0.0,0.0,0.0,0.0,0.0,0.0,0.0,0.0,0.0,0.0,0.0,0.0,0.0,0.0,0.0,0.0,0.0,0.0,0.0,0.0,0.0,-1.7209,-1.5724,-1.4663,-1.5076,-1.4752,-1.3884,-1.234,-1.2221,-1.2218,-1.2169,-1.2504,0.0,0.0,0.0,0.0,0.0,0.0,0.0,0.0,0.0,0.0,0.0,0.0,0.0,0.0,0.0,0.0,0.0,0.0,0.0,0.0,0.0,0.0,0.0,0.0,0.0,0.0,0.0,0.0,0.0,0.0,0.0,0.0,0.0,0.0,0.0,0.0,0.0,0.0,0.0,0.0,0.0,0.0,0.0,0.0,0.0,0.0,0.0,0.0,0.0,0.0,0.0,0.0,0.0,0.0,0.0,0.0,0.0,0.0,0.0,-1.7482,-1.6271,0.0,0.0,0.0,0.0,0.0,0.0,0.0,0.0,0.0,0.0,0.0,0.0,0.0,0.0,0.0,0.0,0.0,0.0,0.0,0.0,0.0,0.0,0.0,0.0,0.0,0.0,0.0,0.0,0.0,0.0,0.0,0.0,0.0,0.0,0.0,0.0,0.0,0.0,0.0,0.0,-1.6832,-1.5021,-1.3743,-1.417,-1.3847,-1.3225,-1.2311,-1.2351,-1.2356,-1.2122,-1.244,0.0,0.0,0.0,0.0,0.0,0.0,0.0,0.0,0.0,0.0,0.0,0.0,0.0,0.0,0.0,0.0,0.0,0.0,0.0,0.0,0.0,0.0,0.0,0.0,0.0,0.0,0.0,0.0,0.0,0.0,0.0,0.0,0.0,0.0,0.0,0.0,0.0,0.0,0.0,0.0,0.0,0.0,0.0,0.0,0.0,0.0,0.0,0.0,0.0,0.0,0.0,0.0,0.0,-2.1408,-2.1721,-2.2024,-2.1919,-2.1575,-2.0983,-1.9394,-1.8153,-1.727,-1.7312,0.0,0.0,0.0,0.0,0.0,0.0,0.0,0.0,0.0,0.0,0.0,0.0,0.0,0.0,0.0,0.0,0.0,0.0,0.0,0.0,0.0,0.0,-1.8688,-1.9241,-1.8927,-1.8388,-1.7817,0.0,0.0,0.0,0.0,0.0,0.0,0.0,0.0,0.0,0.0,0.0,-1.6517,-1.4403,-1.3035,-1.3653,-1.3047,-1.2591,-1.2533,-1.261,-1.2452,-1.1942,-1.2521,-1.3023,0.0,0.0,0.0,0.0,0.0,0.0,0.0,0.0,0.0,0.0,0.0,0.0,0.0,0.0,0.0,0.0,0.0,0.0,0.0,0.0,0.0,0.0,0.0,0.0,0.0,0.0,0.0,0.0,0.0,0.0,0.0,0.0,-1.5837,-1.683,0.0,0.0,0.0,0.0,0.0,0.0,0.0,0.0,0.0,0.0,0.0,0.0,0.0,-2.0812,-2.1306,-2.1458,-2.1834,-2.2428,-2.2495,-2.281,-2.3325,-2.2802,-2.2503,-2.2383,-2.159,0.0,-1.8611,-1.811,0.0,0.0,0.0,0.0,0.0,0.0,0.0,0.0,0.0,0.0,0.0,0.0,0.0,0.0,0.0,0.0,0.0,0.0,0.0,0.0,0.0,0.0,-1.7983,-1.7956,-1.7891,-1.7802,-1.7712,-1.8171,-1.8584,-1.8584,-1.8138,-1.7688,0.0,0.0,0.0,0.0,0.0,0.0,-1.6324,-1.4672,-1.354,-1.3758,-1.3077,-1.2514,-1.2271,-1.2684,-1.2648,-1.1942,-1.2222,-1.2688,-1.3379,-1.3769,0.0,0.0,0.0,0.0,0.0,0.0,0.0,0.0,0.0,0.0,0.0,0.0,0.0,0.0,0.0,0.0,0.0,0.0,0.0,0.0,0.0,0.0,0.0,0.0,0.0,0.0,0.0,0.0,0.0,-1.6951,-1.7866,-1.7913,-1.7817,-1.761,0.0,0.0,0.0,0.0,0.0,0.0,0.0,0.0,0.0,-2.0797,-2.1455,-2.1964,-2.2248,-2.2592,-2.3101,-2.3774,-2.3774,-2.4103,-2.4717,-2.4448,-2.4118,-2.3774,-2.3864,-2.2988,-2.1477,-2.0487,-1.986,-1.9522,0.0,0.0,0.0,0.0,-1.978,-1.981,-1.9433,-1.9142,-1.8821,-1.8104,0.0,0.0,0.0,0.0,0.0,0.0,0.0,-1.8593,-1.8856,-1.8905,-1.8918,-1.8862,-1.8822,-1.8822,-1.8822,-1.8762,-1.8702,-1.8702,-1.8463,-1.8268,-1.8268,-1.7637,0.0,0.0,0.0,-1.5531,-1.595,-1.4357,-1.3168,-1.322,-1.2582,-1.2092,-1.1997,-1.219,-1.225,-1.2066,-1.1793,-1.2101,-1.3123,-1.3173,-1.3891,0.0,0.0,0.0,0.0,0.0,0.0,0.0,0.0,0.0,0.0,0.0,0.0,0.0,0.0,0.0,0.0,0.0,0.0,0.0,0.0,0.0,0.0,0.0,0.0,0.0,0.0,0.0,0.0,-1.8287,-1.8879,-1.8479,-1.8695,-1.8795,0.0,0.0,0.0,0.0,0.0,0.0,-2.0918,-2.1262,-2.1669,-2.2158,-2.2832,-2.3251,-2.343,-2.3894,-2.4462,-2.5136,-2.5136,-2.548,-2.6108,-2.5929,-2.56,-2.5151,-2.548,-2.4941,-2.3789,-2.2832,-2.2054,-2.1461,-2.1542,-2.1593,-2.1593,-2.1593,-2.1713,-2.183,-2.1493,-2.1175,-2.0765,-2.0006,-1.9043,-1.8158,-1.7843,0.0,0.0,0.0,0.0,-1.9498,-2.0072,-2.0198,-2.0154,-1.9989,-1.9944,-1.9899,-1.972,-1.9301,-1.8912,-1.8732,-1.8568,-1.8508,-1.8672,-1.7861,0.0,-1.7861,-1.6593,-1.565,-1.5979,-1.4423,-1.331,-1.331,-1.2553,-1.2044,-1.2044,-1.196,-1.1997,-1.2205,-1.1749,-1.1898,-1.2855,-1.2906,-1.3462,-1.4673,0.0,0.0,0.0,0.0,0.0,0.0,0.0,0.0,0.0,0.0,0.0,0.0,0.0,0.0,0.0,0.0,0.0,0.0,0.0,0.0,0.0,0.0,0.0,0.0,0.0,0.0,0.0,0.0,0.0,-1.7714,-1.8305,0.0,0.0,0.0,0.0,-1.9837,-2.0921,-2.1607,-2.1657,-2.2785,-2.3478,-2.352,-2.4163,-2.4837,-2.545,-2.5495,-2.5839,-2.6497,-2.6497,-2.6841,-2.7505,-2.6826,-2.6527,-2.6452,-2.5869,-2.5211,-2.4522,-2.4462,-2.4073,-2.3445,-2.3447,-2.3447,-2.3447,-2.3447,-2.2774,-2.1989,-2.2456,-2.186,-2.095,-2.1427,-2.1147,-2.0425,-1.9237,-1.9244,0.0,0.0,-2.0637,-2.0761,-2.1416,-2.159,-2.144,-2.0812,-2.0662,-2.0483,-1.9824,-1.966,-1.945,-1.8822,-1.8208,-1.7936,-1.8597,0.0,-1.8612,-1.8642,-1.8029,-1.7339,-1.6741,-1.5515,-1.4692,-1.4692,-1.3535,-1.2756,-1.2756,-1.239,-1.2185,-1.2205,-1.2404,-1.2543,-1.263,-1.263,-1.3102,-1.4126,-1.4311,0.0,0.0,0.0,0.0,0.0,0.0,0.0,0.0,0.0,0.0,0.0,0.0,0.0,0.0,0.0,0.0,0.0,0.0,0.0,0.0,0.0,0.0,0.0,0.0,0.0,0.0,0.0,0.0,-1.9611,-2.0582,0.0,-2.0427,-2.1128,-2.1652,-2.1698,-2.2478,-2.3121,-2.3517,-2.398,-2.4828,-2.6123,-2.6393,-2.7051,-2.8143,-2.8158,-2.8278,-2.8517,-2.8517,-2.8412,-2.8233,-2.8427,-2.7814,-2.6617,-2.726,-2.6916,-2.5929,-2.6348,-2.563,-2.4298,-2.4732,-2.4896,-2.4896,-2.4896,-2.4909,-2.4815,-2.4179,-2.3628,-2.2981,-2.1139,-2.0422,-2.0072,-1.9269,-1.9125,-1.9382,-1.9972,-2.0387,-2.0779,-2.1,-2.137,-2.1635,-2.1395,-2.1021,-2.0647,-2.0408,-1.9989,-1.9615,-1.9375,-1.8807,-1.8568,-1.9226,-1.8627,-1.8208,-1.8642,-1.8149,-1.7458,-1.6801,-1.5964,-1.5289,-1.4842,-1.3989,-1.3256,-1.2846,-1.3066,-1.3038,-1.2606,-1.2687,-1.2818,-1.2989,-1.2732,-1.3109,-1.4209,-1.3903,-1.4659,0.0,0.0,0.0,0.0,0.0,0.0,0.0,0.0,0.0,0.0,0.0,0.0,0.0,0.0,0.0,0.0,0.0,0.0,0.0,0.0,0.0,0.0,0.0,0.0,0.0,0.0,-2.1455,-2.1665,-2.247,-2.2813,-2.2394,-2.2742,-2.32,-2.364,-2.4268,-2.498,-2.5882,-2.6134,-2.6908,-2.8218,-2.8248,-2.8682,-2.9564,-2.9579,-2.9579,-2.9579,-2.9579,-2.9355,-2.8951,-2.9385,-2.8846,-2.7634,-2.8308,-2.7964,-2.6961,-2.7445,-2.6797,-2.5674,-2.6093,-2.6273,-2.6273,-2.6273,-2.6408,-2.6408,-2.5091,-2.4582,-2.4163,-2.164,-2.0675,-2.037,-1.9743,-1.9439,-1.9412,-2.022,-2.0899,-2.1467,-2.1917,-2.2344,-2.2622,-2.2398,-2.1844,-2.1261,-2.0812,-2.0363,-1.9959,-1.9735,-1.9331,-1.9166,-1.9615,-1.8957,-1.8538,-1.8972,-1.8478,-1.7861,-1.7428,-1.6637,-1.5934,-1.55,-1.4663,-1.3959,-1.352,-1.387,-1.3855,-1.3166,-1.3145,-1.3217,-1.3405,-1.3036,-1.3343,-1.4405,-1.2932,-1.3639,-1.6654,0.0,0.0,0.0,0.0,0.0,0.0,0.0,0.0,0.0,0.0,0.0,0.0,0.0,0.0,0.0,0.0,0.0,0.0,0.0,0.0,0.0,0.0,0.0,-2.1754,-2.2353,-2.3026,-2.3625,-2.3714,-2.3714,-2.3714,-2.3728,-2.4267,-2.5582,-2.6332,-2.7259,-2.8557,-2.923,-2.9625,-2.9624,-2.9609,-2.9624,-2.9639,-2.9639,-2.9639,-2.9639,-2.9639,-2.9624,-2.9609,-2.9624,-2.9624,-2.9549,-2.8936,-2.8263,-2.7655,-2.7619,-2.767,-2.7655,-2.7625,-2.7625,-2.7655,-2.7625,-2.7156,-2.6408,-2.5106,-2.4597,-2.4385,-2.3041,-2.2235,-2.1609,-2.0964,-2.0353,-2.0093,-2.1334,-2.2159,-2.2972,-2.4217,-2.4552,-2.4418,-2.3746,-2.3146,-2.2323,-2.1051,-2.0767,-2.0543,-1.9884,-1.975,-1.9735,-1.969,-1.969,-1.969,-1.969,-1.9151,0.0,-1.8702,-1.7563,-1.6756,-1.6741,-1.5635,-1.4857,-1.4827,-1.4842,-1.4573,-1.3885,-1.384,-1.384,-1.384,-1.3505,-1.376,-1.4703,-1.1544,-1.1865,-1.5827,0.0,0.0,0.0,0.0,0.0,0.0,0.0,0.0,0.0,0.0,0.0,0.0,0.0,0.0,0.0,0.0,0.0,0.0,0.0,0.0,0.0,-2.2614,-2.364,-2.3146,-2.4477,-2.5585,-2.5749,-2.6183,-2.6482,-2.6482,-2.6519,-2.6837,-2.769,-2.8414,-2.8939,-2.9315,-2.952,-2.9794,-3.0238,-3.0253,-3.0492,-3.0986,-3.1001,-3.1001,-3.1001,-3.1001,-3.0702,-3.0248,-3.0746,-3.044,-2.9599,-2.9885,-2.9332,-2.8353,-2.8831,-2.8742,-2.8263,-2.7769,-2.7874,-2.8263,-2.7754,-2.7156,-2.6467,-2.563,-2.5031,-2.4476,-2.3645,-2.2929,-2.2314,-2.2102,-2.1607,-2.1138,-2.1491,-2.1996,-2.2537,-2.2888,-2.3378,-2.3743,-2.3554,-2.3113,-2.2619,-2.2218,-2.1754,-2.1365,-2.1186,-2.1141,-2.0827,-1.9854,-1.969,-1.969,-1.969,-1.9525,-1.9241,-1.8762,-1.8388,-1.7951,-1.7473,-1.71,-1.6533,-1.5604,-1.5934,-1.5696,-1.4588,-1.4528,-1.4528,-1.4528,-1.4154,-1.442,-1.5399,-1.4821,-1.5055,0.0,0.0,0.0,0.0,0.0,0.0,0.0,0.0,0.0,0.0,0.0,0.0,0.0,0.0,0.0,0.0,0.0,0.0,0.0,0.0,0.0,0.0,-2.4885,-2.6258,-2.6123,-2.6871,-2.753,-2.7814,-2.8173,-2.8464,-2.8464,-2.8464,-2.8847,-2.9735,-3.0193,-3.0636,-3.1187,-3.0974,-3.0971,-3.133,-3.1345,-3.1539,-3.1943,-3.1943,-3.1943,-3.1943,-3.1601,-3.1315,-3.0953,-3.133,-3.1066,-3.0413,-3.0495,-3.0095,-2.9416,-2.9525,-2.9505,-2.9325,0.0,0.0,0.0,0.0,-2.7575,-2.6901,-2.6243,-2.5764,-2.5342,-2.4679,-2.3991,-2.3398,-2.3071,-2.2505,-2.1953,-2.1898,-2.2328,-2.2935,-2.3566,-2.403,-2.4422,-2.4728,-2.4354,-2.3744,-2.3191,-2.2757,-2.2338,-2.1799,-2.1695,0.0,-2.0662,-2.0303,-2.0124,-2.0124,-1.9869,-1.9555,-1.9166,-1.8867,-1.8553,-1.8179,-1.7861,-1.7311,-1.6263,-1.6741,0.0,0.0,0.0,-1.5164,-1.5023,-1.5042,0.0,0.0,0.0,-1.6258,-1.6145,-1.6448,0.0,0.0,-1.7288,-1.7595,0.0,0.0,0.0,0.0,0.0,0.0,0.0,0.0,0.0,0.0,0.0,0.0,0.0,0.0,0.0,0.0,-2.7343,-2.919,-2.9924,-2.952,-2.931,-2.9744,-2.9729,-2.9744,-2.9894,-2.9849,-3.0342,-3.1601,-3.1764,-3.2258,-3.344,-3.2946,0.0,0.0,0.0,-3.2617,-3.2617,-3.2557,-3.2512,-3.2497,-3.1795,-3.1482,-3.1482,-3.1482,-3.1482,-3.1452,-3.0878,-3.0585,-3.0482,-3.0007,-3.0118,-3.0552,-2.9924,-2.9594,-2.94,-2.8816,-2.8173,-2.752,-2.6811,0.0,0.0,-2.5835,-2.5243,-2.4647,-2.3947,-2.3282,-2.2776,-2.2668,-2.2981,-2.3641,-2.4927,-2.5251,-2.5414,-2.605,-2.5823,-2.5131,-2.3941,-2.3775,-2.349,-2.2353,-2.2084,-2.2024,-2.2024,-2.135,-2.0797,-2.0722,-2.0183,-1.9779,-1.969,-1.9166,-1.8807,-1.8807,-1.8283,0.0,-1.6995,-1.7473,-1.7311,-1.6098,-1.5948,-1.5775,-1.5463,-1.5968,-1.6246,-1.6246,-1.6246,-1.608,-1.5799,-1.6136,-1.6448,-1.6763,-1.7432,-1.78,0.0,0.0,0.0,0.0,0.0,0.0,0.0,0.0,0.0,0.0,0.0,0.0,0.0,0.0,0.0,-2.8248,-2.9958,-3.1375,-3.2572,-3.2632,-3.2198,-3.127,-3.0672,-3.0746,-3.1839,-3.1465,-3.1704,-3.3021,-3.311,-3.323,-3.3484,-3.338,-3.3305,-3.3305,-3.3305,-3.3305,-3.3305,-3.2781,-3.2512,-3.2497,-3.1795,0.0,-3.1482,-3.1482,-3.1482,-3.1467,-3.1334,-3.101,-3.0556,-3.0991,-3.1225,-3.127,-3.0597,-2.9699,-2.8771,-2.8652,-2.8173,-2.752,-2.6811,-2.6587,-2.6587,-2.6426,-2.5912,-2.5408,-2.5792,-2.5025,0.0,-2.3949,-2.358,-2.3187,-2.3469,-2.3625,-2.3755,-2.3919,-2.4353,-2.467,-2.4361,-2.4808,-2.5151,-2.4896,-2.4418,-2.4014,-2.4014,-2.2637,-2.1321,-2.0797,-2.0602,-2.0318,-1.975,-1.957,-1.9495,-1.9495,-1.9375,-1.9031,-1.8388,-1.8448,-1.8179,-1.7386,-1.6816,-1.6503,-1.6413,-1.6096,-1.5898,-1.5898,-1.5898,-1.5856,-1.5799,-1.6136,-1.6313,-1.6394,-1.7085,-1.7866,0.0,0.0,0.0,0.0,0.0,0.0,0.0,0.0,0.0,0.0,0.0,-2.1827,0.0,0.0,-2.8062,-3.0615,-3.1869,-3.2736,-3.341,-3.3784,-3.3619,-3.2632,-3.2213,-3.2258,-3.2946,-3.2706,-3.2916,-3.3903,-3.3978,-3.4143,-3.4472,-3.4173,-3.3978,-3.3978,-3.3978,-3.3978,-3.3978,-3.3664,-3.3499,-3.3484,-3.2811,-3.2315,-3.2013,-3.2324,-3.2131,-3.1539,-3.185,-3.1599,-3.1055,-3.175,-3.2213,-3.2437,-3.1764,-3.0702,-2.9549,-2.9549,-2.9146,-2.8532,-2.8203,-2.7874,-2.759,-2.759,-2.7372,-2.6982,-2.6616,-2.6226,-2.5797,-2.5456,-2.4838,-2.439,-2.5131,-2.5092,-2.4969,-2.5331,-2.5747,-2.5962,-2.5639,-2.5565,-2.5575,-2.5565,-2.5035,-2.457,-2.4581,-2.3775,-2.2727,-2.141,-2.0917,-2.0468,-1.9779,-1.969,-1.969,-1.969,-1.969,-1.942,-1.8762,-1.8403,-1.8041,-1.7712,-1.7384,-1.7055,-1.6726,-1.6398,-1.6099,-1.5814,-1.5799,-1.5799,-1.5799,-1.6136,-1.6301,-1.6328,-1.7167,-1.7962,0.0,0.0,0.0,0.0,0.0,0.0,0.0,0.0,-1.8782,-2.1131,-2.2672,-2.4662,-2.8159,-2.9205,-3.0283,-3.2527,-3.3455,-3.3888,-3.3888,-3.4337,-3.4427,-3.3769,-3.3574,-3.3544,-3.3679,-3.3679,-3.3963,-3.4622,-3.4666,-3.4921,-3.5474,-3.4981,-3.4666,-3.4666,-3.4666,-3.4666,-3.4666,-3.4547,-3.4472,-3.4472,-3.3832,-3.3216,-3.2688,-3.3269,-3.2927,-3.1916,-3.245,-3.236,-3.1958,-3.2482,-3.3021,-3.3425,-3.2766,-3.1854,-3.0866,-3.0597,-3.0118,-2.9579,-2.9579,-2.9235,-2.8786,-2.8786,-2.8786,-2.8576,-2.7433,-2.7393,-2.7564,-2.699,-2.6286,-2.5994,-2.7001,-2.6909,-2.6601,-2.7063,-2.7188,-2.7041,-2.6474,-2.5923,-2.5509,-2.5531,-2.5003,-2.4546,-2.4752,-2.4548,-2.3807,-2.2158,-2.1321,-2.0662,-1.9974,-1.9765,-1.969,-1.969,-1.969,-1.9465,-1.8942,-1.8403,-1.8104,-1.8104,-1.7984,-1.7637,-1.7115,-1.6965,-1.6592,-1.5979,-1.6084,-1.6053,-1.5799,-1.6327,-1.6514,-1.6391,-1.7355,-1.8035,-1.527,-1.5196,-1.5582,-1.7286,-1.7797,-1.8395,0.0,0.0,-2.1458,-2.3008,-2.5189,-2.7328,-2.9169,-3.1375,-3.323,-3.4113,-3.4831,-3.528,-3.528,-3.534,-3.513,-3.4442,-3.3844,-3.3724,-3.4307,-3.4367,-3.4651,-3.534,-3.5385,-3.5429,-3.5504,-3.5429,-3.5385,-3.5385,-3.5385,-3.5385,-3.5385,-3.4786,-3.4472,-3.4472,-3.3839,-3.3431,-3.3419,-3.3469,-3.3449,-3.3249,-3.3351,-3.3362,-3.3275,-3.3365,-3.3425,-3.3425,-3.2766,-3.2422,-3.2138,-3.0941,-3.0118,-2.9579,-2.9579,-2.9535,-2.9475,-2.9475,-2.9475,-2.946,-2.9316,-2.8796,-2.8295,-2.8182,-2.7654,-2.6979,-2.6649,-2.6482,-2.6287,-2.5744,-2.5673,-2.5659,-2.5535,-2.5466,-2.5438,-2.5423,-2.4896,-2.4637,-2.5279,-2.4428,-2.3383,-2.2688,-2.2009,-2.135,-2.0677,-2.0064,-1.969,-1.969,-1.969,-1.966,-1.9585,-1.951,-1.9465,-1.9465,-1.8912,-1.8553,-1.8493,-1.7891,-1.7279,-1.6622,-1.7174,-1.6937,-1.5799,-1.6968,-1.7237,-1.6668,-1.739,-1.813,-1.604,-1.6466,-1.7199,0.0,-1.9396,-2.0369,-2.1293,-2.1979,-2.2845,-2.4243,-2.5873,-2.7619,-2.9519,-3.1453,-3.2962,0.0,-3.4703,-3.5504,-3.5504,-3.516,-3.4666,-3.3978,-3.3664,-3.3754,-3.4412,-3.4472,-3.4756,-3.5444,-3.5504,-3.5504,-3.5504,-3.5504,-3.5504,-3.5504,-3.5504,-3.5504,-3.5504,-3.522,-3.507,-3.507,-3.4827,-3.445,-3.4077,-3.4454,-3.4435,-3.4085,-3.3657,-3.3722,-3.4068,-3.4068,-3.4307,-3.4592,-3.3918,-3.3649,-3.344,-3.1734,-3.0941,-3.0776,-3.115,-3.0776,-3.0178,-3.0597,-3.0447,-3.0058,-2.9684,-2.964,-2.9613,-2.9613,-2.9166,-2.8679,-2.8781,-2.8548,-2.8158,-2.7897,-2.7549,-2.7287,-2.7287,-2.6254,-2.5508,-2.596,-2.5136,-2.4449,-2.478,-2.4395,-2.3702,-2.2808,-2.2424,-2.1889,-2.0857,-2.0468,-2.0124,-1.9735,-1.969,-1.969,-1.969,-1.969,-1.969,-1.969,-1.9435,-1.9106,-1.8717,-1.8433,-1.7984,-1.7294,-1.7548,-1.7428,-1.6907,-1.7428,-1.7548,-1.7294,-1.7951,-1.8467,-1.707,-1.7746,0.0,-1.9813,-2.1141,-2.2218,-2.237,-2.323,-2.434,-2.5458,-2.6466,-2.7677,-2.9408,-3.0991,-3.2225,-3.2862,-3.4212,-3.522,-3.522,-3.4487,-3.3754,-3.3275,-3.2751,-3.2811,-3.3844,-3.4262,-3.4681,-3.519,-3.54,-3.5504,-3.5504,-3.5504,-3.5504,-3.5504,-3.5504,-3.5504,-3.5504,-3.5504,-3.5504,-3.5504,-3.5504,-3.525,-3.4771,-3.528,-3.5205,-3.473,-3.4233,-3.4322,-3.4756,-3.4756,-3.5055,-3.5429,-3.4741,-3.4472,-3.4277,-3.2677,-3.1958,-3.1884,-3.2347,-3.1749,-3.0896,-3.1584,-3.1345,-3.0702,-3.0253,-3.0432,-3.0791,-3.0791,-3.0462,-3.0178,-3.0432,-3.0178,-2.9789,-2.9624,-2.891,-2.8314,-2.8314,-2.678,-2.5508,-2.5837,-2.5007,-2.4319,-2.4354,-2.4055,-2.3644,-2.2986,-2.2626,-2.2071,-2.1104,-2.0816,-2.0453,-1.975,-1.969,-1.969,-1.969,-1.969,-1.969,-1.969,-1.969,-1.9465,-1.9001,-1.8972,-1.8672,-1.7981,-1.8179,-1.8056,-1.7697,-1.8056,-1.8179,-1.7981,-1.8672,-1.8972,-1.8574,-1.8798,-1.9356,-2.2274,-2.3454,-2.4069,-2.4588,-2.5557,-2.6449,-2.6778,-2.7417,-2.8155,-2.8975,-3.0401,-3.1637,-3.2338,-3.3598,-3.4502,-3.4502,-3.3395,-3.2557,-3.2542,-3.0866,-3.0462,0.0,-3.3724,-3.4487,-3.4502,-3.513,-3.5504,-3.5504,-3.5504,-3.5504,-3.5504,-3.5504,-3.5504,-3.5504,-3.5504,-3.5504,-3.5504,-3.5504,-3.5489,-3.5474,-3.5489,-3.5489,-3.5474,-3.5444,-3.5459,-3.5474,-3.5474,-3.5489,-3.5429,-3.4741,-3.4472,-3.4382,-3.3694,-3.3036,-3.2482,-3.2497,-3.2078,-3.1556,-3.2273,-3.2048,-3.1437,-3.1422,-3.1437,-3.1437,-3.1437,-3.1437,-3.133,-3.0672,-3.0492,-3.0328,-2.9729,-2.8557,-2.7501,-2.7501,-2.6383,-2.5175,-2.4509,-2.435,-2.4292,-2.4323,-2.326,-2.2698,-2.3472,-2.2533,-2.1695,-2.1685,-2.1112,-2.0453,-1.975,-1.969,-1.969,-1.969,-1.969,-1.969,-1.969,-1.969,-1.9675,-1.966,-1.966,-1.9346,-1.8687,-1.9301,-1.9001,-1.7697,-1.9001,-1.9301,-1.8687,-1.9346,-1.966,-1.9326,-2.0565,-2.2043,-2.3774,-2.498,-2.5796,-2.6324,-2.6742,-2.6746,-2.5701,-2.5371,-2.5239,-2.5143,-2.6793,-2.8464,-2.9489,-3.2016,-3.3829,-3.3829,-3.3814,-3.3335,-3.2018,-3.1659,0.0,0.0,0.0,0.0,-3.4382,-3.4696,-3.5026,-3.5489,-3.5504,-3.5504,-3.5504,-3.5504,-3.5504,-3.5504,-3.5504,-3.5504,-3.5504,-3.5504,-3.5504,-3.5504,-3.5504,-3.5504,-3.5504,-3.5504,-3.5504,-3.5504,-3.5504,-3.5504,-3.5489,-3.525,-3.516,-3.507,-3.4397,-3.4008,-3.3814,-3.3814,-3.338,-3.2946,-3.3604,-3.3365,-3.2751,-3.2317,-3.2183,-3.2093,-3.1601,-3.1482,-3.1422,-3.124,-3.118,-3.1135,-3.0926,-2.9863,-2.9,-2.9415,-2.7697,-2.6181,-2.6371,-2.5279,-2.416,-2.3751,-2.2933,-2.2317,-2.2285,-2.1594,-2.1258,-2.1656,-2.0732,-2.0099,-2.0356,-1.9959,-1.969,-1.969,-1.969,-1.969,-1.969,-1.969,-1.969,-1.969,-1.969,-1.9585,-1.9361,-1.957,-1.9465,-1.9031,-1.9465,-1.957,-1.9361,-1.9585,-1.969,-2.1274,-2.2781,-2.435,-2.5887,-2.6686,-2.7134,-2.7269,-2.6822,-2.5937,-2.4268,-2.3326,-2.264,-2.2056,-2.3703,-2.556,-2.6818,-2.9664,-3.1988,-3.2691,-3.2946,-3.2856,-3.2302,-3.1973,-3.1913,0.0,0.0,0.0,-3.4352,-3.4921,-3.5385,-3.5833,-3.6073,-3.6193,-3.6193,-3.6193,-3.6088,-3.5863,-3.5863,-3.5744,-3.5504,-3.5504,-3.5504,-3.5504,-3.5504,-3.5504,-3.5504,-3.5504,-3.5504,-3.5504,-3.5504,-3.5504,-3.5504,-3.5504,-3.5504,-3.5444,-3.5011,-3.4846,-3.4801,-3.4562,-3.4038,-3.3604,-3.4262,-3.4038,-3.3425,-3.2991,-3.2706,-3.2422,-3.2003,-3.1661,-3.1482,-3.1482,-3.1482,-3.1482,-3.1482,-3.0702,-3.0028,-3.0417,-2.8823,-2.7307,-2.7483,-2.598,-2.4503,-2.3834,-2.2763,-2.1744,-2.1069,-2.0654,-2.0671,-2.1288,-2.0812,-2.0306,-2.0074,-2.0064,-1.9871,-1.9472,-1.9603,-1.969,-1.969,-1.969,-1.969,-1.969,-1.969,-1.969,-1.969,-1.969,-1.969,-1.969,-1.969,-1.969,-1.969,-1.969,-1.969,-2.4242,-2.531,-2.6263,-2.8359,-2.8512,-2.7905,-2.7322,-2.5873,-2.4179,-2.2477,-2.1305,-2.0363,-1.9773,-2.1302,-2.3095,-2.4473,-2.7001,-2.9415,-3.1315,-3.1106,-3.1435,0.0,0.0,0.0,0.0,0.0,0.0,-3.4487,-3.5729,-3.6462,-3.6537,-3.709,-3.7404,-3.7404,-3.7404,-3.7105,-3.6492,-3.6447,-3.6148,-3.5549,-3.5549,-3.5579,-3.5609,-3.5564,-3.5549,-3.5549,-3.5519,-3.5504,-3.5504,-3.5504,-3.5504,-3.5504,-3.5504,-3.5504,-3.5504,-3.5504,-3.5504,-3.54,-3.4711,-3.4098,-3.3709,-3.4322,-3.4098,-3.3589,-3.3559,-3.311,-3.2602,-3.2542,-3.2093,-3.1556,-3.1497,-3.1526,-3.1556,-3.1497,-3.1031,-3.0552,-3.0507,-2.9505,-2.8381,-2.7723,-2.6397,-2.5175,-2.4368,-2.2698,-2.1117,-2.0012,-1.9874,-2.0116,-2.0702,-2.1274,-2.0925,-1.9127,-1.9966,-2.0144,-1.895,-1.9369,-1.9639,-1.9639,-1.9639,-1.969,-1.969,-1.969,-1.969,-1.969,-1.969,-1.969,-1.969,-1.969,-1.969,-1.969,-1.969,-1.969,-2.4999,-2.6443,-2.7688,-2.8627,-2.8213,-2.7276,-2.627,-2.4457,-2.2408,-2.0195,-1.8995,-1.8216,-1.7931,-2.0261,0.0,-2.4511,-2.8115,0.0,-3.2123,-3.3395,0.0,-3.3559,0.0,-3.4233,-3.4218,-3.4981,0.0,0.0,-3.5833,-3.6163,-3.712,-3.733,-3.7404,-3.7404,-3.7404,-3.7105,-3.6492,-3.5998,-3.5923,-3.6237,-3.6237,-3.6477,-3.6911,-3.6447,-3.6237,-3.6207,-3.5714,-3.5504,-3.5504,-3.5504,-3.5504,-3.5504,-3.5504,-3.5504,-3.5504,-3.5504,-3.5504,-3.54,-3.4711,-3.4696,-3.5026,-3.519,-3.513,-3.4891,-3.4382,-3.4113,-3.3769,-3.2781,-3.2751,-3.2766,-3.1735,-3.2258,-3.2751,-3.1764,-3.1405,-3.1135,-3.0612,-2.9505,-2.8689,-2.899,-2.7121,-2.4886,-2.3154,-2.2059,-2.1255,-2.0552,-2.079,-2.1011,-2.0801,-2.0489,-2.0143,-1.9663,-1.9489,-1.9053,-1.8344,-1.8817,-1.9095,-1.9095,-1.9095,-1.9281,-1.969,-1.9332,-1.9281,-1.969,-1.969,-1.969,-1.969,-1.969,-1.969,-1.969,-1.969,-1.969,-2.6735,-2.7968,-2.8827,-2.8884,-2.7921,-2.6599,-2.5192,-2.3,-2.0717,-1.8682,-1.7615,-1.6946,-1.6604,-1.8642,-2.0946,0.0,0.0,0.0,-3.1375,-3.3365,-3.4666,0.0,-3.522,0.0,-3.537,-3.6043,-3.6596,0.0,-3.6821,-3.709,-3.7808,-3.8123,-3.8287,-3.8287,-3.8287,-3.7838,-3.6896,-3.6522,-3.6387,-3.6492,-3.6761,-3.7075,-3.7404,-3.7045,-3.6881,-3.6851,-3.6207,-3.5938,-3.5908,-3.5624,-3.5504,-3.5504,-3.5504,-3.5504,-3.5504,-3.5504,-3.5504,-3.54,-3.4711,-3.4726,-3.5055,-3.5055,-3.525,-3.5429,-3.504,-3.4711,-3.4322,-3.3589,-3.344,-3.326,-3.2228,-3.2512,-3.2676,-3.1324,-3.097,-3.0793,-3.0045,-2.9074,-2.8209,-2.7726,-2.6354,-2.4704,-2.2667,-2.2058,-2.1656,-2.1104,-2.1292,-2.142,-2.1145,-2.0807,-2.0417,-1.9893,-1.9564,-1.903,-1.8194,-1.8377,-1.8535,-1.8535,-1.8535,-1.8688,-1.9006,-1.8688,-1.8817,-1.9332,-1.9369,-1.9442,-1.969,-1.969,-1.969,-1.969,-1.969,-1.969,-2.8737,-2.9397,-2.9641,-2.9038,-2.7583,-2.5818,-2.4129,-2.1419,-1.8846,-1.7472,-1.6622,-1.6058,-1.5745,-1.7101,-1.8948,-2.1011,0.0,-2.6907,-3.0313,-3.2347,-3.4247,-3.6252,-3.5983,-3.5893,-3.6552,-3.6686,-3.6971,-3.7494,-3.8153,-3.8527,-3.8527,-3.9095,-3.9424,-3.9424,-3.9334,-3.8721,-3.7554,-3.7449,-3.718,-3.6746,-3.7285,-3.7584,-3.7674,-3.7584,-3.7539,-3.7509,-3.6881,-3.6567,-3.6432,-3.5863,-3.5579,-3.5504,-3.5504,-3.5504,-3.5504,-3.5504,-3.5504,-3.54,-3.4711,-3.4532,-3.4607,-3.4502,-3.4876,-3.5385,-3.5474,-3.5085,-3.4592,-3.4502,-3.4128,-3.3574,-3.2736,-3.2647,-3.2377,-3.0848,-3.0462,-3.0144,-2.9233,-2.8464,-2.7469,-2.5588,-2.5208,-2.4627,-2.2829,-2.2535,-2.2322,-2.1694,-2.1719,-2.1769,-2.1619,-2.1504,-2.103,-1.9913,-1.9793,-1.9327,-1.8188,-1.8097,-1.8069,-1.7987,-1.7987,-1.8027,-1.8106,-1.8027,-1.8263,-1.8779,-1.8779,-1.9043,-1.9603,-1.9603,-1.9639,-1.969,-1.969,-1.969,-2.9372,-2.9677,-2.9654,-2.9051,-2.6999,-2.4645,-2.2975,-1.9364,0.0,0.0,-1.5151,-1.4731,-1.5485,-1.7534,-1.9876,-2.2281,0.0,0.0,0.0,0.0,-3.4247,0.0,0.0,0.0,0.0,-3.7749,0.0,0.0,-3.8856,-3.9245,-3.9245,-3.9349,-3.9424,-3.9424,-3.8871,-3.8452,-3.8227,-3.7689,-3.7629,-3.8063,-3.8167,-3.8512,-3.905,-3.8482,-3.8227,-3.8182,-3.7524,-3.6956,-3.6477,-3.6357,-3.5998,-3.5504,-3.5504,-3.5504,-3.5504,-3.5504,-3.5504,-3.54,-3.4711,-3.4846,-3.5235,-3.4666,-3.4562,-3.4756,-3.5325,-3.5429,-3.5205,-3.4637,-3.4801,-3.4741,-3.2976,-3.332,-3.3694,-3.1752,-3.1158,-3.0715,-2.9514,-2.8601,-2.7578,-2.6078,-2.5849,-2.5467,-2.3988,-2.3703,-2.3351,-2.2322,-2.2962,-2.3226,-2.2284,-2.139,-2.0598,-1.9861,-1.9433,-1.8741,-1.7644,-1.7913,-1.7967,-1.7462,-1.7422,-1.7626,-1.8066,-1.7666,-1.7706,-1.8224,-1.8263,-1.8496,-1.9043,-1.9043,-1.9281,-1.969,-1.969,-1.969,-2.9512,-2.9792,-2.9591,-2.8712,-2.6427,-2.3891,-2.1851,0.0,0.0,0.0,-1.5222,-1.5128,-1.5915,-1.726,0.0,-2.0776,-2.2871,0.0,0.0,0.0,0.0,0.0,0.0,0.0,0.0,-3.8197,-3.8392,-3.8392,-3.9035,-3.9424,-3.9424,-3.9424,-3.9424,-3.9424,-3.9095,-3.8751,-3.8392,-3.8437,-3.8437,-3.8392,-3.8751,-3.9095,-3.9409,-3.908,-3.8931,-3.8886,-3.8212,-3.7554,-3.6941,-3.6626,-3.6088,-3.5504,-3.5504,-3.5504,-3.5504,-3.5504,-3.5504,-3.54,-3.4711,-3.4696,-3.4921,-3.4577,-3.4726,-3.507,-3.54,-3.5504,-3.5429,-3.51,-3.525,-3.513,-3.3455,-3.3754,-3.3761,-3.0913,-2.9463,-2.8619,-2.8002,-2.7508,-2.6961,-2.5923,-2.5601,-2.5217,-2.4532,-2.4192,-2.3816,-2.3276,-2.3653,-2.369,-2.2849,-2.202,-2.1305,-2.074,-1.9924,-1.9108,-1.8304,-1.8198,-1.7946,-1.7367,-1.7329,-1.7458,-1.7745,-1.7203,-1.7303,-1.8138,-1.7828,-1.7947,-1.8496,-1.8765,-1.9043,-1.9281,-1.9566,-1.969,-2.9362,-2.9691,-2.949,-2.8247,-2.5862,-2.3181,-2.094,-1.816,0.0,-1.5671,-1.5499,-1.5644,-1.638,-1.6837,-1.7623,0.0,-2.0578,-2.3158,0.0,0.0,0.0,0.0,0.0,0.0,0.0,-3.8482,0.0,-3.8601,-3.8975,-3.926,-3.9409,-3.9424,-3.9424,-3.9424,-3.9424,-3.9155,-3.8616,-3.9155,-3.9155,-3.8616,-3.9155,-3.9424,-3.9424,-3.9424,-3.9424,-3.9394,-3.8841,-3.8227,-3.7569,-3.6941,-3.6312,-3.5699,-3.5564,-3.5504,-3.5504,-3.5504,-3.5504,-3.5429,-3.4891,-3.4696,-3.4696,-3.4696,-3.4966,-3.531,-3.5459,-3.5504,-3.5474,-3.5325,-3.5385,-3.519,-3.3844,-3.3978,-3.3602,-3.0045,-2.8238,-2.7114,-2.6615,-2.6533,-2.6395,-2.5875,-2.536,-2.4983,-2.4983,-2.4632,-2.4305,-2.4192,-2.4268,-2.4092,-2.3414,-2.2937,-2.2422,-2.1732,-2.0765,-1.9899,-1.9246,-1.8794,-1.8267,-1.7601,-1.7551,-1.7551,-1.7551,-1.7124,-1.7244,-1.8004,-1.7535,-1.7514,-1.7947,-1.8341,-1.8612,-1.8727,-1.9169,-1.9406,-2.8799,-2.939,-2.9402,-2.777,-2.5272,-2.2596,-2.0382,0.0,-1.4983,-1.5511,-1.5141,-1.5152,-1.6293,-1.6552,-1.7165,-1.9017,-1.9823,-2.2041,0.0,0.0,0.0,0.0,0.0,0.0,0.0,-3.8751,-3.8646,-3.9275,-3.8796,-3.8751,-3.9394,-3.9424,-3.9424,-3.9424,-3.9424,-3.9394,-3.9334,-3.9394,-3.9394,-3.9334,-3.9394,-3.9424,-3.9424,-3.9424,-3.9424,-3.9424,-3.9349,-3.8931,-3.8242,-3.7599,-3.6956,-3.6342,-3.5744,-3.5504,-3.5504,-3.5504,-3.5504,-3.5489,-3.5429,-3.5415,-3.5415,-3.5415,-3.5026,-3.4681,-3.531,-3.5504,-3.537,-3.4741,-3.5026,-3.519,-3.3844,-3.3978,-3.3706,-3.0642,-2.9817,-2.9077,-2.6952,-2.6533,-2.6508,-2.6458,-2.5912,-2.5523,-2.5523,-2.5485,-2.5285,-2.482,-2.5146,-2.5084,-2.4054,-2.3866,-2.3439,-2.2347,-2.1694,-2.0891,-1.9823,-1.9685,-1.9221,-1.8191,-1.8129,-1.8129,-1.8129,-1.8078,-1.784,-1.7478,-1.7415,-1.7375,-1.7394,-1.7435,-1.7706,-1.8185,-1.8224,-1.8496,-2.8686,-2.9514,-2.9669,-2.8973,-2.5909,-2.2555,-2.0379,0.0,-1.4744,-1.5017,-1.4595,-1.4652,-1.6207,-1.6194,-1.6436,-1.7847,-1.8208,-1.9824,-2.4221,0.0,0.0,0.0,0.0,0.0,0.0,0.0,-3.8945,-3.8822,-3.8527,-3.8512,-3.8781,-3.8796,-3.899,-3.9409,-3.9424,-3.9424,-3.9424,-3.9424,-3.9424,-3.9424,-3.9424,-3.9424,-3.9424,-3.9424,-3.9424,-3.9394,-3.8975,-3.8422,-3.7749,-3.712,-3.6477,-3.5863,-3.5609,-3.5504,-3.5504,-3.5504,-3.5504,-3.5504,-3.5504,-3.5504,-3.5504,-3.5504,-3.5325,-3.5145,-3.5429,-3.5504,-3.5444,-3.5175,-3.5295,-3.528,-3.4337,-3.3636,-3.2888,-3.2097,-3.0782,-2.9441,-2.8486,-2.7589,-2.6954,-2.6954,-2.6214,-2.5711,-2.605,-2.5824,-2.5523,-2.5322,-2.546,-2.5209,-2.413,-2.4004,-2.369,-2.2887,-2.2309,-2.1669,-2.0878,-2.0514,-1.9987,-1.9208,-1.8869,-1.8694,-1.8694,-1.838,-1.8254,-1.8367,-1.8053,-1.7857,-1.7817,-1.8161,-1.8283,-1.819,-1.844,-1.8531,-2.7182,-2.8241,-2.8464,-2.816,-2.5344,-2.201,0.0,0.0,-1.4652,-1.4468,-1.4236,-1.4514,-1.5964,-1.6051,-1.6126,-1.6938,-1.7236,-1.8625,-2.2187,-2.3526,0.0,0.0,0.0,-3.5329,0.0,-3.8894,-3.8904,-3.8417,-3.8033,-3.7943,-3.8093,-3.7928,-3.8317,-3.9394,-3.923,-3.9215,-3.9424,-3.9424,-3.9424,-3.9424,-3.9424,-3.9424,-3.9424,-3.9424,-3.9424,-3.9379,-3.8691,-3.8123,-3.7629,-3.6821,-3.6207,-3.5774,-3.5579,-3.5504,-3.5504,-3.5504,-3.5504,-3.5504,-3.5504,-3.5504,-3.5504,-3.5504,-3.5504,-3.5504,-3.5504,-3.5504,-3.5459,-3.525,-3.519,-3.513,-3.4861,-3.4016,-3.3194,-3.3231,-3.1853,-3.0404,-2.9631,-2.8529,-2.7608,-2.7352,-2.6502,-2.5988,-2.6458,-2.6126,-2.585,-2.585,-2.585,-2.5523,-2.4582,-2.4343,-2.4017,-2.3452,-2.2887,-2.2334,-2.1782,-2.123,-2.0665,-2.0087,-1.9547,-1.9258,-1.9258,-1.8882,-1.8794,-1.902,-1.8643,-1.8367,-1.8204,-1.8601,-1.8565,-1.8221,-1.8534,-1.8502,-2.3764,-2.482,-2.5385,-2.4305,-2.2761,-2.0766,0.0,-1.5909,-1.4514,-1.3909,-1.4283,-1.488,-1.5499,-1.6095,-1.6466,-1.6522,-1.7381,-1.9031,-2.1731,-2.4082,0.0,0.0,0.0,-3.4295,-3.6331,-3.7695,-3.8406,-3.8387,-3.7201,-3.6813,-3.7389,-3.6836,-3.7404,-3.9364,-3.8751,-3.8736,-3.9409,-3.9424,-3.9424,-3.9424,-3.9424,-3.9424,-3.9424,-3.9424,-3.9424,-3.9379,-3.8691,-3.8392,-3.8287,-3.7015,-3.6492,-3.6417,-3.5759,-3.5504,-3.5504,-3.5504,-3.5504,-3.5504,-3.5504,-3.5504,-3.5504,-3.5504,-3.5504,-3.5504,-3.5504,-3.5504,-3.537,-3.4681,-3.4487,-3.4637,-3.5325,-3.5489,-3.51,-3.3594,-3.3143,-3.2492,-3.006,-2.9072,-2.8402,-2.748,-2.6829,-2.6521,-2.6533,-2.6521,-2.6521,-2.6521,-2.6521,-2.6239,-2.5649,-2.5134,-2.4607,-2.4054,-2.3477,-2.284,-2.2347,-2.1794,-2.1242,-2.0743,-2.0112,-1.9798,-1.9798,-1.9786,-1.9547,-1.8983,-1.897,-1.8744,-1.8204,-1.8204,-1.8204,-1.8191,-1.8204,-1.8201,-2.2618,-2.3572,-2.3933,-2.3968,-2.1891,-1.9396,-1.7817,-1.6089,-1.4595,-1.4036,-1.4327,-1.4914,-1.5532,-1.5807,-1.6249,-1.7493,-1.7932,-1.8847,0.0,0.0,0.0,0.0,-3.467,-3.7772,0.0,0.0,-3.8221,-3.778,-3.6941,-3.6581,-3.6788,-3.6139,-3.6507,-3.8003,-3.8272,-3.8272,-3.8048,-3.8497,-3.8497,-3.8048,-3.8048,-3.8048,-3.8048,-3.8048,-3.8048,-3.8018,-3.736,-3.709,-3.7015,-3.6163,-3.5818,-3.5804,-3.5594,-3.5504,-3.5504,-3.5504,-3.5504,-3.5504,-3.5504,-3.5504,-3.5504,-3.5504,-3.5504,-3.5504,-3.5504,-3.5504,-3.5459,-3.5235,-3.5175,-3.5235,-3.5444,-3.5504,-3.5379,-3.4881,-3.4236,-3.3532,-3.2774,-3.0814,-2.9188,-2.8851,-2.7557,-2.6533,-2.6533,-2.6533,-2.6533,-2.6533,-2.6533,-2.6126,-2.5184,-2.4921,-2.4456,-2.3514,-2.3178,-2.3002,-2.2887,-2.2372,-2.197,-2.1794,-2.0916,-2.0441,-2.0441,-2.0012,-1.9723,-1.956,-1.956,-1.9472,-1.9296,-1.9296,-1.912,-1.8756,-1.838,-1.8418,-2.0412,-2.1362,-2.1627,-2.2028,-2.0213,-1.8043,-1.6839,-1.5652,-1.4552,-1.3822,-1.4221,-1.4929,-1.5545,-1.5805,-1.6291,-1.7359,-1.8064,-1.9012,0.0,0.0,0.0,-3.1098,0.0,0.0,0.0,-3.8104,-3.7723,-3.7132,-3.6454,-3.6141,-3.6155,-3.5704,-3.5863,-3.6671,-3.733,-3.7584,-3.7404,-3.7808,-3.7808,-3.7404,-3.7404,-3.7404,-3.7404,-3.7404,-3.7404,-3.7375,-3.6746,-3.6492,0.0,-3.5774,-3.5504,-3.5504,-3.5504,-3.5504,-3.5504,-3.5504,-3.5504,-3.5504,-3.5504,-3.5504,-3.5504,-3.5504,-3.5504,-3.5439,-3.5052,-3.5213,-3.5504,-3.5504,-3.5325,-3.5175,-3.5429,-3.531,-3.519,-3.5444,-3.4986,-3.4461,-3.4095,-3.211,-3.0194,-2.9631,-2.8048,-2.6703,-2.6559,-2.6533,-2.6533,-2.6533,-2.6533,-2.6214,-2.5523,-2.5247,-2.4845,-2.4142,-2.3891,-2.369,-2.3477,-2.2749,-2.2309,-2.2309,-2.1468,-2.0932,-2.0731,-2.0326,-2.0024,-1.9798,-1.9798,-1.9798,-1.9798,-1.9798,-1.9635,-1.9309,-1.897,-1.8887,0.0,-1.8371,-1.8746,-1.8746,-1.791,-1.6669,-1.5154,-1.4755,0.0,-1.3386,-1.41,-1.5083,-1.5592,-1.6157,-1.6612,-1.6713,-1.8031,-1.9572,0.0,-2.4116,0.0,0.0,-3.5482,0.0,-3.6476,-3.7069,-3.7153,-3.6522,-3.5859,-3.5504,-3.5504,-3.5504,-3.5504,-3.5504,-3.6088,-3.6686,-3.727,-3.7315,-3.7315,-3.727,-3.727,-3.727,-3.727,-3.727,-3.727,-3.724,-3.6671,-3.6417,-3.6372,-3.5759,-3.5504,-3.5504,-3.5504,-3.5504,-3.5504,-3.5504,-3.5504,-3.5504,-3.5504,-3.5504,-3.5489,-3.5379,-3.5365,-3.5139,-3.4172,-3.4647,-3.5504,-3.5424,-3.4976,-3.4696,-3.534,-3.5026,-3.4711,-3.5355,-3.5504,-3.5213,-3.4312,-3.2899,-3.1392,-2.9907,-2.8357,-2.7155,-2.6634,-2.6559,-2.6571,-2.6533,-2.6533,-2.6508,-2.6471,-2.5937,-2.5586,-2.5548,-2.5109,-2.4619,-2.4104,-2.3062,-2.241,-2.2372,-2.1845,-2.1317,-2.0803,-2.0756,-2.0413,-1.9874,-1.9823,-1.9798,-1.9798,-1.9798,-1.9798,-1.9798,-1.9798,-1.9547,-1.5718,0.0,-1.6387,-1.6387,-1.5529,-1.4608,0.0,-1.4456,-1.4576,-1.394,-1.5013,-1.6145,-1.6269,-1.6751,-1.756,-1.8943,-1.9881,-2.1213,-2.3554,0.0,0.0,-3.4797,-3.7229,-3.8104,-3.6621,-3.7079,-3.7147,-3.6542,-3.5859,-3.5504,-3.5504,-3.5504,-3.5504,-3.5504,-3.5654,-3.5804,-3.5953,-3.6447,-3.6447,-3.5953,-3.5953,-3.5953,-3.5953,-3.5953,-3.5953,-3.5953,-3.5804,-3.5744,-3.5729,-3.5564,-3.5504,-3.5504,-3.5504,-3.5504,-3.5504,-3.5504,-3.5504,-3.5504,-3.5504,-3.5504,-3.5285,-3.412,-3.3733,-3.3587,-3.2605,-3.3816,-3.5359,-3.4543,-3.4787,-3.5295,-3.5459,-3.5385,-3.5295,-3.5474,-3.5504,-3.5439,-3.5213,-3.3403,-3.1585,-3.0787,-2.9149,-2.7607,-2.6697,-2.6816,-2.6942,-2.6596,-2.6533,-2.6302,-2.585,-2.5686,-2.5435,-2.5046,-2.4895,-2.477,-2.4644,-2.4004,-2.3414,-2.2915,-2.2422,-2.2058,-2.1933,-2.1117,-2.0655,-2.0464,-2.0024,-1.9798,-1.9798,-1.9798,-1.9798,-1.9798,-1.9798,-1.9736,-1.4856,-1.5402,-1.5647,-1.593,-1.533,-1.4693,-1.4748,-1.4967,-1.5041,0.0,0.0,-1.622,-1.6471,-1.7201,-1.8179,-1.9481,-2.0851,0.0,0.0,0.0,-3.3298,-3.5239,-3.6999,-3.7639,0.0,-3.6775,-3.6747,-3.611,-3.5689,-3.5504,-3.5504,-3.5504,-3.5504,-3.5504,-3.5504,-3.5504,-3.5504,-3.5863,-3.5863,-3.5504,-3.5504,-3.5504,-3.5504,-3.5504,-3.5504,-3.5504,-3.5504,-3.5504,-3.5504,-3.5504,-3.5504,-3.5504,-3.5504,-3.5504,-3.5424,-3.4986,-3.4839,-3.4839,-3.4839,-3.4839,-3.4655,-3.3572,-3.2878,-3.2393,-3.1431,-3.2373,-3.3749,-3.3448,-3.384,-3.4486,-3.4765,-3.4398,-3.4103,-3.4692,-3.4257,-3.3845,-3.4134,-3.2779,-3.1382,-3.0798,-2.9516,-2.8134,-2.703,-2.708,-2.7092,-2.6609,-2.6533,-2.6352,-2.6038,-2.5988,-2.5887,-2.5598,-2.5573,-2.5473,-2.5197,-2.4695,-2.413,-2.3565,-2.3,-2.2573,-2.2322,-2.1493,-2.0803,-2.0275,-1.9962,-1.9798,-1.9798,-1.9798,-1.9798,-1.9798,-1.9798,-1.9798,-1.4493,-1.5143,-1.57,-1.6158,-1.5954,-1.5576,-1.5599,0.0,0.0,0.0,0.0,0.0,-1.662,-1.7732,0.0,0.0,0.0,0.0,-2.8799,-3.0925,-3.2897,-3.5088,-3.6098,0.0,-3.6237,-3.6365,-3.6185,-3.5534,-3.5504,-3.5504,-3.5504,-3.5504,-3.5504,-3.5504,-3.5504,-3.5504,-3.5504,-3.5504,-3.5504,-3.5504,-3.5504,-3.5504,-3.5504,-3.5504,-3.5504,-3.5504,-3.5504,-3.5504,-3.5504,-3.5504,-3.5504,-3.5504,-3.5504,-3.5504,-3.5359,-3.4394,-3.4095,-3.423,-3.398,-3.3801,-3.3565,-3.2868,-3.2117,-3.1308,-3.0466,-3.0753,-3.1484,-3.2014,-3.2612,-3.3111,-3.3679,-3.3021,-3.2505,-3.355,-3.2847,-3.2055,-3.2496,-3.1888,-3.1008,-3.0467,-2.9648,-2.8687,-2.7494,-2.7356,-2.7193,-2.6553,-2.6533,-2.6533,-2.6533,-2.6533,-2.6533,-2.6533,-2.6533,-2.6264,-2.5774,-2.5247,-2.4745,-2.4268,-2.354,-2.2887,-2.2334,-2.1857,-2.1079,-1.9962,-1.9936,-1.9886,-1.9798,-1.9798,-1.9798,-1.9798,-1.9798,-1.9798,-1.4312,-1.5115,-1.5532,-1.57,-1.5611,-1.5395,-1.496,-1.562,0.0,0.0,0.0,0.0,0.0,-1.8962,-2.0352,0.0,0.0,-2.9547,0.0,0.0,-3.4842,-3.4681,0.0,-3.6645,-3.4957,-3.5804,-3.6185,-3.5534,-3.5504,-3.5504,-3.5504,-3.5504,-3.5504,-3.5504,-3.5504,-3.5504,-3.5504,-3.5504,-3.5504,-3.5504,-3.5504,-3.5504,-3.5504,-3.5504,-3.5504,-3.5504,-3.5504,-3.5504,-3.5504,-3.5504,-3.5504,-3.5504,-3.5504,-3.5504,-3.5359,-3.4394,-3.4543,-3.5059,-3.3769,-3.2805,-3.1875,-3.0526,-2.999,-2.9746,-2.9282,-2.9212,-2.9463,-3.005,-3.1422,-3.2708,-3.2792,-3.2681,-3.2583,-3.2764,-3.2666,-3.2483,-3.2579,-3.1888,-3.1008,-3.0467,-2.9982,-2.9151,-2.7557,-2.767,-2.7632,-2.6615,-2.6533,-2.6533,-2.6533,-2.6533,-2.6533,-2.6533,-2.6533,-2.6496,-2.6339,-2.5799,-2.5435,-2.5347,-2.3954,-2.2887,-2.2334,-2.2234,-2.1669,-2.0605,-2.0539,-2.0288,-1.9798,-1.9798,-1.9798,-1.9798,-1.9798,-1.9798,-1.3931,-1.4642,-1.513,-1.5517,-1.6516,-1.7467,-1.7511,-1.7965,-1.8339,0.0,0.0,0.0,0.0,0.0,-2.3029,-2.5951,0.0,-3.1162,-3.2713,-3.3502,-3.4012,0.0,0.0,-3.5644,-3.507,-3.5629,-3.5829,-3.5519,-3.5504,-3.5504,-3.5504,-3.5504,-3.5504,-3.5504,-3.5504,-3.5504,-3.5504,-3.5504,-3.5504,-3.5504,-3.5504,-3.5504,-3.5504,-3.5504,-3.5504,-3.5504,-3.5504,-3.5504,-3.5504,-3.5504,-3.5504,-3.5504,-3.5504,-3.5133,-3.4543,-3.3602,-3.3058,-3.2748,-3.2492,-3.1625,-3.0373,-2.9382,-2.8935,-2.869,-2.8545,-2.8687,-2.9051,-2.9628,-3.0771,-3.1815,-3.1815,-3.1658,-3.151,-3.1748,-3.1223,-3.0664,-3.0992,-3.0784,-3.0342,-3.0098,-2.9897,-2.9453,-2.836,-2.8134,-2.7833,-2.703,-2.6904,-2.6804,-2.6571,-2.6716,-2.6791,-2.6559,-2.6533,-2.6533,-2.6533,-2.5937,-2.5347,-2.477,-2.4017,-2.3213,-2.2347,-2.2309,-2.1794,-2.0743,-2.0718,-2.0376,-1.9798,-1.9798,-1.9798,-1.9798,-1.9798,-1.9798,-1.3468,-1.4247,-1.5012,-1.5619,-1.7232,-1.8844,-1.9539,-2.0172,-2.0629,0.0,0.0,0.0,0.0,-2.2877,0.0,-2.9248,-3.0995,-3.2256,-3.3093,-3.3216,-3.3565,-3.4593,-3.4732,-3.4916,-3.5474,-3.5504,-3.5504,-3.5504,-3.5504,-3.5504,-3.5504,-3.5504,-3.5504,-3.5504,-3.5504,-3.5504,-3.5504,-3.5504,-3.5504,-3.5504,-3.5504,-3.5504,-3.5504,-3.5504,-3.5504,-3.5504,-3.5504,-3.5504,-3.5504,-3.5504,-3.5359,-3.5133,-3.5133,-3.4543,-3.3573,-3.2947,-3.1782,-3.0652,-3.1322,-3.0591,-2.9314,-2.8869,-2.8556,-2.8323,-2.8461,-2.88,-2.9227,-2.9666,-3.0355,-3.0908,-3.0908,-3.0594,-3.0385,-3.0803,-3.001,-2.9252,-2.9691,-2.9792,-2.9792,-2.9792,-2.9792,-2.9616,-2.9026,-2.8574,-2.8109,-2.7557,-2.7469,-2.7268,-2.6798,-2.7017,-2.7067,-2.6584,-2.6533,-2.6533,-2.6533,-2.605,-2.5385,-2.4431,-2.4142,-2.3615,-2.2736,-2.2573,-2.1983,-2.0932,-2.0907,-2.0514,-1.9798,-1.9798,-1.9798,-1.9798,-1.9798,-1.9798,-1.2998,-1.4285,-1.5586,-1.6198,-1.6896,-1.7718,-1.8808,-2.0569,-2.2241,-2.3257,0.0,0.0,0.0,-2.5092,-2.7272,-3.0026,-3.2062,-3.3812,-3.507,0.0,-3.5335,-3.5394,-3.5394,-3.5474,-3.5504,-3.5504,-3.5504,-3.5504,-3.5504,-3.5504,-3.5504,-3.5504,-3.5504,-3.5504,-3.5504,-3.5504,-3.5504,-3.5504,-3.5504,-3.5504,-3.5504,-3.5504,-3.5504,-3.5504,-3.5504,-3.5504,-3.5504,-3.5504,-3.5504,-3.5504,-3.4986,-3.4095,-3.4095,-3.3518,-3.275,-3.2976,-3.2263,-3.1103,-3.0911,-3.0047,-2.8938,-2.8887,-2.8837,-2.8963,-2.9515,-2.9691,-2.9741,-2.9779,-2.9869,-2.9934,-2.9934,-2.9908,-2.9806,-2.9921,-2.9831,-2.9741,-2.9779,-2.9792,-2.9792,-2.9792,-2.9792,-2.9616,-2.9026,-2.89,-2.8687,-2.8134,-2.8047,-2.7846,-2.7293,-2.7256,-2.7067,-2.6584,-2.6533,-2.6533,-2.6533,-2.6496,-2.6138,-2.5523,-2.4544,-2.3966,-2.3879,-2.3364,-2.256,-2.1443,-2.143,-2.0891,-1.9798,-1.9798,-1.9798,-1.9798,-1.9798,-1.9798,-1.255,-1.4276,-1.5957,-1.5451,-1.686,-1.8751,0.0,-2.2249,-2.3941,-2.4585,-2.5616,0.0,0.0,0.0,-2.9622,-3.144,-3.3093,-3.444,-3.5365,-3.5504,-3.5504,-3.5504,-3.5504,-3.5504,-3.5504,-3.5504,-3.5504,-3.5504,-3.5504,-3.5504,-3.5504,-3.5504,-3.5504,-3.5504,-3.5504,-3.5504,-3.5504,-3.5504,-3.5504,-3.5504,-3.5504,-3.5504,-3.5504,-3.5504,-3.5504,-3.5504,-3.5504,-3.5504,-3.5474,-3.504,-3.4892,-3.4839,-3.3602,-3.289,-3.265,-3.2709,-3.1483,-2.9951,-3.1045,-3.01,-2.8411,-2.8411,-2.8649,-2.8976,-2.9189,-2.9503,-2.9792,-2.9792,-2.9792,-2.9792,-2.9792,-2.9792,-2.9792,-2.9792,-2.9792,-2.9792,-2.9792,-2.9792,-2.9792,-2.9792,-2.9792,-2.9729,-2.9503,-2.9164,-2.885,-2.8649,-2.8612,-2.8298,-2.7394,-2.7582,-2.7457,-2.6553,-2.6533,-2.6533,-2.6533,-2.6533,-2.6433,-2.6151,-2.5109,-2.4356,-2.4017,-2.2936,-2.2224,-2.202,-2.0706,-2.0037,-2.0036,-1.9412,-1.9267,-1.954,-1.954,-1.9638,-1.2319,-1.4024,-1.5731,-1.5137,-1.6883,-1.9313,-2.1364,-2.3674,-2.58,-2.7201,-2.8197,-2.8753,-2.8547,0.0,0.0,0.0,-3.3665,-3.5011,-3.5474,-3.5504,-3.5504,-3.5504,-3.5504,-3.5504,-3.5504,-3.5335,-3.5195,-3.5195,-3.5011,-3.4931,-3.518,-3.5195,-3.5305,-3.5504,-3.5504,-3.54,-3.5209,-3.516,-3.5175,-3.5175,-3.5175,-3.5295,-3.5489,-3.528,-3.5295,-3.5489,-3.4925,-3.4756,-3.4727,-3.3965,-3.3791,-3.3908,-3.2737,-3.2317,-3.2317,-3.2317,-3.1194,-2.9789,-3.0936,-3.0118,-2.8637,-2.8637,-2.89,-2.9202,-2.9202,-2.9478,-2.9792,-2.9792,-2.9792,-2.9792,-2.9792,-2.9792,-2.9792,-2.9792,-2.9792,-2.9792,-2.9792,-2.9792,-2.9792,-2.9792,-2.9792,-2.9792,-2.9792,-2.9465,-2.9202,-2.9202,-2.9202,-2.8863,-2.7921,-2.7984,-2.7682,-2.6647,-2.6533,-2.6533,-2.6533,-2.6533,-2.6383,-2.6025,-2.544,-2.4691,-2.3875,-2.2573,-2.175,-2.1451,-2.0047,-1.9358,-1.9576,-1.903,-1.8855,-1.9053,-1.9053,-1.9227,-1.2311,-1.3543,-1.4946,-1.5494,0.0,0.0,-2.1681,-2.4623,-2.7806,-3.1464,-3.1275,-3.028,-2.947,-3.0007,0.0,-3.1435,-3.3741,-3.5489,-3.5489,-3.5489,-3.5489,-3.5489,-3.5489,-3.5489,-3.5489,-3.4887,-3.4454,-3.4519,-3.3906,-3.3797,-3.4425,-3.4534,-3.4777,-3.5489,-3.5489,-3.5194,-3.4508,-3.4505,-3.4472,-3.4472,-3.4472,-3.4831,-3.5474,-3.4786,-3.4846,-3.5379,-3.3754,-3.3105,-3.3077,-3.2176,-3.1405,-3.0853,-3.1392,-3.1557,-3.1557,-3.1557,-3.1375,-3.1088,-3.0448,-3.0018,-2.9792,-2.9792,-2.9792,-2.9792,-2.9792,-2.9792,-2.9792,-2.9792,-2.9792,-2.9792,-2.9792,-2.9792,-2.9779,-2.9792,-2.9792,-2.9779,-2.9792,-2.9792,-2.9792,-2.9792,-2.9792,-2.9792,-2.9792,-2.9792,-2.9792,-2.9792,-2.9792,-2.9578,-2.9001,-2.8436,-2.767,-2.6647,-2.6533,-2.6533,-2.6465,-2.6465,-2.6094,-2.5075,-2.5345,-2.4937,-2.3525,-2.2436,-2.1183,-1.9716,-1.9705,-1.9237,-1.828,-1.8689,-1.8677,-1.828,-1.828,-1.8525,-1.2616,-1.4463,0.0,-1.7423,0.0,0.0,0.0,-2.5322,0.0,0.0,-3.2004,-3.1811,-3.1351,-3.1982,0.0,-3.2894,-3.3988,-3.4786,-3.4786,-3.4786,-3.4603,-3.4148,-3.4118,-3.408,-3.4089,-3.3936,-3.3809,-3.3789,-3.3622,-3.3607,-3.3788,-3.4226,-3.4604,-3.4775,-3.4775,-3.4685,-3.4505,-3.4008,-3.3784,-3.3784,-3.3784,-3.4143,-3.4771,-3.4562,-3.3991,-3.3121,-3.2659,-3.2168,-3.1612,-3.133,-3.0849,-3.0232,-3.0159,-3.0111,-3.0111,-3.0111,-2.9869,-2.964,-3.0184,-3.0093,-2.9792,-2.9792,-2.9792,-2.9792,-2.9792,-2.9792,-2.9792,-2.9792,-2.9792,-2.9792,-2.9792,-2.949,-2.9289,-2.9691,-2.9478,-2.9302,-2.9704,-2.9792,-2.9792,-2.9792,-2.9792,-2.9792,-2.9792,-2.9792,-2.9792,-2.9792,-2.9792,-2.9453,-2.8473,-2.7532,-2.6816,-2.6559,-2.6533,-2.6233,-2.5523,-2.5441,-2.5004,-2.4036,-2.3363,-2.2879,-2.2457,-2.1841,-2.1206,-2.0378,-1.8838,-1.8392,-1.8998,-1.8403,-1.8254,-1.8445,-1.8445,-1.8635,-1.287,-1.4679,0.0,-1.8046,-2.0174,-2.2724,-2.5563,0.0,0.0,0.0,-3.2407,-3.2434,-3.2629,-3.2894,0.0,-3.3438,-3.3829,-3.4188,-3.4442,-3.4247,-3.3963,-3.3557,-3.3513,-3.3481,-3.3493,-3.3235,-3.3124,-3.3115,-3.2859,-3.2844,-3.3069,-3.3455,-3.3806,-3.4119,-3.4117,-3.398,-3.3709,-3.3305,-3.3095,-3.3095,-3.3095,-3.3106,-3.3199,-3.3199,-3.2859,-3.2141,-3.1208,-3.0306,-2.9563,-2.9659,-2.9479,-2.9154,-2.9551,-2.944,-2.9122,-2.9429,-2.9132,-2.8698,-2.9494,-2.9666,-2.949,-2.9716,-2.9792,-2.9754,-2.9515,-2.9453,-2.9402,-2.9176,-2.9277,-2.9402,-2.9176,-2.9026,-2.9076,-2.9654,-2.9352,-2.9026,-2.9377,-2.9453,-2.9453,-2.9453,-2.9277,-2.9264,-2.9716,-2.9603,-2.9528,-2.9754,-2.9443,-2.8799,-2.7914,-2.6663,-2.5829,-2.5624,-2.5408,-2.5063,-2.448,-2.4409,-2.3963,-2.2999,-2.2739,-2.2099,-2.0956,-2.0658,-2.0237,-1.9562,-1.8268,-1.7932,-1.8522,-1.809,-1.7958,-1.806,-1.806,-1.8255,-1.3066,-1.4458,0.0,-1.8008,-2.0807,0.0,-2.6403,-2.8773,-3.0919,-3.2465,0.0,-3.2341,-3.3229,-3.2939,-3.2797,-3.3408,-3.3499,-3.3679,-3.4218,-3.3724,-3.3306,-3.3201,-3.3186,-3.3184,-3.3218,-3.2607,-3.2279,-3.2412,-3.1762,-3.1702,-3.2397,-3.2452,-3.2766,-3.3412,-3.3396,-3.3125,-3.2527,-3.2452,-3.2422,-3.2422,-3.2422,-3.1959,-3.1137,-3.1195,-3.1386,-3.1668,-2.947,-2.7993,-2.7238,-2.7504,-2.7604,-2.7723,-2.9154,-2.9146,-2.8405,-2.9026,-2.8763,-2.8185,-2.8687,-2.8925,-2.9089,-2.9616,-2.9792,-2.9679,-2.9101,-2.8925,-2.8825,-2.8323,-2.8536,-2.8825,-2.8373,-2.8599,-2.9063,-2.9591,-2.9315,-2.8925,-2.8925,-2.8925,-2.8925,-2.8925,-2.8486,-2.8461,-2.9591,-2.9264,-2.8975,-2.9462,-2.8694,-2.7834,-2.7155,-2.5853,-2.4747,-2.4167,-2.3709,-2.3441,-2.3368,-2.3368,-2.2925,-2.1962,-2.2658,-2.2039,-1.9448,-1.9428,-1.8993,-1.8008,-1.8008,-1.7822,-1.7441,-1.7822,-1.7812,-1.7441,-1.7441,-1.7646,-1.329,-1.4815,0.0,0.0,-2.2841,-2.524,-2.5292,-2.6762,-2.8407,-2.9647,-3.1091,-3.2234,-3.2431,-3.2901,-3.3317,-3.3484,-3.3499,-3.3365,-3.2991,-3.2362,-3.1734,-3.1222,-3.0728,-3.0612,-3.1098,-3.06,-3.0629,-3.1614,-3.107,-3.101,-3.1702,-3.2243,-3.2542,-3.2736,-3.2706,-3.2662,-3.2512,-3.2003,-3.1749,-3.1749,-3.1749,-3.1294,-3.0531,-3.1007,-3.0256,-2.861,-2.7462,-2.6835,-2.6697,-2.6696,-2.6782,-2.6794,-2.7101,-2.7152,-2.6972,-2.7087,-2.7556,-2.8122,-2.8247,-2.8863,-2.9628,-2.9754,-2.9792,-2.9679,-2.9101,-2.8925,-2.89,-2.8787,-2.8837,-2.9001,-2.934,-2.9189,-2.8963,-2.9089,-2.9013,-2.8925,-2.8925,-2.8925,-2.8925,-2.8925,-2.8486,-2.8461,-2.9591,-2.895,-2.8151,-2.7895,-2.7645,-2.6976,-2.5686,-2.4801,-2.4156,-2.3727,-2.3582,-2.3147,-2.2403,-2.2328,-2.1886,-2.0934,-2.0757,-2.0402,-1.9785,-2.0267,-1.971,-1.8018,-1.8008,-1.7969,-1.7871,-1.7969,-1.7969,-1.7871,-1.7871,-1.793,-1.2867,0.0,0.0,-2.0822,0.0,-2.5235,-2.5405,-2.6103,-2.6841,-2.7301,-2.9224,-3.1034,-3.1596,-3.1839,-3.2195,-3.2915,-3.2482,-3.2063,-3.2048,-3.1465,-3.0791,-3.0133,-2.9774,-2.9729,-3.0022,-2.9765,-2.9866,-3.0537,-3.0283,-3.022,-3.0585,-3.119,-3.1531,-3.153,-3.1826,-3.2048,-3.2048,-3.1646,-3.1187,-3.0499,-3.0499,-2.9867,-2.8713,-2.9245,-2.8646,-2.7095,-2.6658,-2.6533,-2.6533,-2.6533,-2.6533,-2.6533,-2.6533,-2.6533,-2.6533,-2.6533,-2.6816,-2.7394,-2.7921,-2.8499,-2.9076,-2.9616,-2.9792,-2.9628,-2.8787,-2.8725,-2.8825,-2.8285,-2.8511,-2.8938,-2.8976,-2.9164,-2.9202,-2.8662,-2.8737,-2.8787,-2.8247,-2.8348,-2.8461,-2.8185,-2.7908,-2.8072,-2.9189,-2.8696,-2.8013,-2.7722,-2.6794,-2.5806,-2.4995,-2.4009,-2.3234,-2.2772,-2.252,-2.2147,-2.1395,-2.1298,-2.1155,-2.0644,-2.0352,-2.0039,-1.9629,-1.9895,-1.9535,-1.832,-1.8115,-1.8008,-1.8008,-1.8008,-1.8008,-1.8008,-1.8008,-1.8008,-1.2213,0.0,-1.6397,-2.0976,-2.3012,0.0,-2.5069,-2.5529,-2.5608,-2.5227,-2.7204,-2.9201,-3.0277,-3.0097,-3.023,-3.159,-3.0875,-3.0354,-3.1049,-3.0612,-2.9983,-2.9475,-2.931,-2.9312,-2.9411,-2.9337,-2.9322,-2.9592,-2.948,-2.9501,-2.9574,-3.0056,-3.0364,-3.0337,-3.0878,-3.1127,-3.0995,-3.0995,-3.0323,-2.9014,-2.8911,-2.8121,-2.6797,-2.7131,-2.7005,-2.6533,-2.6533,-2.6533,-2.6533,-2.6533,-2.6533,-2.6533,-2.6533,-2.6533,-2.6533,-2.6533,-2.6584,-2.6753,-2.7758,-2.8172,-2.8398,-2.934,-2.9716,-2.9566,-2.8335,-2.8411,-2.8699,-2.7595,-2.8009,-2.8699,-2.8348,-2.8875,-2.9264,-2.8323,-2.8448,-2.8511,-2.7494,-2.7645,-2.7858,-2.7494,-2.7582,-2.7908,-2.8536,-2.8525,-2.8231,-2.7726,-2.6229,-2.4935,-2.4438,-2.3293,-2.2324,-2.1826,-2.1445,-2.1055,-2.0605,-2.0566,-2.0566,-2.0566,-2.0566,-2.0244,-1.9541,-1.9365,-1.9121,-1.876,-1.8262,-1.8008,-1.8008,-1.8008,-1.8008,-1.8008,-1.8008,-1.8008,-1.1733,0.0,-1.69,0.0,-2.0686,-2.1901,0.0,0.0,-2.4103,0.0,-2.512,-2.6728,-2.733,-2.7571,-2.7961,-2.8828,-2.8811,-2.8978,-2.9764,-2.928,-2.8816,-2.8742,-2.8203,-2.8117,-2.8703,-2.8201,-2.8327,-2.9485,-2.9042,-2.897,-2.9577,-2.9689,-2.9707,-2.9697,-2.9813,-2.9537,-2.8814,-2.88,-2.8396,-2.7547,-2.6856,-2.6422,-2.6202,-2.596,-2.611,-2.6533,-2.6533,-2.6533,-2.6533,-2.6533,-2.6533,-2.6533,-2.6533,-2.6533,-2.6533,-2.6533,-2.6766,-2.7268,-2.7896,-2.8411,-2.885,-2.9001,-2.939,-2.949,-2.7883,-2.8109,-2.8699,-2.7595,-2.7733,-2.831,-2.8712,-2.8574,-2.8298,-2.8147,-2.816,-2.8047,-2.7419,-2.7344,-2.7507,-2.7921,-2.8787,-2.9038,-2.7733,-2.8687,-2.8712,-2.628,-2.611,-2.5416,-2.3138,-2.2624,-2.2207,-2.1406,-2.1269,-2.1055,-2.0605,-2.0566,-2.0566,-2.0566,-2.0566,-2.0518,-2.04,-1.9678,-1.9258,-1.9209,-1.8418,-1.8008,-1.8008,-1.8008,-1.8008,-1.8008,-1.8008,-1.8008,-1.194,-1.3691,-1.5659,0.0,-1.8882,-1.9811,-2.0413,-2.1368,-2.2146,-2.2196,-2.2936,-2.4144,-2.61,-2.6256,-2.6426,-2.7579,-2.7513,-2.754,-2.8301,-2.8169,-2.7986,-2.8053,-2.7754,-2.756,-2.75,-2.7545,-2.7405,-2.6905,-2.7184,-2.7199,-2.6781,-2.7402,-2.7809,-2.7793,-2.8145,-2.8145,-2.7793,-2.7797,-2.7252,-2.6094,-2.5287,-2.4948,-2.4908,-2.5102,-2.531,-2.5573,-2.6189,-2.6276,-2.6,-2.6327,-2.6533,-2.6533,-2.6533,-2.6533,-2.6533,-2.6533,-2.6804,-2.7318,-2.7557,-2.8009,-2.8511,-2.8825,-2.89,-2.8712,-2.7971,-2.8298,-2.8699,-2.7595,-2.8134,-2.9026,-2.895,-2.875,-2.8486,-2.8185,-2.8109,-2.7959,-2.7406,-2.7532,-2.7821,-2.8059,-2.826,-2.8247,-2.7821,-2.7891,-2.7596,-2.6662,-2.575,-2.4785,-2.3914,-2.3186,-2.2539,-2.1689,-2.1602,-2.1318,-2.0625,-2.0566,-2.0566,-2.0566,-2.0566,-2.0449,-2.0215,-1.9834,-1.9531,-1.9287,-1.8447,-1.8008,-1.8008,-1.8008,-1.8008,-1.8008,-1.8008,-1.8008,0.0,0.0,-1.4028,-1.6071,-1.697,-1.77,0.0,0.0,-2.02,0.0,-2.1091,-2.2008,-2.4281,-2.451,-2.4813,-2.6113,-2.6048,-2.6173,-2.7088,-2.727,-2.729,-2.7318,-2.7375,-2.706,-2.6423,-2.6811,-2.6438,-2.4797,-2.564,-2.5755,-2.4549,-2.5544,-2.6136,-2.6136,-2.6578,-2.6717,-2.6549,-2.6222,-2.5595,-2.4645,-2.3901,-2.3672,-2.3803,-2.4356,-2.4531,-2.4456,-2.5561,-2.5875,-2.5624,-2.5912,-2.6214,-2.6508,-2.6302,-2.6327,-2.6533,-2.6533,-2.6804,-2.7281,-2.7281,-2.7645,-2.8147,-2.8423,-2.8323,-2.8059,-2.777,-2.8172,-2.8486,-2.7381,-2.8084,-2.9051,-2.8624,-2.8511,-2.8448,-2.8172,-2.8109,-2.7996,-2.7582,-2.7821,-2.8109,-2.8109,-2.777,-2.762,-2.8034,-2.7532,-2.7088,-2.7097,-2.5686,-2.4638,-2.4598,-2.373,-2.2812,-2.1982,-2.1885,-2.1533,-2.0635,-2.0566,-2.0566,-2.0566,-2.0566,-2.042,-2.0088,-1.9971,-1.9766,-1.9453,-1.8711,-1.834,-1.834,-1.8115,-1.8066,-1.8164,-1.8057,-1.8008,0.0,-1.1552,0.0,-1.3875,-1.4718,-1.5587,0.0,0.0,-1.8493,-1.9045,-1.9987,-2.0778,-2.0961,-2.1763,-2.2731,-2.3454,-2.4047,-2.4879,-2.6372,-2.6558,-2.6556,-2.6621,-2.6672,-2.6373,-2.5741,-2.5662,-2.543,-2.4755,-2.5206,-2.5227,-2.453,-2.5097,-2.5435,-2.5435,-2.5508,-2.517,-2.4437,-2.3198,-2.276,-2.3175,-2.265,-2.2662,-2.3201,-2.3778,-2.374,-2.3228,-2.4418,-2.5172,-2.5561,-2.5096,-2.5523,-2.6471,-2.585,-2.5975,-2.6533,-2.6533,-2.6804,-2.7281,-2.7281,-2.7645,-2.8021,-2.7532,-2.7708,-2.7908,-2.6866,-2.7293,-2.7921,-2.6816,-2.6942,-2.7406,-2.7369,-2.7369,-2.7494,-2.7996,-2.8109,-2.8097,-2.8072,-2.8084,-2.8109,-2.8109,-2.8084,-2.8072,-2.8097,-2.8462,-2.8249,-2.6769,-2.6405,-2.5788,-2.4231,-2.3473,-2.2812,-2.1982,-2.1885,-2.1533,-2.0635,-2.0566,-2.0566,-2.0566,-2.0566,-2.0557,-2.0527,-2.0137,-1.9902,-1.9883,-1.9443,-1.9219,-1.9219,-1.8408,-1.8213,-1.8523,-1.8193,-1.8008,0.0,0.0,0.0,-1.2833,-1.3529,-1.4149,-1.5064,-1.6232,-1.7174,-1.7375,-1.8304,-1.9221,-1.955,-2.0779,-2.1844,-2.2138,-2.2358,-2.3,-2.4426,-2.4652,-2.4959,-2.5863,-2.594,-2.5682,-2.5016,-2.5348,-2.5001,-2.3518,-2.3936,-2.3811,-2.272,-2.2772,-2.287,-2.287,-2.287,-2.2955,-2.304,-2.254,-2.2556,-2.3067,-2.2569,-2.2565,-2.3078,-2.3351,-2.3265,-2.3103,-2.3503,-2.4054,-2.4607,-2.5109,-2.5548,-2.5925,-2.6088,-2.6276,-2.6533,-2.6533,-2.6804,-2.7231,-2.6879,-2.7118,-2.7544,-2.7344,-2.718,-2.7105,-2.7419,-2.7544,-2.757,-2.7532,-2.7657,-2.7896,-2.8247,-2.8072,-2.7946,-2.8499,-2.8637,-2.8737,-2.9114,-2.89,-2.8637,-2.8637,-2.8348,-2.7996,-2.7645,-2.7422,-2.7296,-2.7053,-2.5768,-2.4869,-2.4694,-2.377,-2.2705,-2.1592,-2.1963,-2.1816,-2.0664,-2.083,-2.0869,-2.0586,-2.0566,-2.0566,-2.0566,-2.042,-2.0332,-2.0332,-1.9648,-1.915,-1.8867,-1.8564,-1.835,-1.8242,-1.8359,-1.8271,-1.1404,0.0,0.0,0.0,-1.2272,-1.274,-1.3614,-1.4636,-1.5527,-1.6132,-1.6986,-1.7793,-1.8336,-1.9522,-2.0606,-2.1166,-2.1252,-2.1724,-2.3051,-2.3475,-2.3938,-2.4859,-2.5124,-2.5004,-2.4334,-2.4676,-2.4319,-2.2789,-2.303,-2.2777,-2.1636,-2.1547,-2.1477,-2.1477,-2.1677,-2.1849,-2.2043,-2.2043,-2.2223,-2.2544,-2.2002,-2.211,-2.2845,-2.2852,-2.2902,-2.3078,-2.3078,-2.3565,-2.4318,-2.4845,-2.5385,-2.59,-2.6101,-2.6289,-2.6533,-2.6533,-2.6804,-2.7205,-2.6722,-2.6816,-2.7256,-2.7067,-2.6753,-2.6603,-2.7331,-2.7419,-2.7318,-2.7507,-2.7821,-2.816,-2.8299,-2.8411,-2.8524,-2.9089,-2.8884,-2.8691,-2.8966,-2.8961,-2.8925,-2.8925,-2.8015,-2.7225,-2.7065,-2.6497,-2.6141,-2.6382,-2.5127,-2.4185,-2.4581,-2.3504,-2.2441,-2.1738,-2.1914,-2.1728,-2.0859,-2.0928,-2.0879,-2.0586,-2.0566,-2.0566,-2.0566,-2.0566,-2.0566,-2.0566,-2.001,-1.9434,-1.8857,-1.8564,-1.8428,-1.8437,-1.8428,-1.8281,0.0,0.0,0.0,0.0,0.0,0.0,-1.2908,0.0,-1.3674,-1.5316,-1.6082,-1.6633,-1.7243,-1.7782,-1.8675,-2.0322,-2.0643,-2.1082,-2.2371,-2.3116,-2.3566,-2.364,-2.4215,-2.4319,-2.3683,-2.358,-2.3359,-2.2774,-2.2657,-2.2309,-2.1663,-2.1523,-2.1445,-2.1445,-2.2002,-2.197,-2.1476,-2.1476,-2.1485,-2.1471,-2.0983,-2.1264,-2.2297,-2.2284,-2.2611,-2.3078,-2.3078,-2.3766,-2.4745,-2.4217,-2.4958,-2.6339,-2.5799,-2.5925,-2.6496,-2.6496,-2.6779,-2.718,-2.6653,-2.6816,-2.7168,-2.6697,-2.6533,-2.6533,-2.6546,-2.6854,-2.718,-2.6747,-2.7293,-2.8009,-2.751,-2.8136,-2.9013,-2.9576,-2.8858,-2.7953,-2.7544,-2.8154,-2.8863,-2.885,-2.72,-2.5979,-2.6439,-2.567,-2.4949,-2.4815,-2.4449,-2.4115,-2.394,-2.2774,-2.2041,-2.2432,-2.1738,-2.124,-2.1221,-2.083,-2.0576,-2.0566,-2.0566,-2.0566,-2.0566,-2.0566,-2.0566,-2.0566,-2.0557,-2.0137,-1.9307,-1.8477,-1.8477,-1.9228,-1.8398,-1.8018,-1.2018,0.0,0.0,0.0,0.0,0.0,-1.2019,0.0,-1.3496,-1.4375,-1.4979,-1.5535,-1.6049,-1.6306,-1.6815,-1.808,-1.8942,-1.9786,-2.0605,-2.1239,-2.1938,-2.2849,-2.3111,-2.3301,-2.358,-2.3198,-2.3066,-2.3316,-2.2483,-2.1854,-2.169,-2.0785,-2.0258,-2.0258,-2.0856,-2.1094,-2.0923,-2.0923,-2.1142,-2.1509,-2.0951,-2.1268,-2.2276,-2.2304,-2.2606,-2.3078,-2.3078,-2.3536,-2.42,-2.4028,-2.4263,-2.4691,-2.4925,-2.5353,-2.5837,-2.5837,-2.6201,-2.6666,-2.6584,-2.6634,-2.6666,-2.6584,-2.6533,-2.6596,-2.6929,-2.7155,-2.7419,-2.8059,-2.8185,-2.8172,-2.8374,-2.8369,-2.8325,-2.856,-2.7706,-2.6919,-2.6793,-2.7002,-2.7298,-2.7806,-2.7003,-2.6507,-2.699,-2.5811,-2.4719,-2.4393,-2.3531,-2.2998,-2.3054,-2.2382,-2.1807,-2.1611,-2.166,-2.1445,-2.081,-2.0937,-2.0908,-2.0586,-2.0566,-2.0566,-2.0566,-2.0566,-2.0566,-2.0566,-2.0254,-1.9971,-1.9736,-1.9502,-1.9033,-1.8359,-1.8115,-1.8174,0.0,0.0,0.0,0.0,0.0,0.0,-1.19,-1.2352,-1.2902,0.0,-1.4337,-1.4714,-1.5257,-1.5386,-1.557,-1.6243,-1.7281,-1.8271,-1.9118,-2.0162,-2.1109,-2.1874,-2.2599,-2.3096,-2.3198,-2.2891,-2.2738,-2.2813,-2.2098,-2.1577,-2.1327,-2.0348,-1.9798,-1.9798,-2.0395,-2.0589,-2.0335,-2.0547,-2.0729,-2.0785,-2.045,-2.0898,-2.1979,-2.1982,-2.2392,-2.3078,-2.3078,-2.3273,-2.3619,-2.3642,-2.3865,-2.4417,-2.4946,-2.5297,-2.564,-2.585,-2.6163,-2.6533,-2.6533,-2.6533,-2.6533,-2.6533,-2.6533,-2.6584,-2.6841,-2.7256,-2.7686,-2.8114,-2.8325,-2.845,-2.8516,-2.8355,-2.7956,-2.7254,-2.631,-2.5404,-2.5081,-2.4762,-2.5033,-2.6461,-2.6037,-2.5595,-2.5645,-2.4602,-2.3752,-2.3524,-2.2907,-2.2567,-2.2605,-2.2068,-2.1582,-2.1514,-2.1406,-2.1201,-2.0869,-2.0908,-2.084,-2.0576,-2.0566,-2.0566,-2.0566,-2.0566,-2.0566,-2.0566,-2.0312,-2.0185,-2.0185,-1.9824,-1.918,-1.8281,-1.8457,-1.8486,0.0,0.0,0.0,0.0,0.0,0.0,-1.2307,-1.2187,-1.2289,0.0,-1.3997,-1.4148,-1.4639,-1.4752,-1.481,-1.4821,-1.5664,-1.6701,-1.786,-1.9496,-2.0655,-2.0683,-2.2178,-2.3036,-2.2539,-2.2466,-2.2278,-2.1724,-2.1609,-2.1366,-2.0847,-2.0169,-1.9786,-1.9709,-2.0295,-2.0332,-1.9811,-2.0333,-2.0333,-1.9798,-1.9798,-2.0348,-2.1393,-2.1406,-2.197,-2.2942,-2.2942,-2.2955,-2.304,-2.304,-2.3641,-2.4657,-2.5205,-2.5472,-2.5552,-2.6181,-2.6471,-2.6533,-2.6533,-2.6533,-2.6533,-2.6533,-2.6533,-2.6533,-2.6533,-2.7231,-2.7988,-2.7519,-2.7968,-2.8475,-2.8036,-2.7761,-2.7254,-2.5902,-2.4729,-2.374,-2.2924,-2.2302,-2.2551,-2.4762,-2.4566,-2.3918,-2.3541,-2.2955,-2.2568,-2.2519,-2.251,-2.249,-2.2451,-2.1738,-2.1387,-2.1777,-2.1064,-2.0723,-2.1123,-2.0791,-2.0566,-2.0566,-2.0566,-2.0566,-2.0566,-2.0566,-2.0566,-2.0566,-2.0566,-2.0566,-2.0566,-1.9707,-1.9111,-1.8718,-1.9082,-1.8809,0.0,0.0,0.0,0.0,0.0,0.0,-1.2554,-1.2746,-1.3071,0.0,-1.3396,-1.3398,-1.3498,-1.3935,-1.4256,-1.4241,-1.4787,-1.5578,-1.6701,-1.7912,-1.8895,-1.9384,-2.0144,-2.0784,-2.1189,-2.1152,-2.1257,-2.1683,-2.1186,-2.0884,-2.09,-2.0192,-1.962,-1.9189,-1.9693,-1.9949,-1.9798,-1.9922,-1.9922,-1.9798,-1.9798,-2.0168,-2.0875,-2.0849,-2.123,-2.1837,-2.1837,-2.2055,-2.2455,-2.2455,-2.2859,-2.3489,-2.4096,-2.457,-2.5025,-2.5589,-2.6055,-2.6533,-2.6533,-2.6533,-2.6533,-2.6533,-2.6533,-2.6533,-2.6533,-2.7231,-2.8064,-2.7975,-2.7214,-2.6485,-2.6769,-2.5625,-2.4395,-2.4534,-2.3371,-2.2274,-2.2106,-2.1981,-2.207,-2.2541,-2.2758,-2.3153,-2.4304,-2.3695,-2.29,-2.2568,-2.251,-2.2393,-2.2051,-2.1562,-2.1269,-2.1357,-2.0889,-2.0596,-2.0684,-2.0615,-2.0566,-2.0566,-2.0566,-2.0566,-2.0566,-2.0566,-2.0566,-2.0566,-2.0566,-2.0566,-2.0566,-1.9707,-1.9414,-1.9648,-1.9043,-1.8672,0.0,0.0,0.0,-1.4171,0.0,0.0,0.0,-1.3083,-1.3047,-1.3527,-1.3421,-1.3298,-1.3601,-1.3919,-1.4098,-1.4098,-1.4549,-1.5096,-1.562,-1.6705,-1.7543,-1.7879,-1.9142,-2.0,-2.0023,-2.0421,-2.085,-2.1193,-2.057,-2.0257,-2.0398,-2.003,-1.9544,-1.9007,-1.9508,-1.9798,-1.9798,-1.9798,-1.9798,-1.9798,-1.9798,-2.0143,-2.0695,-2.0695,-2.0972,-2.1493,-2.1493,-2.1787,-2.2278,-2.23,-2.2637,-2.3163,-2.3777,-2.4166,-2.4493,-2.5324,-2.5782,-2.6068,-2.6408,-2.6533,-2.6533,-2.6533,-2.6533,-2.6533,-2.6533,-2.6723,-2.6919,-2.671,-2.6119,-2.5486,-2.5409,-2.4609,-2.375,-2.3421,-2.2581,-2.187,-2.1631,-2.151,-2.1598,-2.1855,-2.2227,-2.267,-2.3241,-2.3186,-2.2998,-2.2578,-2.2685,-2.2598,-2.1963,-2.1699,-2.1475,-2.126,-2.083,-2.0654,-2.0879,-2.0693,-2.0566,-2.0566,-2.0566,-2.0566,-2.0566,-2.0566,-2.0566,-2.0566,-2.0566,-2.0566,-2.0566,-2.0137,-1.9922,-1.9902,-1.9473,-1.916,0.0,0.0,0.0,0.0,0.0,-1.3994,0.0,0.0,0.0,-1.4099,-1.386,-1.3686,-1.415,-1.4164,-1.4055,-1.3957,-1.4372,-1.468,-1.4467,-1.5432,-1.6292,-1.6467,-1.8143,-1.9094,-1.875,-1.9589,-2.0198,-2.0388,-1.9832,-1.9572,-1.9722,-1.9683,-1.9409,-1.8857,-1.9271,-1.9584,-1.9798,-1.9709,-1.9709,-1.9798,-1.9798,-2.0066,-2.0527,-2.0527,-2.0772,-2.1159,-2.1159,-2.1536,-2.2126,-2.2138,-2.254,-2.3163,-2.3777,-2.4014,-2.4124,-2.5227,-2.5627,-2.5693,-2.6176,-2.6414,-2.6477,-2.614,-2.5963,-2.5947,-2.6079,-2.5649,-2.5194,-2.506,-2.4769,-2.4418,-2.4,-2.3815,-2.3515,-2.2626,-2.2113,-2.17,-2.1267,-2.114,-2.1238,-2.1689,-2.21,-2.2334,-2.2158,-2.2685,-2.2998,-2.2578,-2.2803,-2.2715,-2.1865,-2.1768,-2.1592,-2.1152,-2.0781,-2.0713,-2.1074,-2.0771,-2.0566,-2.0566,-2.0566,-2.0566,-2.0566,-2.0566,-2.0566,-2.0566,-2.0566,-2.0566,-2.0566,-2.0566,-2.0381,-2.0039,-1.9951,-1.9613,0.0,0.0,0.0,0.0,-1.6222,0.0,0.0,0.0,-1.5251,-1.4864,0.0,-1.4752,-1.4789,0.0,0.0,-1.3392,-1.3801,-1.3841,-1.2827,-1.3658,-1.4745,-1.5685,-1.6044,-1.6485,-1.7253,-1.7753,-1.8401,-1.9221,-1.8977,-1.8914,-1.9169,-1.9072,-1.8768,-1.8327,-1.8337,-1.8821,-1.9798,-1.9354,-1.9354,-1.9798,-1.9798,-1.9823,-1.99,-1.99,-1.9964,-1.9989,-1.9989,-2.0605,-2.1615,-2.1568,-2.2164,-2.3163,-2.3777,-2.3978,-2.4147,-2.5176,-2.5615,-2.5636,-2.5661,-2.6071,-2.6288,-2.4935,-2.422,-2.3936,-2.4396,-2.3819,-2.3211,-2.4115,-2.3361,-2.2376,-2.2646,-2.2394,-2.2119,-2.2036,-2.1641,-2.1247,-2.117,-2.0928,-2.0781,-2.1221,-2.166,-2.2178,-2.2881,-2.3076,-2.2998,-2.2578,-2.2549,-2.2275,-2.1416,-2.1309,-2.1133,-2.0684,-2.0596,-2.0586,-2.0635,-2.0596,-2.0566,-2.0566,-2.0566,-2.0566,-2.0566,-2.0566,-2.0566,-2.0566,-2.0566,-2.0566,-2.0566,-2.0566,-2.0537,-2.0478,-2.0088,-1.923,0.0,0.0,0.0,0.0,0.0,0.0,-1.5748,0.0,-1.5241,0.0,0.0,0.0,0.0,0.0,0.0,0.0,-1.4132,-1.393,-1.3462,-1.3509,-1.3855,-1.4686,-1.5336,-1.6111,-1.7126,-1.7309,-1.7524,-1.7925,-1.8421,-1.8596,-1.8389,-1.8698,-1.8838,-1.8668,-1.8646,-1.9033,-1.9786,-1.9585,-1.9556,-1.9798,-1.9798,-1.9798,-1.9798,-1.9798,-1.9798,-1.9811,-2.0168,-2.0785,-2.1524,-2.184,-2.2431,-2.315,-2.3371,-2.347,-2.3634,-2.4705,-2.5153,-2.5211,-2.5872,-2.5884,-2.5448,-2.42,-2.3624,-2.3425,-2.3058,-2.2878,-2.2658,-2.2513,-2.2217,-2.1982,-2.2402,-2.2197,-2.2012,-2.25,-2.1887,-2.1326,-2.1851,-2.1646,-2.1438,-2.1914,-2.2324,-2.2725,-2.3076,-2.3135,-2.3076,-2.29,-2.2666,-2.2295,-2.1689,-2.1387,-2.1162,-2.0977,-2.0723,-2.0674,-2.0937,-2.0713,-2.0566,-2.0566,-2.0566,-2.0566,-2.0566,-2.0566,-2.0566,-2.0566,-2.0566,-2.0566,-2.0566,-2.0566,-2.0566,-2.0557,-1.9743,-1.909,-1.6401,0.0,0.0,0.0,0.0,0.0,0.0,0.0,0.0,0.0,0.0,0.0,0.0,0.0,-1.5006,-1.4722,0.0,-1.4166,-1.3698,-1.352,-1.3664,-1.4259,-1.5082,-1.5787,-1.6149,-1.6305,-1.6532,-1.6909,-1.7763,-1.8258,-1.8187,-1.8641,-1.8878,-1.8771,-1.8783,-1.9044,-1.9594,-1.9573,-1.966,-1.9798,-1.9798,-1.9798,-1.9798,-1.9798,-1.9798,-1.9811,-2.0438,-2.099,-2.1524,-2.2089,-2.2637,-2.3138,-2.3273,-2.3351,-2.3443,-2.4464,-2.4772,-2.4896,-2.5598,-2.5061,-2.3876,-2.3264,-2.2937,-2.2573,-2.1814,-2.1931,-2.2155,-2.1528,-2.1728,-2.2129,-2.2432,-2.2373,-2.2353,-2.2852,-2.2207,-2.1711,-2.2376,-2.2211,-2.202,-2.2461,-2.2734,-2.2969,-2.3115,-2.3135,-2.3038,-2.2931,-2.2669,-2.2347,-2.1948,-2.1572,-2.1367,-2.125,-2.0947,-2.083,-2.1035,-2.0752,-2.0566,-2.0566,-2.0566,-2.0566,-2.0566,-2.0566,-2.0566,-2.0566,-2.0566,-2.0566,-2.0566,-2.0566,-2.0489,-2.0157,-1.9362,-1.8815,0.0,-1.6879,0.0,-1.7271,0.0,0.0,0.0,0.0,-1.6321,0.0,0.0,0.0,0.0,0.0,0.0,-1.4277,-1.4549,0.0,0.0,-1.3402,-1.4283,-1.4791,-1.5248,-1.4928,-1.3487,-1.4099,-1.5105,-1.6425,-1.6918,-1.7638,-1.8792,-1.8907,-1.8703,-1.8222,-1.8232,-1.8472,-1.9052,-1.9046,-1.9309,-1.9798,-1.9798,-1.9798,-1.9798,-1.9798,-1.9798,-1.9811,-2.0438,-2.1016,-2.156,-2.2103,-2.2637,-2.3163,-2.3764,-2.3941,-2.4033,-2.4616,-2.4833,-2.4763,-2.4401,-2.2947,-2.1423,-2.1896,-2.1396,-2.0722,-2.0654,-2.0968,-2.1318,-2.1748,-2.2168,-2.249,-2.251,-2.2803,-2.2998,-2.2627,-2.251,-2.25,-2.251,-2.2187,-2.2021,-2.2432,-2.2516,-2.2614,-2.3047,-2.3135,-2.2931,-2.2572,-2.2553,-2.237,-2.1915,-2.1902,-2.1699,-2.1279,-2.1221,-2.1045,-2.0625,-2.0576,-2.0566,-2.0566,-2.0566,-2.0566,-2.0566,-2.0566,-2.0566,-2.0566,-2.0566,-2.0566,-2.0566,-2.0566,-2.0079,-1.9036,-1.9036,-1.8259,-1.6401,-1.6637,-1.6752,-1.6752,-1.6637,-1.6552,-1.671,0.0,0.0,0.0,0.0,0.0,0.0,0.0,-1.548,-1.4743,-1.45,-1.4037,0.0,-1.3611,-1.43,-1.4845,0.0,0.0,-1.3894,-1.3991,-1.4409,-1.5114,-1.6365,-1.7379,-1.8072,-1.8593,-1.8832,-1.8669,-1.8711,-1.881,-1.9021,-1.9371,-1.9623,-1.9798,-1.9798,-1.9798,-1.9811,-2.0233,-2.0412,-2.0438,-2.1354,-2.1847,-2.2055,-2.2637,-2.3163,-2.3692,-2.3901,-2.4192,-2.4566,-2.5127,-2.5357,-2.5157,-2.413,-2.2861,-2.1665,-2.1208,-2.0868,-2.0566,-2.0566,-2.1084,-2.1699,-2.1846,-2.2383,-2.293,-2.293,-2.2822,-2.2754,-2.2891,-2.25,-2.2246,-2.2812,-2.2598,-2.2432,-2.2842,-2.2891,-2.293,-2.3105,-2.3135,-2.3038,-2.2921,-2.2456,-2.2064,-2.1884,-2.1414,-2.0957,-2.084,-2.0791,-2.0732,-2.0576,-2.0566,-2.0566,-2.0566,-2.0566,-2.0566,-2.0566,-2.0566,-2.0566,-2.0566,-2.0566,-2.0566,-2.0566,-2.0566,-2.0401,-2.0001,-1.855,-1.7268,-1.6371,-1.6522,-1.6522,-1.6522,-1.6522,-1.6522,-1.6522,-1.6522,-1.6459,0.0,0.0,0.0,0.0,0.0,-1.5815,-1.5265,-1.4888,-1.4462,0.0,-1.4125,-1.4447,-1.4596,0.0,0.0,0.0,-1.4143,-1.4411,-1.5426,-1.6535,-1.7508,-1.8369,-1.8912,-1.9003,-1.8631,-1.9041,-1.9081,-1.8731,-1.9447,-1.9798,-1.9798,-1.9798,-1.9798,-1.9811,-2.0425,-2.069,-2.074,-2.1838,-2.2305,-2.2346,-2.287,-2.347,-2.4051,-2.4217,-2.462,-2.5135,-2.5443,-2.5306,-2.4656,-2.3402,-2.2328,-2.1375,-2.0789,-2.0566,-2.0596,-2.0752,-2.1309,-2.1885,-2.1885,-2.249,-2.3105,-2.2959,-2.2822,-2.2803,-2.3076,-2.2725,-2.248,-2.3018,-2.293,-2.2812,-2.3086,-2.3135,-2.3135,-2.3135,-2.3135,-2.3135,-2.3135,-2.2678,-2.2332,-2.2347,-2.1722,-2.1244,-2.1282,-2.1016,-2.079,-2.0586,-2.0751,-2.0761,-2.0644,-2.0566,-2.042,-2.0048,-2.002,-1.991,-1.9645,-1.992,-2.0077,-2.014,-2.0479,-2.0479,-2.021,-1.8201,-1.6828]},{"header":{"parameterUnit":"m.s-1","parameterCategory":1,"la1":30.6,"la2":29.2853,"lo1":-89.7004,"lo2":-87.6739,"dy":0.0162,"dx":0.0183,"nx":112,"ny":82,"refTime":"2023-10-05T12:00:00:Z","depth":0,"parameterNumber":3,"parameterNumberName":"V-component_of_WINDS"},"data":[0.0,0.0,0.0,0.0,0.0,0.0,0.0,0.0,0.0,0.0,0.0,0.0,0.0,0.0,0.0,0.0,0.0,0.0,0.0,0.0,0.0,0.0,0.0,0.0,0.0,0.0,0.0,0.0,0.0,0.0,0.0,0.0,0.0,0.0,0.0,0.0,0.0,0.0,0.0,0.0,0.0,0.0,0.0,0.0,0.0,0.0,0.0,0.0,0.0,0.0,0.0,0.0,0.0,0.0,0.0,0.0,0.0,0.0,0.0,0.0,0.0,0.0,0.0,0.0,0.0,0.0,0.0,0.0,0.0,0.0,0.0,0.0,0.0,0.0,0.0,0.0,0.0,0.0,0.0,0.0,0.0,0.0,0.0,0.0,0.0,0.0,0.0,0.0,0.0,0.0,0.6618,0.7523,0.8383,0.886,0.884,0.879,0.8781,0.8829,0.0,0.0,0.0,0.0,0.0,0.0,0.0,0.0,0.0,0.0,0.0,0.0,0.0,0.0,0.0,0.0,0.0,0.0,0.0,0.0,0.0,0.0,0.0,0.0,0.0,0.0,0.0,0.0,0.0,0.0,0.0,0.0,0.0,0.0,0.0,0.0,0.0,0.0,0.0,0.0,0.0,0.0,0.0,0.0,0.0,0.0,0.0,0.0,0.0,0.0,0.0,0.0,0.0,0.0,0.0,0.0,0.0,0.0,0.0,0.0,0.0,0.0,0.0,0.0,0.0,0.0,0.0,0.0,0.0,0.0,0.0,0.0,0.0,0.0,0.0,0.0,0.0,0.0,0.0,0.0,0.0,0.0,0.0,0.0,0.0,0.0,0.0,0.0,0.0,0.0,0.0,0.0,0.0,0.0,0.0,0.0,0.0,0.0,0.0,0.0,0.0,0.0,0.0,0.0,0.6967,0.8127,0.8792,0.9204,0.9368,0.8616,0.837,0.8929,0.0,0.0,0.0,0.0,0.0,0.0,0.0,0.0,0.0,0.0,0.0,0.0,0.0,0.0,0.0,0.0,0.0,0.0,0.0,0.0,0.0,0.0,0.0,0.0,0.0,0.0,0.0,0.0,0.0,0.0,0.0,0.0,0.0,0.0,0.0,0.0,0.0,0.0,0.0,0.0,0.0,0.0,0.0,0.0,0.0,0.0,0.0,0.0,0.0,0.0,0.0,0.0,0.0,0.0,0.0,0.0,0.0,0.0,0.0,0.0,0.0,0.0,0.0,0.0,0.0,0.0,0.0,0.0,0.0,0.0,0.0,0.0,0.0,0.0,0.0,0.0,0.0,0.0,0.0,0.0,0.0,0.0,0.0,0.0,0.0,0.0,0.0,0.0,0.0,0.0,0.0,0.0,0.0,0.0,0.0,0.0,0.0,0.0,0.0,0.0,0.0,0.0,0.0,0.7077,0.7476,0.8524,0.8955,0.9174,0.9188,0.8206,0.8006,0.8902,0.792,0.0,0.0,0.0,0.0,0.0,0.0,0.0,0.0,0.0,0.0,0.0,0.0,0.0,0.0,0.0,0.0,0.0,0.0,0.0,0.0,0.0,0.0,0.0,0.0,0.0,0.0,0.0,0.0,0.0,0.0,0.0,0.0,0.0,0.0,0.0,0.0,0.0,0.0,0.0,0.0,0.0,0.0,0.0,0.0,0.0,0.0,0.0,0.0,0.0,0.0,0.0,0.0,0.0,0.0,0.0,0.0,0.0,0.0,0.0,0.0,0.0,0.0,0.0,0.0,0.0,0.0,0.0,0.0,0.0,0.0,0.0,0.0,0.0,0.0,0.0,0.0,0.0,0.0,0.0,0.0,0.0,0.0,0.0,0.0,0.0,0.0,0.0,0.0,0.0,0.0,0.0,0.0,0.0,0.0,0.0,0.0,0.0,0.0,0.0,0.0,0.0,0.0,0.7946,0.8184,0.9022,0.9361,0.9361,0.9017,0.816,0.7996,0.8839,0.7511,0.0,0.0,0.0,0.0,0.0,0.0,0.0,0.0,0.0,0.0,0.0,0.0,0.0,0.0,0.0,0.0,0.0,0.0,0.0,0.0,0.0,0.0,0.0,0.0,0.0,0.0,0.0,0.0,0.0,0.0,0.0,0.0,0.0,0.0,0.0,0.0,0.0,0.0,0.0,0.0,0.0,0.0,0.0,0.0,0.0,0.0,0.0,0.0,0.0,0.0,0.0,0.0,0.0,0.0,0.0,0.0,0.0,0.0,0.0,0.0,0.0,0.0,0.0,0.0,0.0,0.0,0.0,0.0,0.0,0.0,0.0,0.0,0.0,0.0,0.0,0.0,0.0,0.0,0.0,0.0,0.0,0.0,0.0,0.0,0.0,0.0,0.0,0.0,0.0,0.0,0.0,0.0,0.0,0.0,0.0,0.0,0.0,0.0,0.0,0.0,0.0,0.0,0.8812,0.9127,0.9995,1.0331,1.0162,0.9345,0.879,0.8612,0.888,0.8042,0.0,0.0,0.0,0.0,0.0,0.0,0.0,0.0,0.0,0.0,0.0,0.0,0.0,0.0,0.0,0.0,0.0,0.0,0.0,0.0,0.0,0.0,0.0,0.0,0.0,0.0,0.0,0.0,0.0,0.0,0.0,0.0,0.0,0.0,0.0,0.0,0.0,0.0,0.0,0.0,0.0,0.0,0.0,0.0,0.0,0.0,0.0,0.0,0.0,0.0,0.0,0.0,0.0,0.0,0.0,0.0,0.0,0.0,0.0,0.0,0.0,0.0,0.0,0.0,0.0,0.0,0.0,0.0,0.0,0.0,0.0,0.0,0.0,0.0,0.0,0.0,0.0,0.0,0.0,0.0,0.0,0.0,0.0,0.0,0.0,0.0,0.0,0.0,0.0,0.0,0.0,0.0,0.0,0.0,0.0,0.0,0.0,0.0,0.0,0.0,0.0,0.0,0.8786,0.8953,0.0,0.9778,0.9541,0.8923,0.8117,0.7996,0.88,0.0,0.0,0.0,0.0,0.0,0.0,0.0,0.0,0.0,0.0,0.0,0.0,0.0,0.0,0.0,0.0,0.0,0.0,0.0,0.0,0.0,0.0,0.0,0.0,0.0,0.0,0.0,0.0,0.0,0.0,0.0,0.0,0.0,0.0,0.0,0.0,0.0,0.0,0.0,0.0,0.0,0.0,0.0,0.0,0.0,0.0,0.0,0.0,0.0,0.0,0.0,0.0,0.0,0.0,0.0,0.0,0.0,0.0,0.0,0.0,0.0,0.0,0.0,0.0,0.0,0.0,0.0,0.0,0.0,0.0,0.0,0.0,0.0,0.0,0.0,0.0,0.0,0.0,0.0,0.0,0.0,0.0,0.0,0.0,0.0,0.0,0.0,0.0,0.0,0.0,0.0,0.0,0.0,0.0,0.0,0.0,0.0,0.0,0.0,0.0,0.0,0.0,0.9325,0.9064,0.9114,0.0,0.9742,0.9333,0.8603,0.7875,0.7845,0.8805,0.0,0.0,0.0,0.0,0.0,0.0,0.0,0.0,0.0,0.0,0.0,0.0,0.0,0.0,0.0,0.0,0.0,0.0,0.0,0.0,0.0,0.0,0.0,0.0,0.0,0.0,0.0,0.0,0.0,0.0,0.0,0.0,0.0,0.0,0.0,0.0,0.0,0.0,0.0,0.0,0.0,0.0,0.0,0.0,0.0,0.0,0.0,0.0,0.0,0.0,0.0,0.0,0.0,0.0,0.0,0.0,0.0,0.0,0.0,0.0,0.0,0.0,0.0,0.0,0.0,0.0,0.0,0.0,0.0,0.0,0.0,0.0,0.0,0.0,0.0,0.0,0.0,0.0,0.0,0.0,0.0,0.0,0.0,0.0,0.0,0.0,0.0,0.0,0.0,0.0,0.0,0.0,0.0,0.0,0.0,0.0,0.0,0.0,0.0,0.0,0.0,0.0,0.9989,0.9745,0.9855,1.0809,1.0518,0.9793,0.8518,0.8267,0.8417,0.0,0.0,0.0,0.0,0.0,0.0,0.0,0.0,0.0,0.0,0.0,0.0,0.0,0.0,0.0,0.0,0.0,0.0,0.0,0.0,0.0,0.0,0.0,0.0,0.0,0.0,0.0,0.0,0.0,0.0,0.0,0.0,0.0,0.0,0.0,0.0,0.0,0.0,0.0,0.0,0.0,0.0,0.0,0.0,0.0,0.0,0.0,0.0,0.0,0.0,0.0,0.0,0.0,0.0,0.0,0.0,0.0,0.0,0.0,0.0,0.0,0.0,0.0,0.0,0.0,0.0,0.0,0.0,0.0,0.0,0.0,0.0,0.0,0.0,0.0,0.0,0.0,0.0,0.0,0.0,0.0,0.0,0.0,0.0,0.0,0.0,0.0,0.0,0.0,0.0,0.0,0.0,0.0,0.0,0.0,0.0,0.0,0.0,0.0,0.0,0.0,0.0,0.0,1.0116,0.9601,0.936,0.9923,0.9629,0.8984,0.8008,0.7308,0.7384,0.8434,0.0,0.0,0.0,0.0,0.0,0.0,0.0,0.0,0.0,0.0,0.0,0.0,0.0,0.0,0.0,0.0,0.0,0.0,0.0,0.0,0.0,0.0,0.0,0.0,0.0,0.0,0.0,0.0,0.0,0.0,0.0,0.0,0.0,0.0,0.0,0.0,0.0,0.0,0.0,0.0,0.0,0.0,0.0,0.0,0.0,0.0,0.0,0.0,0.0,0.0,0.0,0.0,0.0,0.0,0.0,0.0,0.0,0.0,0.0,0.0,0.0,0.0,0.0,0.0,0.0,0.0,0.0,0.0,0.0,0.0,0.0,0.0,0.0,0.0,0.0,0.0,0.0,0.0,0.0,0.0,0.0,0.0,0.0,0.0,0.0,0.0,0.0,0.0,0.0,0.0,0.0,0.0,0.0,0.0,0.0,0.0,0.0,0.0,0.0,0.0,0.0,0.0,1.0204,0.9395,0.8984,0.9534,0.9111,0.8477,0.7754,0.715,0.7169,0.8047,0.0,0.0,0.0,0.0,0.0,0.0,0.0,0.0,0.0,0.0,0.0,0.0,0.0,0.0,0.0,0.0,0.0,0.0,0.0,0.0,0.0,0.0,0.0,0.0,0.0,0.0,0.0,0.0,0.0,0.0,0.0,0.0,0.0,0.0,0.0,0.0,0.0,0.0,0.0,0.0,0.0,0.0,0.0,0.0,0.0,0.0,0.0,0.0,0.0,0.0,0.0,0.0,0.0,0.0,0.0,0.0,0.0,0.0,0.0,0.0,0.0,0.0,0.0,0.0,0.0,0.0,0.0,0.0,0.0,0.0,0.0,0.0,0.0,0.0,0.0,0.0,0.0,0.0,0.0,0.0,0.0,0.0,0.0,0.0,0.0,0.0,0.0,0.0,0.0,0.0,0.0,0.0,0.0,0.0,0.0,0.0,0.0,0.0,0.0,0.0,0.0,0.0,1.0319,0.9205,0.8714,0.959,0.8891,0.8214,0.7734,0.7504,0.7473,0.7721,0.0,0.0,0.0,0.0,0.0,0.0,0.0,0.0,0.0,0.0,0.0,0.0,0.0,0.0,0.0,0.0,0.0,0.0,0.0,0.0,0.0,0.0,0.0,0.0,0.0,0.0,0.0,0.0,0.0,0.0,0.0,0.0,0.0,0.0,0.0,0.0,0.0,0.0,0.0,0.0,0.0,0.0,0.0,0.0,0.0,0.0,0.0,0.0,0.0,0.0,0.0,0.0,0.0,0.0,0.0,0.0,0.0,0.0,0.0,0.0,1.8342,1.9325,0.0,0.0,0.0,0.0,0.0,0.0,0.0,0.0,0.0,0.0,0.0,0.0,0.0,0.0,0.0,0.0,0.0,0.0,0.0,0.0,0.0,0.0,0.0,0.0,0.0,0.0,0.0,0.0,0.0,0.0,0.0,0.0,0.0,0.0,0.0,0.0,0.0,0.0,0.0,0.0,1.0754,0.9401,0.8854,1.0026,0.9084,0.8178,0.7673,0.7343,0.7197,0.724,0.7365,0.0,0.0,0.0,0.0,0.0,0.0,0.0,0.0,0.0,0.0,0.0,0.0,0.0,0.0,0.0,0.0,0.0,0.0,0.0,0.0,0.0,0.0,0.0,0.0,0.0,0.0,0.0,0.0,0.0,0.0,0.0,0.0,0.0,0.0,0.0,0.0,0.0,0.0,0.0,0.0,0.0,0.0,0.0,0.0,0.0,0.0,0.0,0.0,0.0,0.0,0.0,0.0,0.0,0.0,0.0,0.0,0.0,0.0,0.0,1.7789,1.8071,0.0,0.0,0.0,0.0,0.0,0.0,0.0,0.0,0.0,0.0,0.0,0.0,0.0,0.0,0.0,0.0,0.0,0.0,0.0,0.0,0.0,0.0,0.0,0.0,0.0,0.0,0.0,0.0,0.0,0.0,0.0,0.0,0.0,0.0,0.0,0.0,0.0,0.0,0.0,0.0,1.13,0.9755,0.8925,0.983,0.9122,0.8466,0.8187,0.8021,0.7758,0.7356,0.7549,0.0,0.0,0.0,0.0,0.0,0.0,0.0,0.0,0.0,0.0,0.0,0.0,0.0,0.0,0.0,0.0,0.0,0.0,0.0,0.0,0.0,0.0,0.0,0.0,0.0,0.0,0.0,0.0,0.0,0.0,0.0,0.0,0.0,0.0,0.0,0.0,0.0,0.0,0.0,0.0,0.0,0.0,0.0,0.0,0.0,0.0,0.0,0.0,0.0,0.0,0.0,0.0,0.0,1.7105,1.7433,1.848,1.8392,1.8103,1.7685,1.8007,1.7302,1.6104,1.7927,0.0,0.0,0.0,0.0,0.0,0.0,0.0,0.0,0.0,0.0,0.0,0.0,0.0,0.0,0.0,0.0,0.0,0.0,0.0,0.0,0.0,0.0,1.5891,1.6145,1.5881,1.5429,1.5016,0.0,0.0,0.0,0.0,0.0,0.0,0.0,0.0,0.0,0.0,0.0,1.189,1.0179,0.917,0.9784,0.9221,0.8816,0.8899,0.8789,0.8399,0.7645,0.79,0.798,0.0,0.0,0.0,0.0,0.0,0.0,0.0,0.0,0.0,0.0,0.0,0.0,0.0,0.0,0.0,0.0,0.0,0.0,0.0,0.0,0.0,0.0,0.0,0.0,0.0,0.0,0.0,0.0,0.0,0.0,0.0,0.0,1.6689,1.6757,0.0,0.0,0.0,0.0,0.0,0.0,0.0,0.0,0.0,0.0,0.0,0.0,0.0,1.7463,1.7877,1.7847,1.8159,1.8819,1.8709,1.8971,1.9572,1.9133,1.8882,1.8781,1.8358,0.0,1.7128,1.7796,0.0,0.0,0.0,0.0,0.0,0.0,0.0,0.0,0.0,0.0,0.0,0.0,0.0,0.0,0.0,0.0,0.0,0.0,0.0,0.0,0.0,0.0,1.6192,1.5336,1.5079,1.5004,1.4928,1.5383,1.5802,1.5802,1.5423,1.5107,0.0,0.0,0.0,0.0,0.0,0.0,1.2413,1.0709,0.9973,1.1191,0.981,0.8926,0.9289,0.8717,0.8136,0.7645,0.738,0.7399,0.7686,0.7909,0.0,0.0,0.0,0.0,0.0,0.0,0.0,0.0,0.0,0.0,0.0,0.0,0.0,0.0,0.0,0.0,0.0,0.0,0.0,0.0,0.0,0.0,0.0,0.0,0.0,0.0,0.0,0.0,0.0,1.6016,1.5737,1.6415,1.7509,1.8156,0.0,0.0,0.0,0.0,0.0,0.0,0.0,0.0,0.0,1.7451,1.8003,1.843,1.8668,1.8957,1.9384,1.9949,1.9949,2.0225,2.074,2.0514,2.0238,1.9949,2.0024,1.9547,1.8669,1.8286,1.7961,1.781,0.0,0.0,0.0,0.0,1.8936,1.9382,1.9014,1.9058,1.9321,1.9757,0.0,0.0,0.0,0.0,0.0,0.0,0.0,1.7491,1.6682,1.6507,1.6373,1.5897,1.5793,1.5793,1.5793,1.5743,1.5693,1.5693,1.5492,1.5329,1.5329,1.4865,0.0,0.0,0.0,1.2633,1.2859,1.1318,1.0428,1.1044,1.0098,0.949,0.9672,0.9396,0.9023,0.8646,0.8219,0.801,0.8042,0.8033,0.8471,0.0,0.0,0.0,0.0,0.0,0.0,0.0,0.0,0.0,0.0,0.0,0.0,0.0,0.0,0.0,0.0,0.0,0.0,0.0,0.0,0.0,0.0,0.0,0.0,0.0,0.0,0.0,0.0,1.5549,1.5356,1.6134,1.6833,1.7072,0.0,0.0,0.0,0.0,0.0,0.0,1.8507,1.808,1.8022,1.8593,1.9158,1.951,1.966,2.0049,2.0526,2.1091,2.1091,2.138,2.1907,2.1757,2.1481,2.1104,2.138,2.0928,1.9962,1.9158,1.8505,1.8088,1.8892,1.9188,1.9188,1.9188,1.9465,1.9743,1.9183,1.8982,1.9027,1.9152,1.9294,1.9387,1.9387,0.0,0.0,0.0,0.0,1.7633,1.7068,1.6948,1.6911,1.6773,1.6735,1.6697,1.6547,1.6195,1.5869,1.5718,1.558,1.553,1.5668,1.5054,0.0,1.5054,1.3923,1.3132,1.3408,1.2102,1.1119,1.1119,1.0533,1.0106,1.0106,0.9903,0.9672,0.9408,0.8975,0.8645,0.8428,0.8421,0.8494,0.8686,0.0,0.0,0.0,0.0,0.0,0.0,0.0,0.0,0.0,0.0,0.0,0.0,0.0,0.0,0.0,0.0,0.0,0.0,0.0,0.0,0.0,0.0,0.0,0.0,0.0,0.0,0.0,0.0,0.0,1.5466,1.5224,0.0,0.0,0.0,0.0,1.6498,1.6493,1.7419,1.9585,2.0696,2.0772,1.9736,2.0275,2.084,2.1355,2.1393,2.1681,2.2234,2.2234,2.2523,2.2977,2.251,2.2259,2.2196,2.1707,2.1154,2.0668,2.0618,2.02,1.9673,1.9762,1.9762,1.9762,1.9762,1.9797,1.9712,1.9179,1.9003,1.9114,1.9721,2.0332,2.0785,2.0811,2.0457,0.0,0.0,1.8993,1.8858,1.8291,1.8116,1.799,1.7463,1.7338,1.7187,1.6635,1.6497,1.6321,1.5793,1.5279,1.5117,1.5605,0.0,1.5618,1.5643,1.5128,1.4614,1.411,1.3019,1.2328,1.2328,1.1307,1.0656,1.0656,0.99,0.9434,0.9408,0.9012,0.8783,0.8761,0.8761,0.8796,0.887,0.9161,0.0,0.0,0.0,0.0,0.0,0.0,0.0,0.0,0.0,0.0,0.0,0.0,0.0,0.0,0.0,0.0,0.0,0.0,0.0,0.0,0.0,0.0,0.0,0.0,0.0,0.0,0.0,0.0,1.6675,1.6667,0.0,1.7524,1.7572,1.73,1.6575,1.78,1.9573,2.1834,2.1878,2.1869,2.192,2.2146,2.2698,2.3615,2.3627,2.3728,2.3929,2.3929,2.3841,2.369,2.3853,2.3339,2.2334,2.2874,2.2585,2.1757,2.2108,2.1506,2.0388,2.0752,2.0891,2.0891,2.0891,2.1087,2.1288,2.0378,2.0091,2.0065,1.9973,2.0069,2.0337,2.0754,2.0781,2.0514,1.9885,1.9431,1.9041,1.8826,1.8495,1.8154,1.7953,1.7639,1.7325,1.7124,1.6773,1.6459,1.6258,1.5781,1.558,1.6132,1.563,1.5279,1.5643,1.5229,1.4714,1.416,1.3396,1.2772,1.2454,1.1738,1.1123,1.0731,1.0771,1.0652,1.0254,1.0092,0.9925,0.9699,0.9124,0.8926,0.9139,0.8562,0.916,0.0,0.0,0.0,0.0,0.0,0.0,0.0,0.0,0.0,0.0,0.0,0.0,0.0,0.0,0.0,0.0,0.0,0.0,0.0,0.0,0.0,0.0,0.0,0.0,0.0,0.0,1.8003,1.8179,1.8277,1.8474,1.8707,1.9083,1.9296,1.9315,2.0636,2.2198,2.3821,2.3428,2.3288,2.3678,2.3703,2.4067,2.4808,2.482,2.482,2.482,2.482,2.4632,2.4293,2.4657,2.4205,2.3188,2.3753,2.3464,2.2623,2.2927,2.2485,2.1543,2.1895,2.2046,2.2046,2.2046,2.2159,2.2159,2.1054,2.0718,2.0729,2.0806,2.0675,2.0729,2.183,2.1971,2.1655,2.0848,2.0448,2.0194,1.9734,1.9338,1.8982,1.8794,1.8329,1.784,1.7463,1.7087,1.6748,1.6559,1.622,1.6082,1.6459,1.5906,1.5555,1.5919,1.5505,1.5054,1.4689,1.3961,1.337,1.3006,1.2303,1.1713,1.1295,1.1638,1.1625,1.1048,1.0982,1.0895,1.0663,0.9734,0.9343,0.9625,0.8199,0.8942,1.1934,0.0,0.0,0.0,0.0,0.0,0.0,0.0,0.0,0.0,0.0,0.0,0.0,0.0,0.0,0.0,0.0,0.0,0.0,0.0,0.0,0.0,0.0,0.0,1.8254,1.8756,1.9321,1.9823,1.9899,1.9899,1.9899,2.0901,2.2432,2.4596,2.4771,2.4978,2.5376,2.5409,2.519,2.4858,2.4845,2.4858,2.487,2.487,2.487,2.487,2.487,2.4858,2.4845,2.4858,2.4858,2.4795,2.428,2.3715,2.3103,2.3175,2.3115,2.3103,2.3078,2.3078,2.3103,2.3078,2.2786,2.2159,2.1066,2.0731,2.0919,2.2251,2.2235,2.2085,2.4011,2.4149,2.3422,2.2189,2.2256,2.2378,2.1144,2.0784,2.058,2.0013,1.9422,1.8731,1.7664,1.7426,1.7237,1.6685,1.6572,1.6559,1.6522,1.6522,1.6522,1.6522,1.607,0.0,1.5693,1.4802,1.4123,1.411,1.3119,1.2467,1.2441,1.2454,1.2228,1.165,1.1613,1.1613,1.1613,1.0599,1.0135,1.0295,0.8234,0.9145,1.3163,0.0,0.0,0.0,0.0,0.0,0.0,0.0,0.0,0.0,0.0,0.0,0.0,0.0,0.0,0.0,0.0,0.0,0.0,0.0,0.0,0.0,1.9832,1.9836,1.9422,2.0539,2.1468,2.1606,2.197,2.2221,2.2221,2.245,2.2921,2.3546,2.4591,2.5268,2.5371,2.5102,2.5111,2.5372,2.5385,2.5586,2.6,2.6013,2.6013,2.6013,2.6013,2.5762,2.5269,2.5799,2.5769,2.528,2.5637,2.5052,2.3791,2.4192,2.4117,2.3715,2.3301,2.3389,2.3715,2.3288,2.2786,2.2209,2.1506,2.1004,2.0813,2.1666,2.2142,2.2707,2.412,2.4746,2.4969,2.4614,2.4322,2.4063,2.3702,2.2576,2.1472,2.1302,2.0092,1.8895,1.8643,1.8254,1.7928,1.7777,1.7739,1.7476,1.666,1.6522,1.6522,1.6522,1.6384,1.6145,1.5743,1.5429,1.513,1.4727,1.4412,1.3873,1.3035,1.337,1.3229,1.2241,1.219,1.219,1.219,1.1259,1.0622,1.0387,1.0768,1.15,0.0,0.0,0.0,0.0,0.0,0.0,0.0,0.0,0.0,0.0,0.0,0.0,0.0,0.0,0.0,0.0,0.0,0.0,0.0,0.0,0.0,0.0,2.1537,2.2033,2.192,2.2548,2.31,2.3339,2.364,2.3779,2.3779,2.3779,2.3991,2.4511,2.5335,2.6051,2.6519,2.6105,2.5988,2.6289,2.6302,2.6465,2.6804,2.6804,2.6804,2.6804,2.6634,2.6276,2.5857,2.6289,2.6299,2.5861,2.6276,2.5932,2.5013,2.4885,2.4757,2.4607,0.0,0.0,0.0,0.0,2.3138,2.2573,2.202,2.1619,2.1453,2.2124,2.247,2.2893,2.4418,2.4994,2.5143,2.5191,2.5126,2.4919,2.4297,2.3307,2.2379,2.207,2.0985,1.9924,1.9459,1.9095,1.8744,1.8292,1.8204,0.0,1.7338,1.7036,1.6886,1.6886,1.6672,1.6409,1.6082,1.5831,1.5567,1.5254,1.5054,1.4525,1.3647,1.411,0.0,0.0,0.0,1.2556,1.2111,1.1805,0.0,0.0,0.0,1.2532,1.2614,1.2282,0.0,0.0,1.1067,1.0572,0.0,0.0,0.0,0.0,0.0,0.0,0.0,0.0,0.0,0.0,0.0,0.0,0.0,0.0,0.0,0.0,2.356,2.4494,2.5109,2.477,2.4594,2.4958,2.4946,2.4958,2.5084,2.5046,2.546,2.6634,2.6653,2.7067,2.8059,2.7645,0.0,0.0,0.0,2.7369,2.7369,2.7318,2.7281,2.7268,2.6798,2.6533,2.6533,2.6533,2.6533,2.6508,2.6489,2.647,2.6381,2.5403,2.5272,2.5636,2.5109,2.4833,2.4669,2.418,2.364,2.299,2.2498,0.0,0.0,2.3059,2.2929,2.2884,2.4797,2.5077,2.4747,2.4846,2.53,2.5463,2.4177,2.3754,2.3493,2.2845,2.2153,2.1369,2.0357,2.0039,1.971,1.8756,1.853,1.848,1.848,1.7915,1.7451,1.7388,1.6936,1.6597,1.6522,1.6082,1.5781,1.5781,1.5341,0.0,1.4324,1.4727,1.4525,1.3448,1.3323,1.2889,1.2027,1.2364,1.2579,1.2579,1.2579,1.2791,1.3198,1.272,1.2282,1.1847,1.084,1.038,0.0,0.0,0.0,0.0,0.0,0.0,0.0,0.0,0.0,0.0,0.0,0.0,0.0,0.0,0.0,2.4126,2.525,2.6327,2.7331,2.7381,2.7017,2.6239,2.5737,2.5799,2.6716,2.6402,2.6603,2.7708,2.7783,2.7883,2.8097,2.8009,2.7946,2.7946,2.7946,2.7946,2.7946,2.7507,2.7281,2.7268,2.6798,0.0,2.6533,2.6533,2.6533,2.6521,2.6526,2.6485,2.6445,2.6236,2.6201,2.6239,2.5674,2.4921,2.4142,2.4042,2.364,2.299,2.2498,2.2309,2.2309,2.247,2.2825,2.3384,2.4262,2.5245,0.0,2.6136,2.6652,2.7149,2.688,2.6009,2.5142,2.4986,2.362,2.231,2.2128,2.1565,2.1104,2.0891,2.0489,2.024,2.024,1.8995,1.789,1.7451,1.7287,1.7049,1.6572,1.6421,1.6358,1.6358,1.6258,1.5969,1.5429,1.548,1.5254,1.4588,1.4173,1.3848,1.365,1.3268,1.3047,1.3047,1.3047,1.3129,1.3198,1.272,1.2461,1.2354,1.1308,1.0842,0.0,0.0,0.0,0.0,0.0,0.0,0.0,0.0,0.0,0.0,0.0,2.2309,0.0,0.0,2.4073,2.5803,2.6741,2.7469,2.8034,2.8348,2.821,2.7381,2.703,2.7067,2.7645,2.7444,2.762,2.8448,2.8511,2.8649,2.8925,2.8674,2.8511,2.8511,2.8511,2.8511,2.8511,2.8247,2.8109,2.8097,2.741,2.6876,2.6507,2.6528,2.6487,2.6465,2.6489,2.6515,2.6523,2.676,2.703,2.7218,2.6653,2.5762,2.4795,2.4795,2.4456,2.3941,2.3665,2.3389,2.315,2.315,2.3378,2.3767,2.4176,2.4997,2.591,2.6245,2.6403,2.65,2.6368,2.5645,2.486,2.4462,2.3593,2.2768,2.2485,2.242,2.2232,2.1643,2.1572,2.1452,2.081,2.0039,1.907,1.7965,1.7551,1.7174,1.6597,1.6522,1.6522,1.6522,1.6522,1.6296,1.5743,1.5442,1.5205,1.4928,1.4651,1.4374,1.4097,1.3821,1.3509,1.321,1.3198,1.3198,1.3198,1.272,1.2508,1.2473,1.202,1.1609,0.0,0.0,0.0,0.0,0.0,0.0,0.0,0.0,2.3718,2.1597,2.2377,2.3609,2.405,2.4506,2.541,2.7293,2.8072,2.8436,2.8436,2.8812,2.8888,2.8335,2.8172,2.8147,2.826,2.826,2.8499,2.9051,2.9089,2.9302,2.9767,2.9352,2.9089,2.9089,2.9089,2.9089,2.9089,2.8988,2.8925,2.8925,2.8138,2.7503,2.6946,2.6821,2.6902,2.7139,2.6989,2.6914,2.6816,2.7256,2.7708,2.8047,2.7494,2.6728,2.59,2.5674,2.5272,2.482,2.482,2.4531,2.4155,2.4155,2.4155,2.4192,2.4377,2.4773,2.5368,2.595,2.5944,2.5656,2.54,2.4983,2.4482,2.3734,2.3531,2.3403,2.3013,2.3341,2.3477,2.2489,2.2612,2.2591,2.1422,2.1059,2.0333,1.8593,1.789,1.7338,1.676,1.6584,1.6522,1.6522,1.6522,1.6333,1.5894,1.5442,1.5191,1.5191,1.509,1.4865,1.4425,1.4299,1.3984,1.3408,1.3496,1.3411,1.3198,1.3045,1.2902,1.2806,1.296,1.2687,1.8037,1.8933,2.0491,2.263,2.1879,2.1068,0.0,0.0,2.3623,2.3312,2.497,2.6161,2.4912,2.6327,2.7883,2.8624,2.9227,2.9603,2.9603,2.9654,2.9478,2.89,2.8398,2.8298,2.8787,2.8837,2.9076,2.9654,2.9691,2.9729,2.9792,2.9729,2.9691,2.9691,2.9691,2.9691,2.9691,2.9189,2.8925,2.8925,2.8646,2.8553,2.8417,2.8084,2.8442,2.9417,2.8737,2.8243,2.7921,2.7996,2.8047,2.8047,2.7494,2.7205,2.6967,2.5963,2.5272,2.482,2.482,2.4782,2.4732,2.4732,2.4732,2.472,2.4708,2.5253,2.5814,2.5937,2.6358,2.6744,2.6188,2.6024,2.5832,2.5298,2.5119,2.5106,2.5093,2.5135,2.5108,2.4984,2.4572,2.4,2.3265,2.2286,2.1054,1.9207,1.8468,1.7915,1.735,1.6835,1.6522,1.6522,1.6522,1.6497,1.6434,1.6371,1.6333,1.6333,1.5869,1.5567,1.5517,1.5079,1.4563,1.4009,1.4475,1.4212,1.3198,1.4175,1.44,1.3924,1.4399,1.4038,1.9632,1.9711,1.996,0.0,2.3952,2.6665,2.7011,2.7263,2.7106,2.5997,2.7145,2.8228,2.7769,2.832,2.9034,0.0,2.977,2.9792,2.9792,2.9503,2.9089,2.8511,2.8247,2.8323,2.8875,2.8925,2.9164,2.9741,2.9792,2.9792,2.9792,2.9792,2.9792,2.9792,2.9792,2.9792,2.9792,2.9553,2.9428,2.9428,2.9353,2.9164,2.8848,2.9038,2.9151,2.9111,2.8619,2.8422,2.8586,2.8586,2.8787,2.9026,2.8461,2.8235,2.8059,2.6628,2.5963,2.5824,2.6138,2.5824,2.5322,2.5674,2.5548,2.5222,2.4908,2.5203,2.5743,2.5743,2.5691,2.5709,2.5801,2.5592,2.5354,2.5118,2.4805,2.457,2.457,2.5024,2.5287,2.4851,2.5246,2.5317,2.4245,2.3661,2.2888,2.1362,1.9752,1.8367,1.7501,1.7174,1.6886,1.6559,1.6522,1.6522,1.6522,1.6522,1.6522,1.6522,1.6308,1.6032,1.5706,1.5467,1.509,1.4576,1.479,1.4689,1.4186,1.4689,1.479,1.4576,1.513,1.5089,2.0707,2.0235,0.0,2.1528,2.7303,3.2176,3.0509,3.055,3.0327,2.8274,2.8757,2.9551,2.9536,2.9282,2.9272,2.9849,2.974,2.9553,2.9553,2.8938,2.8323,2.7921,2.7482,2.7532,2.8398,2.875,2.9101,2.9528,2.9704,2.9792,2.9792,2.9792,2.9792,2.9792,2.9792,2.9792,2.9792,2.9792,2.9792,2.9792,2.9792,2.9578,2.9176,2.9603,2.9541,2.9013,2.8725,2.88,2.9164,2.9164,2.9415,2.9729,2.9151,2.8925,2.8762,2.7419,2.6816,2.6753,2.7143,2.664,2.5925,2.6502,2.6302,2.5762,2.5385,2.5536,2.5837,2.5837,2.5561,2.5322,2.5536,2.5322,2.4996,2.4858,2.4583,2.4289,2.4289,2.4864,2.5287,2.4951,2.5783,2.6193,2.5219,2.4801,2.4166,2.3086,2.1099,1.9355,1.8265,1.77,1.7162,1.6572,1.6522,1.6522,1.6522,1.6522,1.6522,1.6522,1.6522,1.6333,1.5944,1.5919,1.5668,1.5155,1.5254,1.5218,1.4916,1.5218,1.5254,1.5155,1.5668,1.5919,2.0093,1.9723,2.094,2.6079,3.1408,3.4695,3.2044,3.213,3.2086,2.974,2.966,2.9799,2.8975,2.8598,2.8612,2.9118,2.9078,2.895,2.895,2.8021,2.7318,2.7306,2.59,2.5561,0.0,2.8298,2.8938,2.895,2.9478,2.9792,2.9792,2.9792,2.9792,2.9792,2.9792,2.9792,2.9792,2.9792,2.9792,2.9792,2.9792,2.9779,2.9767,2.9779,2.9779,2.9767,2.9741,2.9754,2.9767,2.9767,2.9779,2.9729,2.9151,2.8925,2.885,2.8273,2.772,2.7256,2.7268,2.6917,2.6596,2.708,2.6892,2.6496,2.6483,2.6496,2.6496,2.6496,2.6496,2.6289,2.5737,2.5586,2.5448,2.4946,2.4934,2.509,2.509,2.5256,2.5618,2.6283,2.6457,2.651,2.6428,2.5495,2.4447,2.3677,2.2435,2.1226,2.0046,1.8434,1.7162,1.6572,1.6522,1.6522,1.6522,1.6522,1.6522,1.6522,1.6522,1.6509,1.6497,1.6497,1.6233,1.568,1.6195,1.5944,1.4916,1.5944,1.6195,1.568,1.6233,1.6497,2.194,2.4837,2.7962,2.9754,3.2851,3.5021,3.3242,3.273,3.2017,2.9959,2.9315,2.8653,2.7081,2.6793,2.6894,2.7141,2.7831,2.8386,2.8386,2.8373,2.7971,2.6866,2.6565,0.0,0.0,0.0,0.0,2.885,2.9114,2.939,2.9779,2.9792,2.9792,2.9792,2.9792,2.9792,2.9792,2.9792,2.9792,2.9792,2.9792,2.9792,2.9792,2.9792,2.9792,2.9792,2.9792,2.9792,2.9792,2.9792,2.9792,2.9779,2.9578,2.9503,2.9428,2.8863,2.8536,2.8373,2.8373,2.8009,2.7645,2.8197,2.7996,2.7482,2.7118,2.7005,2.6929,2.6634,2.6533,2.6483,2.6214,2.6163,2.6126,2.595,2.5393,2.4988,2.5345,2.5048,2.4845,2.5466,2.6063,2.6366,2.592,2.5921,2.5448,2.3897,2.2264,2.089,2.0106,1.8831,1.7782,1.7156,1.6748,1.6522,1.6522,1.6522,1.6522,1.6522,1.6522,1.6522,1.6522,1.6522,1.6434,1.6245,1.6421,1.6333,1.5969,1.6333,1.6421,1.6245,1.6434,1.6522,2.5467,2.8897,3.1734,3.2691,3.3851,3.4419,3.308,3.2107,3.0911,2.8921,2.7799,2.6743,2.5261,2.4869,2.49,2.5338,2.6129,2.6841,2.7431,2.7645,2.757,2.7105,2.6829,2.6779,0.0,0.0,0.0,2.8825,2.9302,2.9691,3.0068,3.0269,3.0369,3.0369,3.0369,3.0281,3.0093,3.0093,2.9993,2.9792,2.9792,2.9792,2.9792,2.9792,2.9792,2.9792,2.9792,2.9792,2.9792,2.9792,2.9792,2.9792,2.9792,2.9792,2.9741,2.9377,2.9239,2.9202,2.9001,2.8561,2.8197,2.875,2.8561,2.8047,2.7682,2.7444,2.7205,2.6854,2.6684,2.6533,2.6533,2.6533,2.6533,2.6533,2.5762,2.5197,2.5523,2.4835,2.4372,2.4964,2.5643,2.6048,2.5897,2.607,2.5685,2.3919,2.2639,2.1499,2.0468,1.9493,1.8689,1.8074,1.7288,1.6822,1.6778,1.6595,1.6522,1.6522,1.6522,1.6522,1.6522,1.6522,1.6522,1.6522,1.6522,1.6522,1.6522,1.6522,1.6522,1.6522,1.6522,1.6522,3.0205,3.1677,3.2288,3.4864,3.4435,3.3109,3.1708,3.0428,2.8944,2.6905,2.539,2.4268,2.3565,2.2944,2.2894,2.3945,2.4099,2.4682,2.6276,2.6101,2.6377,0.0,0.0,0.0,0.0,0.0,0.0,2.8938,2.998,3.0595,3.0658,3.1122,3.1386,3.1386,3.1386,3.1135,3.062,3.0583,3.0331,2.9829,2.9829,2.9854,2.988,2.9842,2.9829,2.9829,2.9804,2.9792,2.9792,2.9792,2.9792,2.9792,2.9792,2.9792,2.9792,2.9792,2.9792,2.9704,2.9126,2.8612,2.8285,2.88,2.8612,2.8185,2.816,2.7783,2.7356,2.7306,2.6929,2.6596,2.6546,2.6571,2.6596,2.6546,2.6038,2.5636,2.5598,2.4757,2.424,2.4962,2.527,2.5618,2.6361,2.5997,2.5166,2.3849,2.3684,2.304,2.1251,2.0454,1.9857,1.9211,1.8135,1.7434,1.7365,1.6837,1.6552,1.6552,1.6552,1.6522,1.6522,1.6522,1.6522,1.6522,1.6522,1.6522,1.6522,1.6522,1.6522,1.6522,1.6522,1.6522,3.1997,3.4461,3.4653,3.5351,3.4226,3.2363,3.0087,2.9017,2.7795,2.5389,2.3773,2.2495,2.1464,2.1538,0.0,2.2658,2.4548,0.0,2.6954,2.8021,0.0,2.816,0.0,2.8725,2.8712,2.9352,0.0,0.0,3.0068,3.0344,3.1148,3.1323,3.1386,3.1386,3.1386,3.1135,3.062,3.0206,3.0143,3.0407,3.0407,3.0608,3.0972,3.0583,3.0407,3.0382,2.9967,2.9792,2.9792,2.9792,2.9792,2.9792,2.9792,2.9792,2.9792,2.9792,2.9792,2.9704,2.9126,2.9114,2.939,2.9528,2.9478,2.9277,2.885,2.8624,2.8335,2.7507,2.7482,2.7494,2.6747,2.7067,2.7482,2.6653,2.6352,2.6126,2.5686,2.4757,2.418,2.476,2.507,2.5546,2.6402,2.6057,2.533,2.4492,2.4777,2.4384,2.2503,2.178,2.095,1.9835,1.9068,1.848,1.7948,1.7394,1.7118,1.7118,1.7118,1.6909,1.6522,1.6879,1.6909,1.6522,1.6522,1.6522,1.6522,1.6522,1.6522,1.6522,1.6522,1.6522,3.3913,3.5477,3.544,3.504,3.3275,3.1144,2.9237,2.741,2.547,2.3173,2.185,2.0834,1.9876,1.9817,2.0316,0.0,0.0,0.0,2.6327,2.7996,2.9089,0.0,2.9553,0.0,2.9679,3.0244,3.0708,0.0,3.0896,3.1122,3.1725,3.1989,3.2127,3.2127,3.2127,3.175,3.0959,3.0645,3.0532,3.062,3.0846,3.111,3.1386,3.1085,3.0947,3.0922,3.0382,3.0156,3.0131,2.9892,2.9792,2.9792,2.9792,2.9792,2.9792,2.9792,2.9792,2.9704,2.9126,2.9139,2.9415,2.9415,2.9578,2.9729,2.9402,2.9126,2.88,2.8185,2.8059,2.7908,2.7042,2.7281,2.7662,2.7109,2.704,2.7005,2.7053,2.6409,2.5849,2.5968,2.6125,2.6261,2.654,2.6288,2.5809,2.5151,2.5375,2.5191,2.4112,2.3211,2.2379,2.1614,2.0259,1.928,1.8922,1.8138,1.7666,1.7666,1.7666,1.7504,1.7188,1.7504,1.7394,1.6879,1.6837,1.6752,1.6522,1.6522,1.6522,1.6522,1.6522,1.6522,3.5488,3.5503,3.5325,3.4454,3.2153,2.9832,2.8629,2.5753,2.2862,2.1008,2.0165,1.9567,1.9015,1.8662,1.8948,2.0557,0.0,2.2778,2.5435,2.7143,2.8737,3.0419,3.0193,3.0118,3.067,3.0783,3.1022,3.1461,3.2014,3.2328,3.2328,3.2805,3.3081,3.3081,3.3006,3.2491,3.1512,3.1424,3.1198,3.0834,3.1286,3.1537,3.1612,3.1537,3.1499,3.1474,3.0947,3.0683,3.057,3.0093,2.9854,2.9792,2.9792,2.9792,2.9792,2.9792,2.9792,2.9704,2.9126,2.8976,2.9038,2.895,2.9264,2.9691,2.9767,2.944,2.9026,2.895,2.8637,2.8172,2.7469,2.7394,2.7531,2.7533,2.7669,2.7987,2.8602,2.8464,2.8075,2.768,2.7631,2.7472,2.6966,2.6856,2.6602,2.5854,2.5884,2.5944,2.5764,2.4629,2.3771,2.3626,2.16,2.0189,2.0023,1.8987,1.8307,1.8224,1.8224,1.8185,1.8106,1.8185,1.7947,1.7435,1.7435,1.7146,1.6595,1.6595,1.6552,1.6522,1.6522,1.6522,3.5473,3.5524,3.534,3.4622,3.2034,2.9241,2.738,2.4453,0.0,0.0,2.0106,1.9908,1.9999,2.0082,2.0583,2.18,0.0,0.0,0.0,0.0,2.8737,0.0,0.0,0.0,0.0,3.1675,0.0,0.0,3.2604,3.293,3.293,3.3018,3.3081,3.3081,3.2616,3.2265,3.2077,3.1625,3.1574,3.1938,3.2026,3.2315,3.2767,3.229,3.2077,3.2039,3.1486,3.1009,3.0608,3.0507,3.0206,2.9792,2.9792,2.9792,2.9792,2.9792,2.9792,2.9704,2.9126,2.9239,2.9566,2.9089,2.9001,2.9164,2.9641,2.9729,2.9541,2.9063,2.9202,2.9151,2.767,2.7959,2.8273,2.7,2.7566,2.8145,2.7402,2.774,2.8186,2.8211,2.8209,2.8161,2.8211,2.8248,2.7829,2.6602,2.7365,2.7679,2.6557,2.5267,2.4223,2.367,2.2753,2.175,2.0659,1.9982,1.9352,1.8808,1.8765,1.8574,1.8145,1.8535,1.8496,1.7987,1.7947,1.7706,1.7146,1.7146,1.6909,1.6522,1.6522,1.6522,3.5484,3.5504,3.5265,3.4218,3.1495,2.8599,2.6864,0.0,0.0,0.0,2.02,2.0075,2.0008,1.9855,0.0,2.1234,2.1609,0.0,0.0,0.0,0.0,0.0,0.0,0.0,0.0,3.2051,3.2215,3.2215,3.2754,3.3081,3.3081,3.3081,3.3081,3.3081,3.2805,3.2516,3.2215,3.2252,3.2252,3.2215,3.2516,3.2805,3.3068,3.2792,3.2667,3.2629,3.2064,3.1512,3.0997,3.0733,3.0281,2.9792,2.9792,2.9792,2.9792,2.9792,2.9792,2.9704,2.9126,2.9114,2.9302,2.9013,2.9139,2.9428,2.9704,2.9792,2.9729,2.9453,2.9578,2.9478,2.8072,2.8323,2.8708,2.7957,2.8954,2.9896,2.9379,2.9628,2.9812,2.956,2.9192,2.9009,2.9107,2.8831,2.8382,2.7739,2.8188,2.8233,2.723,2.6243,2.539,2.4717,2.3744,2.2772,2.1814,2.1213,2.0553,1.9891,1.9847,1.9733,1.945,1.9359,1.9217,1.903,1.8705,1.8263,1.7706,1.7422,1.7146,1.6909,1.6637,1.6522,3.5304,3.5385,3.5145,3.3664,3.0821,2.7996,2.6443,2.356,0.0,2.0423,2.0382,2.0296,1.9782,1.9369,1.9402,0.0,2.0134,2.1128,0.0,0.0,0.0,0.0,0.0,0.0,0.0,3.229,0.0,3.239,3.2704,3.2943,3.3068,3.3081,3.3081,3.3081,3.3081,3.2855,3.2403,3.2855,3.2855,3.2403,3.2855,3.3081,3.3081,3.3081,3.3081,3.3056,3.2591,3.2077,3.1524,3.0997,3.047,2.9955,2.9842,2.9792,2.9792,2.9792,2.9792,2.9729,2.9277,2.9114,2.9114,2.9114,2.934,2.9628,2.9754,2.9792,2.9767,2.9641,2.9691,2.9528,2.8398,2.8511,2.8953,2.9141,3.015,3.1191,3.1439,3.1482,3.1317,3.0836,3.0223,2.9774,2.9774,2.9355,2.8966,2.8831,2.8921,2.8712,2.7904,2.7335,2.6722,2.5899,2.4747,2.3714,2.2936,2.2398,2.1769,2.0976,2.0917,2.0917,2.0917,2.0408,2.0101,2.0084,1.956,1.8946,1.8263,1.7867,1.7585,1.7463,1.7034,1.6795,3.4781,3.5026,3.504,3.3095,3.0118,2.7289,2.5739,0.0,2.0909,2.0398,2.0649,2.0665,1.9854,1.9639,1.9834,2.0482,2.0172,2.1008,0.0,0.0,0.0,0.0,0.0,0.0,0.0,3.2516,3.2428,3.2955,3.2554,3.2516,3.3056,3.3081,3.3081,3.3081,3.3081,3.3056,3.3006,3.3056,3.3056,3.3006,3.3056,3.3081,3.3081,3.3081,3.3081,3.3081,3.3018,3.2667,3.2089,3.1549,3.1009,3.0495,2.9993,2.9792,2.9792,2.9792,2.9792,2.9779,2.9729,2.9716,2.9716,2.9716,2.939,2.9101,2.9628,2.9792,2.9679,2.9151,2.939,2.9528,2.8398,2.8511,2.9043,2.9591,2.9817,3.0242,3.1279,3.1482,3.1452,3.1392,3.0881,3.0417,3.0417,3.0372,3.0133,2.9579,2.9968,2.9894,2.8667,2.8442,2.7934,2.6632,2.5854,2.4896,2.3625,2.346,2.2906,2.168,2.1605,2.1605,2.1605,2.1545,2.1261,2.0646,2.0571,1.9988,1.8817,1.8779,1.8496,1.8027,1.7987,1.7706,3.3291,3.4253,3.4738,3.1757,2.9285,2.712,2.5392,0.0,2.0959,2.0764,2.1039,2.1023,1.9925,1.9909,1.9939,1.9648,1.8855,1.9228,2.1904,0.0,0.0,0.0,0.0,0.0,0.0,0.0,3.2679,3.2431,3.2328,3.2315,3.2541,3.2554,3.2717,3.3068,3.3081,3.3081,3.3081,3.3081,3.3081,3.3081,3.3081,3.3081,3.3081,3.3081,3.3081,3.3056,3.2704,3.224,3.1675,3.1148,3.0608,3.0093,2.988,2.9792,2.9792,2.9792,2.9792,2.9792,2.9792,2.9792,2.9792,2.9792,2.9641,2.949,2.9729,2.9792,2.9741,2.9515,2.9616,2.9603,2.8812,2.8855,2.9353,2.9931,3.0648,3.1297,3.1776,3.2019,3.2123,3.2123,3.124,3.0642,3.1046,3.0776,3.0417,3.0178,3.0342,3.0043,2.8757,2.8607,2.8233,2.7275,2.6587,2.5824,2.4881,2.4448,2.3819,2.2892,2.2488,2.2278,2.2278,2.1904,2.1754,2.1889,2.1515,2.1093,2.0587,2.0258,1.9778,1.9169,1.8847,1.837,3.1131,3.2488,3.3327,3.033,2.8272,2.6582,0.0,0.0,2.1023,2.115,2.1306,2.1118,2.007,2.0,1.9914,1.9229,1.8243,1.8303,2.051,2.0451,0.0,0.0,0.0,2.9908,0.0,3.3073,3.2789,3.2093,3.1913,3.1838,3.1964,3.1825,3.2152,3.3056,3.2918,3.2905,3.3081,3.3081,3.3081,3.3081,3.3081,3.3081,3.3081,3.3081,3.3081,3.3043,3.2466,3.1989,3.1574,3.0896,3.0382,3.0018,2.9854,2.9792,2.9792,2.9792,2.9792,2.9792,2.9792,2.9792,2.9792,2.9792,2.9792,2.9792,2.9792,2.9792,2.9754,2.9578,2.9528,2.9478,2.9252,2.931,2.9626,3.0053,3.0895,3.1622,3.2055,3.2105,3.2183,3.2452,3.1584,3.0971,3.1392,3.1135,3.0806,3.0806,3.0806,3.0417,2.9295,2.9011,2.8622,2.7949,2.7275,2.6617,2.5959,2.53,2.4627,2.3939,2.3295,2.2951,2.2951,2.2503,2.2398,2.2667,2.2218,2.1889,2.1695,2.1304,2.0892,2.0415,2.005,1.9412,2.8196,2.9579,3.0253,2.8966,2.7126,2.5304,0.0,2.2407,2.1118,2.1521,2.1275,2.0862,2.0382,1.9965,1.9711,1.969,1.8803,1.8865,2.1077,2.112,0.0,0.0,0.0,3.1841,3.3001,3.3057,3.2802,3.2068,3.1354,3.1027,3.1373,3.0909,3.1386,3.3031,3.2516,3.2503,3.3068,3.3081,3.3081,3.3081,3.3081,3.3081,3.3081,3.3081,3.3081,3.3043,3.2466,3.2215,3.2127,3.106,3.062,3.0557,3.0005,2.9792,2.9792,2.9792,2.9792,2.9792,2.9792,2.9792,2.9792,2.9792,2.9792,2.9792,2.9792,2.9792,2.9679,2.9101,2.8938,2.9063,2.9641,2.9779,2.9846,3.0116,3.0237,3.0566,3.1815,3.1588,3.1406,3.2318,3.1973,3.1467,3.1482,3.1467,3.1467,3.1467,3.1467,3.127,3.0567,2.9953,2.9325,2.8667,2.7979,2.734,2.6632,2.5974,2.5315,2.4612,2.3969,2.3595,2.3595,2.358,2.3295,2.2724,2.2709,2.2338,2.1695,2.1695,2.1695,2.168,2.1695,2.103,2.5678,2.6997,2.7899,2.5479,2.4206,2.3218,2.1711,2.0593,1.9814,1.9497,2.0272,2.0621,1.944,1.9695,2.0066,1.9859,1.9569,1.9432,0.0,0.0,0.0,0.0,2.4616,2.9378,0.0,0.0,3.2357,3.0593,3.0997,3.0968,3.0325,3.019,3.0633,3.1888,3.2114,3.2114,3.1926,3.2303,3.2303,3.1926,3.1926,3.1926,3.1926,3.1926,3.1926,3.1901,3.1348,3.1122,3.106,3.0344,3.0055,3.0043,2.9867,2.9792,2.9792,2.9792,2.9792,2.9792,2.9792,2.9792,2.9792,2.9792,2.9792,2.9792,2.9792,2.9792,2.9754,2.9566,2.9515,2.9566,2.9741,2.9792,2.9819,2.9923,3.0423,3.0997,3.1375,3.1632,3.1853,3.2184,3.184,3.1482,3.1482,3.1482,3.1482,3.1482,3.1482,3.1135,3.0013,2.9699,2.9146,2.8023,2.7745,2.7535,2.7275,2.6662,2.6183,2.5974,2.4926,2.4253,2.4253,2.3849,2.3505,2.331,2.331,2.3206,2.2996,2.2996,2.2787,2.2353,2.1904,2.1281,2.3378,2.4467,2.5322,2.3416,2.2746,2.2182,2.0795,2.0215,1.9846,1.9289,1.9845,2.0175,1.9455,1.9345,1.9501,1.9794,1.9713,1.9516,0.0,0.0,0.0,2.2491,0.0,0.0,0.0,3.3123,3.2219,2.9935,3.0453,3.0461,2.9804,2.9827,3.0093,3.0771,3.1323,3.1537,3.1386,3.1725,3.1725,3.1386,3.1386,3.1386,3.1386,3.1386,3.1386,3.1361,3.0834,3.062,0.0,3.0018,2.9792,2.9792,2.9792,2.9792,2.9792,2.9792,2.9792,2.9792,2.9792,2.9792,2.9792,2.9792,2.9792,2.9869,3.0203,3.0075,2.9792,2.9792,2.9641,2.9515,2.9729,2.9628,2.9528,2.9741,3.0279,3.0758,3.1106,3.1555,3.1957,3.2055,3.1982,3.1824,3.1511,3.1482,3.1482,3.1482,3.1482,3.124,3.0417,3.0088,2.9609,2.8771,2.8472,2.8233,2.7979,2.7111,2.6587,2.6587,2.5585,2.4836,2.4597,2.4223,2.3864,2.3595,2.3595,2.3595,2.3595,2.3595,2.34,2.3011,2.2607,2.2114,0.0,2.2089,2.254,2.254,2.2315,2.1921,2.105,2.0879,0.0,2.0417,1.9859,1.9568,2.0138,1.9001,1.8368,1.9656,1.9505,1.9402,0.0,1.9442,0.0,0.0,3.3087,0.0,3.3132,3.294,3.2013,2.9973,2.9824,2.9792,2.9792,2.9792,2.9792,2.9792,3.0281,3.0783,3.1273,3.1311,3.1311,3.1273,3.1273,3.1273,3.1273,3.1273,3.1273,3.1248,3.0771,3.0557,3.052,3.0005,2.9792,2.9792,2.9792,2.9792,2.9792,2.9792,2.9792,2.9792,2.9792,2.9792,2.9779,2.9819,2.9806,3.0012,3.0904,3.0519,2.9792,2.9856,2.9479,2.9114,2.9654,2.939,2.9126,2.9666,2.9792,3.0075,3.0895,3.1357,3.1667,3.1931,3.2335,3.2362,3.1601,3.1511,3.1526,3.1482,3.1482,3.1452,3.1407,3.0911,3.0492,3.0447,2.9924,2.934,2.8727,2.7485,2.6707,2.6662,2.6033,2.5405,2.4792,2.4627,2.4328,2.3684,2.3625,2.3595,2.3595,2.3595,2.3595,2.3595,2.3595,2.3295,2.1049,0.0,2.088,2.088,2.0702,2.048,0.0,1.9988,1.9609,1.9011,1.9302,1.9672,1.9823,1.9185,1.9248,2.0947,2.0768,2.0937,2.245,0.0,0.0,3.2591,3.3083,3.3123,3.3118,3.1529,3.035,2.9856,2.9824,2.9792,2.9792,2.9792,2.9792,2.9792,2.9917,3.0043,3.0168,3.0583,3.0583,3.0168,3.0168,3.0168,3.0168,3.0168,3.0168,3.0168,3.0043,2.9993,2.998,2.9842,2.9792,2.9792,2.9792,2.9792,2.9792,2.9792,2.9792,2.9792,2.9792,2.9792,2.9871,3.0054,3.0108,3.0241,3.1213,3.0716,2.9934,3.0696,3.024,2.9616,2.9754,2.9691,2.9616,2.9767,2.9792,2.9869,3.0075,3.0877,3.1447,3.1057,3.2231,3.2901,3.1676,3.1958,3.2108,3.1556,3.1482,3.1345,3.0806,3.0612,3.0313,2.9849,2.9669,2.952,2.937,2.8607,2.7904,2.743,2.6722,2.6288,2.6138,2.5166,2.4507,2.4388,2.3864,2.3595,2.3595,2.3595,2.3595,2.3595,2.3595,2.352,2.1118,2.0626,2.0392,2.0667,2.0436,2.013,2.0114,1.9952,1.9601,0.0,0.0,1.9331,1.963,1.902,1.899,2.0529,2.058,0.0,0.0,0.0,3.0646,3.2861,3.1322,3.0889,0.0,3.1133,2.9757,2.9766,2.9814,2.9792,2.9792,2.9792,2.9792,2.9792,2.9792,2.9792,2.9792,3.0093,3.0093,2.9792,2.9792,2.9792,2.9792,2.9792,2.9792,2.9792,2.9792,2.9792,2.9792,2.9792,2.9792,2.9792,2.9792,2.9792,2.9856,3.0279,3.0419,3.0419,3.0419,3.0419,3.0392,3.0228,3.0525,3.101,3.1985,3.1537,3.079,3.1602,3.1008,3.011,3.0355,3.0033,2.9776,3.029,3.0576,3.0742,3.1005,3.1932,3.2497,3.1893,3.2925,3.3529,3.2213,3.2273,3.2287,3.1571,3.1482,3.1405,3.1031,3.0971,3.0851,3.0507,3.0477,3.0357,3.0028,2.943,2.8757,2.8083,2.741,2.6901,2.6602,2.5615,2.4792,2.4163,2.3789,2.3595,2.3595,2.3595,2.3595,2.3595,2.3595,2.3595,2.1487,2.1034,2.0646,2.1058,2.0698,2.0299,2.033,0.0,0.0,0.0,0.0,0.0,1.9632,1.8849,0.0,0.0,0.0,0.0,2.3217,2.6883,3.0013,3.1872,2.9101,0.0,3.2201,3.0922,2.9829,2.9817,2.9792,2.9792,2.9792,2.9792,2.9792,2.9792,2.9792,2.9792,2.9792,2.9792,2.9792,2.9792,2.9792,2.9792,2.9792,2.9792,2.9792,2.9792,2.9792,2.9792,2.9792,2.9792,2.9792,2.9792,2.9792,2.9792,2.9934,3.0833,3.1106,3.0957,3.1,3.1109,3.1163,3.065,3.1015,3.1859,3.2958,3.2691,3.2179,3.2863,3.1908,3.0876,3.1269,3.0658,3.0179,3.115,3.1581,3.1916,3.2496,3.331,3.384,3.3249,3.3956,3.4188,3.2766,3.2602,3.2407,3.1644,3.1482,3.1482,3.1482,3.1482,3.1482,3.1482,3.1482,3.13,3.0717,3.0088,2.949,2.8921,2.8053,2.7275,2.6617,2.6048,2.5121,2.3789,2.3759,2.3699,2.3595,2.3595,2.3595,2.3595,2.3595,2.3595,2.2145,2.189,2.1476,2.0646,2.0345,2.0338,2.0781,2.0265,0.0,0.0,0.0,0.0,0.0,1.9128,1.8813,0.0,0.0,2.0593,0.0,0.0,2.71,2.7463,0.0,2.9542,3.0254,3.0043,2.9829,2.9817,2.9792,2.9792,2.9792,2.9792,2.9792,2.9792,2.9792,2.9792,2.9792,2.9792,2.9792,2.9792,2.9792,2.9792,2.9792,2.9792,2.9792,2.9792,2.9792,2.9792,2.9792,2.9792,2.9792,2.9792,2.9792,2.9792,2.9934,3.0833,3.0696,3.0075,3.0272,3.086,3.1598,3.1748,3.188,3.2321,3.3834,3.4203,3.4194,3.4875,3.3696,3.2283,3.2365,3.2256,3.216,3.2338,3.2382,3.2483,3.2579,3.331,3.384,3.3249,3.4339,3.4741,3.2841,3.2976,3.2931,3.1719,3.1482,3.1482,3.1482,3.1482,3.1482,3.1482,3.1482,3.1437,3.139,3.0746,3.0313,3.0208,2.8547,2.7275,2.6617,2.6497,2.5824,2.4448,2.4477,2.4178,2.3595,2.3595,2.3595,2.3595,2.3595,2.3595,2.2294,2.1504,2.073,2.0686,2.0579,2.0451,2.0413,2.004,1.9752,0.0,0.0,0.0,0.0,0.0,1.9409,1.9823,0.0,2.5574,2.6609,2.7617,2.8288,0.0,0.0,2.9777,2.9821,2.9764,2.9799,2.9804,2.9792,2.9792,2.9792,2.9792,2.9792,2.9792,2.9792,2.9792,2.9792,2.9792,2.9792,2.9792,2.9792,2.9792,2.9792,2.9792,2.9792,2.9792,2.9792,2.9792,2.9792,2.9792,2.9792,2.9792,2.9792,3.0139,3.0696,3.1609,3.1784,3.1487,3.1105,3.1351,3.1867,3.1647,3.2135,3.3004,3.3719,3.4188,3.4622,3.531,3.4476,3.338,3.338,3.3071,3.2915,3.3309,3.3482,3.3758,3.4119,3.4491,3.4751,3.4471,3.5005,3.51,3.3799,3.3529,3.317,3.2213,3.2063,3.1943,3.1526,3.1839,3.1928,3.1511,3.1482,3.1482,3.1482,3.0911,3.0208,2.952,2.8622,2.7664,2.6632,2.6587,2.5974,2.4612,2.4582,2.4283,2.3595,2.3595,2.3595,2.3595,2.3595,2.3595,2.2304,2.1323,2.038,2.0634,2.0445,2.0296,2.05,2.0348,2.036,0.0,0.0,0.0,0.0,2.0419,0.0,2.194,2.6473,2.9817,2.9797,2.9777,2.9826,2.9808,2.9796,2.9821,2.9767,2.9792,2.9792,2.9792,2.9792,2.9792,2.9792,2.9792,2.9792,2.9792,2.9792,2.9792,2.9792,2.9792,2.9792,2.9792,2.9792,2.9792,2.9792,2.9792,2.9792,2.9792,2.9792,2.9792,2.9792,2.9792,2.9934,3.0139,3.0139,3.0696,3.1583,3.1956,3.2625,3.3159,3.1873,3.1956,3.2556,3.2063,3.2706,3.3754,3.3918,3.4322,3.4831,3.5355,3.492,3.4327,3.4327,3.3978,3.3746,3.4211,3.4522,3.4861,3.5385,3.5504,3.5504,3.5504,3.5504,3.5295,3.4592,3.4053,3.3499,3.2841,3.2736,3.2497,3.1795,3.2198,3.2258,3.1541,3.1482,3.1482,3.1482,3.1046,3.0253,2.9116,2.8771,2.8143,2.7096,2.6901,2.6198,2.4836,2.4806,2.4448,2.3595,2.3595,2.3595,2.3595,2.3595,2.3595,2.2288,2.2209,2.175,2.0183,1.9266,1.9421,2.1925,2.1865,2.1952,2.4295,0.0,0.0,0.0,2.2395,2.4235,2.8369,2.9508,2.9783,2.9821,0.0,2.9781,2.9831,2.9831,2.9767,2.9792,2.9792,2.9792,2.9792,2.9792,2.9792,2.9792,2.9792,2.9792,2.9792,2.9792,2.9792,2.9792,2.9792,2.9792,2.9792,2.9792,2.9792,2.9792,2.9792,2.9792,2.9792,2.9792,2.9792,2.9792,2.9792,3.0279,3.1106,3.1106,3.1669,3.2324,3.1021,3.1983,3.3647,3.1593,3.2362,3.4334,3.4274,3.4367,3.4517,3.5175,3.5385,3.5444,3.5489,3.5439,3.5359,3.5359,3.5329,3.5365,3.5344,3.5394,3.5444,3.5489,3.5504,3.5504,3.5504,3.5504,3.5295,3.4592,3.4442,3.4188,3.3529,3.3425,3.3185,3.2527,3.2482,3.2258,3.1541,3.1482,3.1482,3.1482,3.1437,3.115,3.0417,2.925,2.8562,2.8457,2.7844,2.6886,2.5555,2.554,2.4896,2.3595,2.3595,2.3595,2.3595,2.3595,2.3595,2.2296,2.3069,2.3326,2.0881,2.0272,2.0196,0.0,2.2055,2.4257,2.4801,2.4954,0.0,0.0,0.0,2.6207,2.9318,2.9797,2.9806,2.9806,2.9792,2.9792,2.9792,2.9792,2.9792,2.9792,2.9792,2.9792,2.9792,2.9792,2.9792,2.9792,2.9792,2.9792,2.9792,2.9792,2.9792,2.9792,2.9792,2.9792,2.9792,2.9792,2.9792,2.9792,2.9792,2.9792,2.9792,2.9792,2.9792,2.9767,2.9402,2.9669,3.0419,3.1609,3.2321,3.2508,3.2003,3.2887,3.4002,3.2008,3.2419,3.3858,3.3858,3.4143,3.4532,3.4786,3.516,3.5504,3.5504,3.5504,3.5504,3.5504,3.5504,3.5504,3.5504,3.5504,3.5504,3.5504,3.5504,3.5504,3.5504,3.5504,3.5429,3.516,3.4756,3.4382,3.4143,3.4098,3.3724,3.2647,3.2871,3.2721,3.1644,3.1482,3.1482,3.1482,3.1482,3.1362,3.1165,2.9924,2.9026,2.8622,2.8323,2.7567,2.6243,2.6503,2.6231,2.5415,2.4514,2.433,2.4787,2.4787,2.4359,2.1123,2.2443,2.3432,2.2442,2.2102,2.1639,2.0274,2.2663,2.5353,2.604,2.6294,2.589,2.4166,0.0,0.0,0.0,2.9654,2.977,2.9767,2.9792,2.9792,2.9792,2.9792,2.9792,2.9792,2.9781,2.9795,2.9795,2.977,2.9834,2.9782,2.9795,2.9756,2.9792,2.9792,2.9704,2.9414,2.9503,2.9515,2.9515,2.9515,2.9616,2.9779,2.9603,2.9616,2.9779,2.9961,2.9948,2.9922,2.9786,2.9895,3.0264,3.1752,3.2317,3.2317,3.2317,3.3161,3.4118,3.2599,3.3013,3.4128,3.4128,3.4442,3.4801,3.4801,3.513,3.5504,3.5504,3.5504,3.5504,3.5504,3.5504,3.5504,3.5504,3.5504,3.5504,3.5504,3.5504,3.5504,3.5504,3.5504,3.5504,3.5504,3.5115,3.4801,3.4801,3.4801,3.4397,3.3275,3.335,3.2991,3.1616,3.1482,3.1482,3.1482,3.1482,3.1582,3.1853,3.0588,2.9687,2.9221,2.8762,2.8091,2.721,2.7466,2.7264,2.6455,2.5717,2.5482,2.5748,2.5748,2.5399,1.86,1.9984,2.1746,2.4795,0.0,0.0,2.3974,2.3986,2.4927,2.8454,2.955,2.9627,2.9086,2.7617,0.0,2.8428,2.933,2.9779,2.9779,2.9779,2.9779,2.9779,2.9779,2.9779,2.9779,2.9796,2.9819,2.9744,2.9735,2.977,2.9794,2.9757,2.9834,2.9779,2.9779,2.9401,2.87,2.8825,2.8925,2.8925,2.8925,2.9227,2.9767,2.9189,2.9239,2.9819,3.0259,3.0336,3.0309,3.1208,3.1268,3.0853,3.1529,3.1833,3.1833,3.1833,3.2774,3.3926,3.3374,3.4229,3.5504,3.5504,3.5504,3.5504,3.5504,3.5504,3.5504,3.5504,3.5504,3.5504,3.5504,3.5504,3.5489,3.5504,3.5504,3.5489,3.5504,3.5504,3.5504,3.5504,3.5504,3.5504,3.5504,3.5504,3.5504,3.5504,3.5504,3.525,3.4562,3.3888,3.2976,3.1616,3.1482,3.1482,3.1539,3.1539,3.1796,3.2532,3.1298,3.0522,3.0521,2.9239,2.8497,2.8421,2.8405,2.7731,2.635,2.7065,2.7049,2.635,2.635,2.6703,1.9427,2.0559,0.0,2.2401,0.0,0.0,0.0,2.4668,0.0,0.0,2.9714,2.9406,2.8229,2.8048,0.0,2.8219,2.8773,2.9189,2.9189,2.9189,2.9164,2.9037,2.9011,2.9236,2.9764,2.9761,2.9132,2.7607,2.7471,2.7458,2.7484,2.8975,2.9555,2.905,2.905,2.8975,2.8825,2.8536,2.8348,2.8348,2.8348,2.8649,2.9176,2.9001,2.916,2.9561,2.9665,2.9997,3.0527,3.0788,3.0581,3.0232,3.1505,3.2008,3.2008,3.2008,3.3028,3.4248,3.3376,3.4164,3.5504,3.5504,3.5504,3.5504,3.5504,3.5504,3.5504,3.5504,3.5504,3.5504,3.5504,3.5145,3.4906,3.5385,3.513,3.4921,3.54,3.5504,3.5504,3.5504,3.5504,3.5504,3.5504,3.5504,3.5504,3.5504,3.5504,3.51,3.3933,3.2811,3.1958,3.1511,3.1482,3.1682,3.2231,3.2272,3.2586,3.3235,3.2009,3.1202,3.1195,3.0339,2.9593,2.9102,2.9428,2.9433,2.9115,2.8338,2.8109,2.8403,2.8403,2.8022,1.9353,2.0019,0.0,2.1317,2.2703,2.4369,2.5675,0.0,0.0,0.0,2.9826,2.9332,2.7868,2.8219,0.0,2.8182,2.8386,2.8687,2.89,2.8737,2.8499,2.8283,2.8245,2.8344,2.848,2.8511,2.7918,2.6577,2.649,2.6478,2.6541,2.8072,2.8746,2.8251,2.8375,2.8387,2.8285,2.7946,2.777,2.777,2.777,2.8151,2.8733,2.8733,2.8944,2.9451,2.9875,3.0571,3.129,3.0712,3.0261,3.0059,3.087,3.1433,3.1781,3.1976,3.2928,3.405,3.378,3.4277,3.5145,3.5415,3.5504,3.5459,3.5175,3.51,3.504,3.4771,3.4891,3.504,3.4771,3.4592,3.4651,3.534,3.4981,3.4592,3.5011,3.51,3.51,3.51,3.4891,3.4876,3.5415,3.528,3.519,3.5459,3.5718,3.5563,3.4471,3.3671,3.3059,3.2798,3.2521,3.2516,3.2933,3.2986,3.3287,3.3937,3.2932,3.2305,3.2269,3.1063,3.0287,3.0123,3.0403,3.0443,3.0225,2.9665,2.9449,2.9615,2.9615,2.9357,1.8747,1.8842,0.0,2.1272,2.3211,0.0,2.6986,2.8152,2.8959,2.9618,0.0,2.9377,2.8006,2.8257,2.851,2.8157,2.8109,2.826,2.8712,2.8298,2.7823,2.7491,2.7356,2.7112,2.6542,2.6522,2.6491,2.6482,2.6534,2.6483,2.647,2.7231,2.7616,2.7543,2.7898,2.7795,2.7293,2.7231,2.7205,2.7205,2.7205,2.7659,2.8407,2.846,2.8887,2.9531,3.065,3.164,3.2318,3.0951,3.0389,3.0387,3.0059,3.0446,3.1271,3.1815,3.2654,3.3589,3.4188,3.4472,3.4666,3.5295,3.5504,3.537,3.4681,3.4472,3.4352,3.3754,3.4008,3.4352,3.3814,3.4083,3.4637,3.5265,3.4936,3.4472,3.4472,3.4472,3.4472,3.4472,3.3948,3.3918,3.5265,3.4876,3.4685,3.5424,3.6073,3.6274,3.5711,3.5584,3.5342,3.4675,3.4018,3.3633,3.3684,3.3684,3.3987,3.464,3.4071,3.3615,3.3516,3.1549,3.0692,3.119,3.119,3.0869,3.0209,3.0869,3.0852,3.0209,3.0209,3.0565,1.8805,1.9134,0.0,0.0,2.4926,2.7787,2.884,3.0382,3.1137,2.9518,2.9375,2.9408,2.9073,2.86,2.8205,2.8097,2.8109,2.7996,2.7682,2.7155,2.6628,2.6083,2.567,2.5686,2.6443,2.6483,2.6509,2.6527,2.6536,2.6485,2.6483,2.7175,2.7549,2.7347,2.7444,2.7406,2.7281,2.6854,2.664,2.664,2.664,2.7084,2.7854,2.8289,2.9091,3.0148,3.1041,3.1559,3.1676,3.1395,3.1219,3.1234,3.1176,3.1235,3.1442,3.1575,3.2407,3.3514,3.3664,3.4397,3.531,3.5459,3.5504,3.537,3.4681,3.4472,3.4442,3.4307,3.4367,3.4562,3.4966,3.4786,3.4517,3.4666,3.4577,3.4472,3.4472,3.4472,3.4472,3.4472,3.3948,3.3918,3.5265,3.4502,3.415,3.5385,3.5704,3.5798,3.5681,3.5256,3.4659,3.3886,3.3678,3.3836,3.4333,3.4382,3.4688,3.5362,3.4717,3.4292,3.4269,3.2752,3.1696,3.1207,3.119,3.1123,3.0954,3.1123,3.1123,3.0954,3.0954,3.1055,1.8291,0.0,0.0,2.2723,0.0,2.766,2.8715,2.9765,3.0338,2.9793,3.0263,3.0364,2.9207,2.8417,2.7864,2.7742,2.7256,2.6904,2.6892,2.6402,2.5837,2.5285,2.4983,2.4946,2.5416,2.6103,2.6077,2.495,2.5864,2.6503,2.647,2.6875,2.7049,2.6929,2.6943,2.6892,2.6892,2.6672,2.6519,2.6629,2.6629,2.7249,2.8463,2.9118,2.9924,3.0896,3.1351,3.1482,3.1482,3.1482,3.1482,3.1482,3.1482,3.1482,3.1482,3.1482,3.1958,3.2647,3.3275,3.3963,3.4651,3.5295,3.5504,3.531,3.4307,3.4233,3.4352,3.3709,3.3978,3.4487,3.4532,3.4756,3.4801,3.4158,3.4247,3.4307,3.3664,3.3784,3.3918,3.3589,3.326,3.3455,3.4786,3.4967,3.5217,3.5966,3.6711,3.7199,3.7232,3.697,3.647,3.5745,3.535,3.5101,3.5085,3.5098,3.5207,3.5577,3.525,3.4709,3.3998,3.3275,3.2512,3.1732,3.1376,3.119,3.119,3.119,3.119,3.119,3.119,3.119,1.777,0.0,2.0248,2.3296,2.5113,0.0,2.7599,2.8105,2.8691,2.9799,3.0748,3.0906,2.8984,2.8066,2.7459,2.71,2.6253,2.581,2.6168,2.5686,2.5159,2.4732,2.4594,2.4379,2.4137,2.5167,2.5154,2.3224,2.4847,2.5872,2.5936,2.6127,2.6279,2.6488,2.6489,2.6468,2.6473,2.6473,2.6593,2.6821,2.696,2.7755,2.9116,3.0,3.0793,3.1482,3.1482,3.1482,3.1482,3.1482,3.1482,3.1482,3.1482,3.1482,3.1482,3.1482,3.1541,3.1884,3.308,3.3574,3.3844,3.4966,3.5415,3.5235,3.3769,3.3858,3.4203,3.2886,3.338,3.4203,3.3784,3.4412,3.4876,3.3754,3.3903,3.3978,3.2766,3.2946,3.32,3.2766,3.2871,3.326,3.4008,3.5383,3.6461,3.6627,3.7809,3.8767,3.892,3.8958,3.8667,3.7804,3.7144,3.6468,3.569,3.5622,3.5622,3.5622,3.5622,3.5064,3.3846,3.3541,3.3119,3.2493,3.163,3.119,3.119,3.119,3.119,3.119,3.119,3.119,1.8067,0.0,2.1247,0.0,2.4328,2.5756,0.0,0.0,2.8472,0.0,2.8393,2.8914,2.918,2.8056,2.6884,2.6185,2.5942,2.5638,2.5086,2.4569,2.418,2.4117,2.3665,2.3281,2.3243,2.3454,2.3455,2.314,2.3413,2.3564,2.3527,2.4474,2.5485,2.6505,2.6492,2.6479,2.6519,2.6506,2.6596,2.6835,2.7689,2.8211,2.8469,2.9864,3.0842,3.1482,3.1482,3.1482,3.1482,3.1482,3.1482,3.1482,3.1482,3.1482,3.1482,3.1482,3.1898,3.2497,3.3245,3.3858,3.4382,3.4562,3.5026,3.5145,3.323,3.3499,3.4203,3.2886,3.3051,3.3739,3.4218,3.4053,3.3724,3.3544,3.3559,3.3425,3.2677,3.2587,3.2781,3.3275,3.4307,3.4607,3.3051,3.434,3.5934,3.6673,3.7463,3.8219,3.8891,3.8989,3.8464,3.7077,3.684,3.6468,3.569,3.5622,3.5622,3.5622,3.5622,3.5537,3.5334,3.4083,3.3355,3.3271,3.1901,3.119,3.119,3.119,3.119,3.119,3.119,3.119,1.7955,1.8758,1.9863,0.0,2.2503,2.361,2.4328,2.5465,2.6393,2.6452,2.6618,2.717,2.8483,2.7911,2.7127,2.6633,2.6109,2.5681,2.537,2.4813,2.4221,2.354,2.3288,2.3125,2.3075,2.3113,2.3097,2.3081,2.3115,2.3128,2.3076,2.3611,2.4067,2.4589,2.4574,2.4574,2.4589,2.6264,2.7134,2.7258,2.7717,2.8075,2.8527,2.952,3.0163,3.0477,3.121,3.1315,3.0986,3.1375,3.1482,3.1482,3.1482,3.1482,3.1482,3.1482,3.1943,3.2557,3.2841,3.338,3.3978,3.4352,3.4442,3.4218,3.3335,3.3724,3.4203,3.2886,3.3529,3.4592,3.4502,3.4262,3.3948,3.3589,3.3499,3.332,3.2662,3.2811,3.3155,3.344,3.3679,3.3664,3.3155,3.4137,3.5322,3.6032,3.7118,3.8166,3.8833,3.9362,3.9039,3.7567,3.7415,3.6924,3.5723,3.5622,3.5622,3.5622,3.5622,3.5419,3.5013,3.4353,3.3829,3.3406,3.1952,3.119,3.119,3.119,3.119,3.119,3.119,3.119,0.0,0.0,1.8531,1.9758,2.0587,2.1377,0.0,0.0,2.4073,0.0,2.5136,2.5768,2.7205,2.7341,2.7198,2.7159,2.6623,2.6059,2.5706,2.4879,2.4038,2.3229,2.3072,2.3111,2.3071,2.3102,2.3084,2.3124,2.3188,2.3497,2.4229,2.424,2.4266,2.4266,2.4247,2.4268,2.4221,2.6452,2.7567,2.7613,2.7617,2.7839,2.8368,2.9026,2.9235,2.9146,3.0462,3.0836,3.0537,3.0881,3.124,3.1452,3.1345,3.1375,3.1482,3.1482,3.1943,3.2512,3.2512,3.2946,3.3544,3.3873,3.3754,3.344,3.3095,3.3574,3.3948,3.2632,3.3469,3.4622,3.4113,3.3978,3.3903,3.3574,3.3499,3.3365,3.2871,3.3155,3.3499,3.3499,3.3095,3.2916,3.341,3.4151,3.4827,3.5313,3.6854,3.8122,3.8611,3.9493,3.9512,3.8075,3.7905,3.7297,3.574,3.5622,3.5622,3.5622,3.5622,3.5368,3.4793,3.459,3.4235,3.3694,3.2408,3.1765,3.1765,3.1376,3.1292,3.1461,3.1275,3.119,0.0,1.7789,0.0,1.8329,1.8838,1.9596,0.0,0.0,2.2039,2.2697,2.3819,2.4762,2.5092,2.5821,2.6614,2.7461,2.7542,2.7032,2.5578,2.4124,2.3187,2.3141,2.3083,2.3129,2.3076,2.3106,2.3099,2.3084,2.3402,2.4682,2.7244,2.7389,2.7396,2.7396,2.7354,2.7348,2.738,2.7524,2.761,2.7619,2.7599,2.7614,2.7649,2.8338,2.8293,2.7805,2.9101,2.9998,3.0462,2.9909,3.0417,3.1407,3.0806,3.0956,3.1482,3.1482,3.1943,3.2512,3.2512,3.2946,3.3395,3.2811,3.3021,3.326,3.2018,3.2527,3.3275,3.1958,3.2108,3.2662,3.2617,3.2617,3.2766,3.3365,3.3499,3.3484,3.3455,3.3469,3.3499,3.3499,3.3469,3.3455,3.3484,3.407,3.4575,3.4728,3.6511,3.7875,3.8035,3.926,3.9512,3.8075,3.7905,3.7297,3.574,3.5622,3.5622,3.5622,3.5622,3.5605,3.5554,3.4878,3.4472,3.4438,3.3677,3.3288,3.3288,3.1884,3.1546,3.2246,3.1512,3.119,0.0,0.0,0.0,1.7908,1.7954,1.8192,1.8938,1.9778,2.0468,2.0707,2.1814,2.3008,2.3927,2.5319,2.6617,2.7461,2.761,2.741,2.6891,2.4652,2.2572,2.1131,2.1006,2.0983,2.0991,2.0989,2.0978,2.0991,2.2615,2.4765,2.744,2.7625,2.762,2.762,2.762,2.76,2.758,2.7588,2.6762,2.5063,2.6777,2.7618,2.7625,2.7829,2.785,2.7655,2.8135,2.8667,2.9325,2.9924,3.0447,3.0896,3.1091,3.1315,3.1482,3.1482,3.1943,3.2452,3.2033,3.2317,3.2826,3.2587,3.2392,3.2302,3.2677,3.2826,3.2856,3.2811,3.2961,3.3245,3.3664,3.3455,3.3305,3.3963,3.4128,3.4247,3.4696,3.4442,3.4128,3.4128,3.3784,3.3365,3.2946,3.3863,3.4315,3.3408,3.5959,3.7574,3.661,3.86,3.9326,3.7398,3.8041,3.7787,3.5791,3.6079,3.6146,3.5656,3.5622,3.5622,3.5622,3.5368,3.5216,3.5216,3.4032,3.3169,3.2679,3.2154,3.1782,3.1596,3.1799,3.1647,1.7068,0.0,0.0,0.0,1.7205,1.6983,1.7742,1.8155,1.8587,1.9226,2.0243,2.13,2.2144,2.4,2.556,2.6138,2.6244,2.6236,2.6285,2.3784,2.1459,1.9951,1.9806,1.98,1.9793,1.9805,1.9781,1.981,2.1382,2.3483,2.6131,2.6255,2.6287,2.6287,2.713,2.7592,2.7588,2.7588,2.6251,2.3653,2.5875,2.7182,2.759,2.7355,2.7415,2.7625,2.7625,2.8083,2.8981,2.9609,3.0253,3.0866,3.1106,3.133,3.1482,3.1482,3.1943,3.2422,3.1706,3.1958,3.2482,3.2258,3.1884,3.1704,3.2572,3.2677,3.2557,3.2781,3.3155,3.3559,3.3875,3.3858,3.3993,3.4666,3.504,3.5273,3.5453,3.4976,3.4472,3.4472,3.3985,3.347,3.3273,3.4222,3.4691,3.3767,3.6053,3.76,3.6615,3.8168,3.887,3.7652,3.7956,3.7635,3.6129,3.6248,3.6163,3.5656,3.5622,3.5622,3.5622,3.5622,3.5622,3.5622,3.4658,3.366,3.2662,3.2154,3.1918,3.1935,3.1918,3.1664,0.0,0.0,0.0,0.0,0.0,0.0,1.7052,0.0,1.6368,1.8253,1.9166,1.9647,1.9662,2.1765,2.3478,2.3482,2.3539,2.362,2.3575,2.1462,1.9862,1.9836,1.9784,1.9781,1.9784,1.9786,1.9775,1.9797,1.9782,2.0895,2.3435,2.3591,2.3609,2.3609,2.6105,2.7496,2.7488,2.7488,2.618,2.3638,2.4896,2.6259,2.7534,2.6913,2.6946,2.7625,2.7625,2.8323,2.949,2.8861,2.9744,3.139,3.0746,3.0896,3.1437,3.1437,3.1913,3.2392,3.1764,3.1958,3.2377,3.1676,3.1482,3.1482,3.1497,3.2003,3.2392,3.1735,3.2527,3.338,3.2931,3.3681,3.473,3.5404,3.6117,3.6429,3.5734,3.5079,3.455,3.4535,3.4042,3.3857,3.4612,3.5331,3.5796,3.577,3.6938,3.7854,3.7942,3.7903,3.8176,3.8853,3.7652,3.6789,3.6755,3.6079,3.5639,3.5622,3.5622,3.5622,3.5622,3.5622,3.5622,3.5622,3.5605,3.4878,3.344,3.2002,3.2002,3.3305,3.1867,3.1207,1.6617,0.0,0.0,0.0,0.0,0.0,1.6929,0.0,1.6967,1.7208,1.7772,1.835,1.8708,1.9869,2.0764,2.0799,2.2375,2.358,2.3599,2.2976,2.1842,2.0038,1.9826,1.9813,1.9786,1.9813,1.9787,1.9826,1.9804,2.0921,2.3464,2.3596,2.3615,2.3615,2.4311,2.4698,2.4716,2.4716,2.4322,2.3576,2.3996,2.5012,2.6666,2.6464,2.6822,2.7625,2.7625,2.7801,2.821,2.9019,2.9433,2.9687,3.0102,3.0483,3.0791,3.0791,3.1225,3.1779,3.1541,3.1601,3.1779,3.1541,3.1482,3.1556,3.2093,3.2362,3.2677,3.344,3.3589,3.3574,3.3965,3.5032,3.6091,3.6229,3.6935,3.7393,3.7218,3.6995,3.6557,3.5431,3.5998,3.6316,3.5494,3.6862,3.7346,3.5326,3.7114,3.8087,3.6538,3.725,3.777,3.7432,3.7516,3.7144,3.6045,3.6265,3.6214,3.5656,3.5622,3.5622,3.5622,3.5622,3.5622,3.5622,3.5081,3.459,3.4184,3.3778,3.2966,3.1799,3.1376,3.1478,0.0,0.0,0.0,0.0,0.0,0.0,1.6606,1.6541,1.6514,0.0,1.701,1.7458,1.8022,1.85,1.9057,1.9617,2.0963,2.1969,2.1993,2.2003,2.1481,1.9956,1.9819,1.9813,1.9813,1.9811,1.942,1.8474,1.9294,2.0928,2.3479,2.3615,2.3595,2.3595,2.3985,2.4,2.36,2.4164,2.4163,2.3596,2.3629,2.4146,2.5173,2.5738,2.6568,2.7625,2.7625,2.7614,2.7654,2.8426,2.8951,2.9229,2.9729,3.0148,3.0421,3.0806,3.118,3.1482,3.1482,3.1482,3.1482,3.1482,3.1482,3.1541,3.1988,3.2482,3.3141,3.4105,3.4361,3.4512,3.5214,3.5968,3.6599,3.6664,3.7227,3.7663,3.7009,3.7411,3.7465,3.6253,3.7013,3.7415,3.6286,3.7703,3.8382,3.6748,3.7937,3.8503,3.7252,3.7278,3.7381,3.7263,3.7077,3.6721,3.6146,3.6214,3.6096,3.5639,3.5622,3.5622,3.5622,3.5622,3.5622,3.5622,3.5182,3.4962,3.4962,3.4336,3.322,3.1664,3.1968,3.2019,0.0,0.0,0.0,0.0,0.0,0.0,1.6258,1.5883,1.5729,0.0,1.6607,1.6786,1.7369,1.7503,1.7887,1.9055,1.9258,1.9383,1.9662,1.9753,1.9773,1.98,1.9794,1.9762,1.968,1.9615,1.8694,1.667,1.8456,2.0724,2.3254,2.3511,2.358,2.3593,2.4402,2.4447,2.361,2.4776,2.4776,2.3595,2.3595,2.3615,2.3656,2.4843,2.6183,2.7585,2.7585,2.76,2.758,2.758,2.8299,2.9385,2.9381,2.9692,3.0317,3.1063,3.1407,3.1482,3.1482,3.1482,3.1482,3.1482,3.1482,3.1482,3.1482,3.2452,3.3652,3.4287,3.5003,3.5798,3.6538,3.6674,3.6664,3.6821,3.7362,3.7444,3.6158,3.6933,3.7718,3.7059,3.7469,3.7725,3.7131,3.8204,3.9089,3.9005,3.8988,3.8954,3.8886,3.7652,3.7043,3.7719,3.6485,3.5893,3.6586,3.6011,3.5622,3.5622,3.5622,3.5622,3.5622,3.5622,3.5622,3.5622,3.5622,3.5622,3.5622,3.4134,3.3102,3.2584,3.3051,3.2577,0.0,0.0,0.0,0.0,0.0,0.0,1.6585,1.6611,1.673,0.0,1.5964,1.6038,1.6158,1.6172,1.6256,1.6527,1.6568,1.7301,1.9383,1.972,1.9738,1.9726,1.9795,1.9637,1.8995,1.8388,1.7601,1.6563,1.7777,1.956,2.1928,2.3025,2.3591,2.3591,2.3784,2.3774,2.3595,2.3848,2.3848,2.3595,2.3595,2.3614,2.3595,2.3878,2.53,2.7576,2.7576,2.7603,2.7606,2.7606,2.773,2.7993,2.7965,2.8896,3.0223,3.0362,3.0914,3.1482,3.1482,3.1482,3.1482,3.1482,3.1482,3.1482,3.1482,3.2452,3.3893,3.5646,3.6279,3.6622,3.7356,3.711,3.6857,3.742,3.7768,3.7814,3.7528,3.7691,3.7843,3.7701,3.8254,3.8723,3.852,3.9241,3.9665,3.9089,3.8988,3.8785,3.8193,3.7347,3.684,3.6992,3.618,3.5673,3.5825,3.5707,3.5622,3.5622,3.5622,3.5622,3.5622,3.5622,3.5622,3.5622,3.5622,3.5622,3.5622,3.4134,3.3626,3.4032,3.2983,3.2341,0.0,0.0,0.0,1.7577,0.0,0.0,0.0,1.6671,1.6699,1.6337,1.5994,1.5918,1.6353,1.6083,1.5795,1.5795,1.5808,1.626,1.7578,1.831,1.8812,1.9006,1.8975,1.8732,1.8188,1.783,1.7264,1.6558,1.7568,1.8972,2.0757,2.1859,2.2683,2.316,2.3456,2.3595,2.3595,2.3595,2.3595,2.3595,2.3595,2.3584,2.3598,2.3598,2.434,2.5615,2.5615,2.5622,2.5741,2.7052,2.7584,2.7604,2.7595,2.8547,2.9977,3.0584,3.0863,3.0929,3.1332,3.1482,3.1482,3.1482,3.1482,3.1482,3.1482,3.2417,3.3842,3.5607,3.6115,3.6398,3.7494,3.7535,3.7461,3.8219,3.8336,3.8072,3.7466,3.7445,3.7597,3.7855,3.8497,3.8873,3.8488,3.9362,3.9834,3.9106,3.9292,3.914,3.8041,3.7584,3.7195,3.6823,3.6079,3.5774,3.6163,3.5842,3.5622,3.5622,3.5622,3.5622,3.5622,3.5622,3.5622,3.5622,3.5622,3.5622,3.5622,3.4878,3.4506,3.4472,3.3728,3.3186,0.0,0.0,0.0,0.0,0.0,1.7593,0.0,0.0,0.0,1.6878,1.6518,1.6383,1.709,1.6439,1.5886,1.6127,1.6388,1.6375,1.5857,1.6694,1.7548,1.8209,1.7985,1.7728,1.7409,1.7179,1.6948,1.6658,1.7316,1.8331,1.9722,2.0471,2.1368,2.2473,2.3068,2.3443,2.3595,2.3593,2.3593,2.3595,2.3595,2.3599,2.3614,2.3614,2.3582,2.3603,2.3603,2.3605,2.3832,2.6501,2.7588,2.7604,2.7595,2.8241,2.9395,3.0739,3.0814,3.035,3.1195,3.148,3.1554,3.2137,3.2205,3.2042,3.2061,3.2977,3.4203,3.5623,3.6039,3.6372,3.7672,3.7928,3.8,3.8604,3.8495,3.7967,3.7022,3.6801,3.6971,3.7567,3.8278,3.8684,3.8379,3.9292,3.9834,3.9106,3.9495,3.9343,3.7872,3.7702,3.7398,3.6637,3.5994,3.5876,3.6502,3.5977,3.5622,3.5622,3.5622,3.5622,3.5622,3.5622,3.5622,3.5622,3.5622,3.5622,3.5622,3.5622,3.5301,3.4709,3.4556,3.4143,0.0,0.0,0.0,0.0,1.8661,0.0,0.0,0.0,1.8257,1.7715,0.0,1.7503,1.7625,0.0,0.0,1.7296,1.8482,1.8452,1.6126,1.5921,1.6448,1.7651,1.7432,1.707,1.6661,1.5776,1.5716,1.7005,1.6424,1.6881,1.892,1.9239,2.0126,2.1744,2.2244,2.2832,2.3595,2.3583,2.3583,2.3595,2.3595,2.3625,2.3611,2.3611,2.3583,2.3612,2.3612,2.3599,2.3797,2.6516,2.7616,2.7604,2.7595,2.7705,2.8024,2.9739,3.0391,3.0552,3.1268,3.1486,3.189,3.432,3.459,3.4026,3.4202,3.482,3.5742,3.7134,3.7567,3.7799,3.8638,3.84,3.7928,3.7976,3.7483,3.6988,3.6852,3.6248,3.5994,3.6755,3.7516,3.8413,3.9631,3.9969,3.9834,3.9106,3.9056,3.8582,3.7094,3.6907,3.6603,3.5825,3.5673,3.5656,3.574,3.5673,3.5622,3.5622,3.5622,3.5622,3.5622,3.5622,3.5622,3.5622,3.5622,3.5622,3.5622,3.5622,3.5571,3.547,3.4793,3.4337,0.0,0.0,0.0,0.0,0.0,0.0,1.8116,0.0,1.8164,0.0,0.0,0.0,0.0,0.0,0.0,0.0,1.5765,1.5814,1.7784,1.6756,1.6009,1.6527,1.7334,1.7582,1.6903,1.586,1.5504,1.614,1.5873,1.6237,1.7451,1.8535,1.9765,2.1193,2.2419,2.2987,2.2861,2.334,2.3618,2.3595,2.3595,2.3595,2.3595,2.3595,2.3595,2.361,2.3614,2.3596,2.38,2.6494,2.7576,2.759,2.7607,2.7601,2.7794,2.9574,3.0243,3.0448,3.1246,3.1539,3.1992,3.4723,3.5024,3.4403,3.5002,3.5399,3.591,3.6919,3.753,3.8075,3.8802,3.8447,3.8125,3.8971,3.8489,3.7887,3.8038,3.7682,3.7509,3.7956,3.8667,3.936,3.9969,4.007,3.9969,3.9665,3.9259,3.8616,3.7567,3.7043,3.6654,3.6332,3.5893,3.5808,3.6265,3.5876,3.5622,3.5622,3.5622,3.5622,3.5622,3.5622,3.5622,3.5622,3.5622,3.5622,3.5622,3.5622,3.5622,3.5605,3.5617,3.5528,1.9459,0.0,0.0,0.0,0.0,0.0,0.0,0.0,0.0,0.0,0.0,0.0,0.0,0.0,1.7492,1.6495,0.0,1.4228,1.8095,1.6997,1.607,1.6769,1.7427,1.7534,1.6796,1.5815,1.5349,1.5631,1.5647,1.5942,1.6665,1.7923,1.921,2.0575,2.1895,2.2596,2.264,2.3121,2.343,2.3595,2.3595,2.3595,2.3595,2.3595,2.3595,2.361,2.3615,2.404,2.487,2.6796,2.7584,2.7575,2.7614,2.7829,2.8312,2.9546,3.0051,3.0202,3.147,3.2222,3.3013,3.4982,3.5151,3.4759,3.5424,3.5787,3.6154,3.6915,3.7635,3.8328,3.8853,3.8751,3.8717,3.958,3.9251,3.8768,3.8952,3.8664,3.8526,3.8903,3.9377,3.9783,4.0037,4.007,4.0104,4.012,3.9662,3.8901,3.7824,3.7364,3.7009,3.6806,3.6282,3.6079,3.6434,3.5943,3.5622,3.5622,3.5622,3.5622,3.5622,3.5622,3.5622,3.5622,3.5622,3.5622,3.5622,3.5622,3.5667,3.581,3.6224,3.6336,0.0,1.9332,0.0,1.893,0.0,0.0,0.0,0.0,1.945,0.0,0.0,0.0,0.0,0.0,0.0,1.7868,1.6518,0.0,0.0,1.5831,1.6723,1.9276,1.7619,1.6149,1.5861,1.5053,1.4974,1.6,1.5708,1.6021,1.722,1.7325,1.814,1.9886,1.9984,2.1156,2.3527,2.3002,2.3011,2.3595,2.3595,2.3595,2.3595,2.3595,2.3595,2.361,2.3615,2.5046,2.7472,2.754,2.7584,2.7604,2.758,2.8405,2.9546,2.9597,2.9594,2.9907,3.2089,3.402,3.5479,3.5557,3.5609,3.5532,3.5594,3.6134,3.6924,3.7669,3.8396,3.8954,3.8988,3.9495,3.9834,3.9191,3.8988,3.8971,3.8988,3.843,3.8142,3.8853,3.8804,3.8973,3.9918,4.007,4.012,4.0099,4.0065,3.9338,3.7391,3.7557,3.7584,3.6857,3.6755,3.6451,3.5723,3.5639,3.5622,3.5622,3.5622,3.5622,3.5622,3.5622,3.5622,3.5622,3.5622,3.5622,3.5622,3.5622,3.5854,3.6374,3.6374,3.6225,1.9459,1.9566,1.9442,1.9442,1.9566,1.9639,1.9479,0.0,0.0,0.0,0.0,0.0,0.0,0.0,1.9031,1.9041,1.7204,1.5797,0.0,1.6293,1.7194,1.8663,0.0,0.0,1.6412,1.5471,1.4921,1.5048,1.5327,1.5579,1.571,1.6741,1.7949,1.9332,2.0153,2.1354,2.2972,2.3188,2.3385,2.3595,2.3595,2.3595,2.361,2.3585,2.3585,2.3615,2.3612,2.5132,2.7603,2.7584,2.7604,2.7617,2.7617,2.8959,3.0746,2.955,2.9559,3.0518,3.261,3.4053,3.5011,3.5471,3.5605,3.5622,3.5622,3.6518,3.7584,3.7838,3.8768,3.9715,3.9715,3.9529,3.9411,3.9648,3.8971,3.8531,3.9512,3.914,3.8853,3.9563,3.9648,3.9715,4.002,4.007,4.0104,4.0103,4.0097,3.96,3.8289,3.7657,3.7041,3.6096,3.6011,3.591,3.5639,3.5622,3.5622,3.5622,3.5622,3.5622,3.5622,3.5622,3.5622,3.5622,3.5622,3.5622,3.5622,3.5622,3.5694,3.5898,3.6603,3.7031,1.951,1.969,1.969,1.969,1.969,1.969,1.969,1.969,1.9615,0.0,0.0,0.0,0.0,0.0,1.9185,1.9626,1.8303,1.7083,0.0,1.7212,1.7604,1.7785,0.0,0.0,0.0,1.6198,1.559,1.5426,1.5829,1.5903,1.5482,1.644,1.7567,1.8713,1.9977,2.1191,2.2323,2.3176,2.3595,2.3595,2.3595,2.3595,2.361,2.36,2.4119,2.5048,2.5011,2.6001,2.7595,2.762,2.7601,2.7668,2.8606,2.9999,3.1317,2.9922,3.0293,3.1844,3.3422,3.4382,3.5052,3.547,3.5622,3.5673,3.5943,3.6907,3.7905,3.7905,3.8954,4.002,3.9766,3.9529,3.9495,3.9969,3.936,3.8937,3.9868,3.9715,3.9512,3.9986,4.007,4.007,4.007,4.007,4.007,4.007,4.0084,3.9472,3.7748,3.7435,3.717,3.6494,3.64,3.6192,3.5656,3.5583,3.5599,3.5577,3.5622,3.5728,3.5983,3.5932,3.6104,3.656,3.6122,3.6034,3.6334,3.583,3.583,3.6273,3.6908,3.7576]}]]